ECMWFNIL_sfc_thetae_000.txt.gz
Theta_e
360 351 355 357 354 351 353 350 351 339 345 346 348 345 348 348 350 351 349 350 349 348 349 349 349 349 347 348 349 348 349 347 347 349 348 348 348 343 340 341 342 345
349 349 351 354 354 350 352 346 347 349 343 344 346 348 348 350 348 349 351 348 348 346 347 345 346 348 348 346 348 347 349 348 346 347 346 347 348 345 338 339 339 342
349 348 346 344 344 345 342 347 348 344 348 347 346 346 344 345 348 353 351 349 346 346 346 347 345 346 347 347 348 347 344 347 346 346 349 346 344 341 340 336 340 337
350 349 346 344 347 342 346 347 349 344 346 349 345 347 345 344 345 345 348 346 346 346 346 344 344 344 345 346 347 347 345 346 346 347 347 346 344 343 341 341 339 337
350 347 348 347 347 348 349 344 343 343 343 345 344 348 348 350 348 345 345 345 346 343 342 343 345 344 346 346 346 346 346 348 348 347 345 345 347 343 342 342 340 338
351 351 352 349 348 348 345 342 343 343 347 339 347 347 348 348 348 344 343 341 338 338 339 340 341 343 344 344 347 347 348 347 346 346 343 342 343 344 341 339 339 337
349 349 346 347 345 346 345 346 346 347 345 345 346 345 346 344 344 344 344 342 341 342 340 341 342 342 343 344 344 345 346 347 344 344 344 343 344 344 340 341 341 336
349 347 347 349 345 347 345 345 346 348 346 346 342 343 345 341 343 341 342 343 341 341 342 342 342 343 340 340 340 341 344 341 340 342 341 341 342 341 342 338 339 336
349 348 347 347 345 344 338 338 338 342 341 340 341 341 344 345 344 344 345 343 341 341 343 342 344 343 342 340 340 341 341 340 340 339 343 340 337 339 340 340 337 335
347 348 344 339 337 340 337 336 336 337 342 343 344 342 342 346 345 341 339 340 340 339 339 341 343 346 343 341 341 341 341 339 339 340 341 340 338 338 338 338 334 333
343 342 341 342 339 335 335 334 333 333 339 337 338 338 342 338 341 346 345 340 338 339 341 340 343 345 343 341 341 343 341 339 340 338 336 338 340 338 335 336 334 331
343 341 340 340 340 338 336 338 338 340 335 332 335 335 342 338 339 337 336 338 340 340 339 340 341 347 344 344 345 339 338 339 342 343 340 338 338 338 337 335 334 332
342 343 343 339 343 342 342 339 335 333 333 336 332 331 332 333 334 334 338 340 339 339 340 341 340 339 343 346 345 343 342 343 340 337 338 339 338 336 335 333 332 332
342 344 343 345 345 350 347 344 342 344 345 344 342 339 334 334 332 336 337 336 337 339 340 339 338 338 346 346 340 338 338 335 334 333 333 336 338 338 336 333 332 332
347 345 346 347 345 347 344 344 345 345 344 343 343 341 339 336 336 337 339 338 337 337 337 339 338 340 340 338 338 337 340 336 334 331 332 336 336 335 333 332 332 332
349 348 347 347 346 344 345 345 343 344 342 342 342 341 343 343 343 344 336 333 334 337 340 339 338 336 337 334 332 338 339 338 335 334 335 335 335 334 332 331 331 330
347 347 346 346 347 345 346 344 344 344 344 344 344 344 344 345 340 336 332 335 334 332 332 336 333 333 329 327 328 330 337 339 337 335 334 332 330 329 329 330 331 331
346 347 346 346 346 347 346 346 345 345 345 345 345 343 345 343 339 339 340 341 336 333 335 334 336 331 322 324 327 327 331 337 337 333 331 330 330 329 329 329 330 331
347 346 346 346 346 346 347 346 345 343 343 344 342 346 344 340 340 337 336 338 338 341 337 338 336 329 322 322 324 324 327 332 336 336 333 333 333 332 331 331 332 332
346 345 345 345 347 346 346 346 345 345 345 342 343 346 341 337 337 338 339 339 340 343 344 341 338 329 320 319 320 321 324 328 336 335 335 335 335 333 331 333 336 330
346 346 344 346 346 345 345 344 345 345 345 343 340 339 338 339 338 339 343 338 339 340 340 337 330 325 319 318 317 317 319 324 332 334 335 336 336 335 335 335 332 332
345 345 344 344 345 345 343 343 347 346 344 348 345 341 337 336 337 337 334 334 339 340 337 336 333 319 319 317 316 316 319 328 332 333 334 334 333 334 334 337 336 333
343 343 343 342 343 343 342 340 340 340 341 341 339 334 332 334 336 335 335 335 339 338 339 338 338 328 316 316 316 316 319 330 333 333 333 333 334 333 333 334 335 333
342 342 341 342 342 341 341 343 341 341 342 346 339 333 332 332 333 338 335 344 337 332 332 333 331 327 315 314 316 317 321 329 333 334 333 334 332 332 335 333 333 338
343 343 342 342 342 342 340 336 339 343 346 337 334 335 335 337 334 331 336 332 327 326 332 332 329 326 312 317 317 315 322 332 335 335 332 332 333 333 332 329 330 331
344 346 344 341 341 340 341 347 345 347 335 336 336 332 331 331 332 331 333 329 328 328 327 327 328 329 334 318 314 314 315 328 335 333 330 330 331 331 330 330 334 331

ECMWFNIL_sfc_thetae_003.txt.gz
Theta_e
335 338 338 332 338 337 337 341 338 335 339 337 337 335 335 338 340 338 340 341 340 338 339 339 340 339 342 340 339 340 339 339 339 339 340 338 338 337 336 334 333 334
337 340 343 342 341 340 336 331 337 331 333 335 335 335 337 339 339 339 339 338 339 337 338 338 337 338 337 338 338 337 337 337 338 344 338 337 338 337 335 333 332 333
338 338 338 336 337 334 333 333 338 334 332 332 335 338 338 339 335 337 337 336 335 336 337 337 337 337 338 338 338 338 339 336 337 340 340 338 337 335 333 334 333 332
338 336 333 334 336 335 335 337 333 335 334 334 333 335 337 339 336 334 336 344 337 336 337 337 336 335 335 336 337 337 337 336 337 338 337 337 337 336 334 333 333 332
336 337 335 335 337 337 334 332 332 334 333 334 337 337 337 336 336 337 336 336 336 336 335 335 335 336 337 337 337 336 337 337 338 337 334 334 335 337 335 335 331 330
337 337 336 336 337 336 334 332 333 331 333 334 334 339 338 338 337 336 336 334 335 333 332 332 333 334 335 334 335 336 337 338 339 338 335 334 335 337 338 335 331 329
338 336 336 335 337 337 334 332 332 336 334 333 337 334 335 335 335 334 334 335 334 334 332 332 333 334 335 335 334 333 335 339 337 336 335 333 335 335 335 333 332 330
337 337 337 336 335 335 336 335 336 336 335 335 332 333 336 336 334 335 335 334 333 333 333 333 333 334 334 333 332 331 333 337 336 333 332 332 332 333 334 335 331 327
337 336 336 335 335 335 335 335 336 335 336 334 334 335 336 335 335 334 334 335 334 332 330 331 334 334 335 334 333 332 331 332 335 332 331 332 333 332 332 331 329 328
337 337 337 337 335 336 335 334 335 334 335 335 334 334 333 335 336 335 335 332 330 330 331 332 332 332 335 335 333 332 331 331 332 332 333 334 333 332 332 329 327 327
337 338 336 336 334 335 334 333 331 330 336 335 334 333 332 332 332 332 330 329 331 331 331 332 333 333 334 334 332 332 331 332 331 330 332 330 329 330 334 330 328 327
335 335 335 334 333 332 332 332 330 330 329 330 329 327 327 328 327 329 333 330 328 326 327 329 331 331 334 333 332 330 329 330 332 334 334 332 332 333 332 332 330 327
334 333 333 333 334 332 332 332 331 328 329 329 329 326 326 327 329 329 330 330 330 331 331 331 332 331 328 334 331 330 330 330 330 331 331 331 331 333 333 332 331 329
334 334 333 333 334 335 334 332 331 330 331 333 334 331 330 328 329 329 329 332 331 330 330 331 328 332 335 332 332 331 330 330 329 329 328 326 326 328 331 331 331 330
334 334 334 335 337 336 335 333 332 332 333 333 334 333 334 331 331 331 330 330 330 330 328 329 333 333 335 332 329 329 331 331 331 330 329 327 326 326 328 330 331 330
335 336 335 335 335 334 332 332 332 333 333 332 333 333 333 334 332 333 333 330 328 326 327 332 332 332 334 331 333 333 331 332 332 330 329 327 327 327 328 328 328 327
336 336 336 335 335 333 333 332 332 333 333 333 334 334 335 335 335 332 331 329 327 327 325 331 330 332 330 326 327 330 331 328 329 330 330 328 327 324 322 323 323 323
336 335 335 334 334 333 334 334 333 333 333 333 334 334 335 335 334 332 331 330 329 326 325 331 328 329 325 323 325 325 329 328 328 329 330 327 324 323 323 324 324 324
334 334 333 333 333 333 333 333 332 333 333 333 333 335 335 335 333 332 331 331 328 325 324 328 328 328 324 322 323 323 325 326 326 328 329 329 328 327 326 325 324 326
334 333 332 333 333 333 333 332 332 332 332 333 334 334 335 334 332 331 330 328 328 326 327 329 330 327 322 320 320 320 321 325 325 326 327 327 327 328 329 327 326 327
334 334 333 333 334 333 333 332 333 332 333 334 333 332 333 332 331 329 328 330 330 330 330 331 333 324 319 318 317 316 318 323 321 323 324 325 326 328 329 328 327 328
335 334 334 334 334 334 333 332 332 332 332 333 335 333 332 331 330 330 329 329 328 329 330 330 331 321 318 316 315 315 319 322 321 321 322 324 326 328 328 327 327 327
335 334 333 334 334 334 333 332 331 331 332 334 334 333 330 329 328 327 327 326 327 329 329 329 328 320 314 313 313 314 317 320 321 324 324 325 325 326 327 327 326 325
335 335 333 333 332 333 333 332 332 333 332 333 330 328 327 326 326 327 328 328 326 324 329 328 328 326 316 312 312 313 316 321 322 323 323 325 326 328 327 327 327 332
336 335 334 332 331 332 332 332 331 332 332 332 331 329 327 327 329 327 327 324 323 325 329 323 324 320 311 313 313 313 319 322 324 324 325 325 325 325 326 326 325 327
335 335 334 332 331 331 331 331 332 332 334 334 331 329 328 328 327 329 324 324 323 323 326 325 323 323 324 311 312 313 314 320 322 322 323 324 324 325 325 325 325 323

ECMWFNIL_sfc_thetae_006.txt.gz
Theta_e
331 331 332 330 330 335 335 332 331 330 330 328 329 331 332 333 335 334 334 336 336 334 334 334 336 336 339 336 335 337 336 335 335 333 334 334 331 332 333 330 329 331
331 335 338 333 337 337 333 333 332 329 329 331 329 330 331 334 334 335 334 335 336 334 333 333 333 333 332 333 333 333 332 333 334 339 335 333 332 332 332 330 328 328
332 335 335 333 333 332 329 329 332 328 329 329 329 330 331 335 332 332 333 334 333 332 332 332 331 333 333 332 333 333 334 332 334 334 336 334 334 334 333 331 329 329
332 334 333 332 332 331 329 330 331 329 328 329 330 333 335 335 333 332 332 341 333 332 332 332 332 332 331 331 331 331 332 333 334 333 334 335 335 334 332 331 331 329
332 331 331 331 332 332 331 331 329 329 329 329 330 331 335 333 332 330 330 332 331 331 331 332 330 330 331 331 331 331 332 333 333 332 332 332 333 334 333 333 330 328
333 331 331 330 331 332 331 331 330 329 329 329 330 334 333 332 331 332 332 330 331 331 330 328 328 329 330 330 329 330 330 333 333 333 332 331 331 333 335 334 330 328
333 331 331 331 332 332 331 329 329 332 330 330 331 332 334 333 332 332 331 331 329 331 329 328 328 329 330 330 329 330 330 330 332 332 332 332 332 331 333 333 331 329
332 333 332 332 332 332 330 329 329 330 330 330 330 331 332 332 330 330 331 330 330 329 330 330 330 329 330 328 329 328 329 331 332 330 331 332 331 331 331 333 331 329
333 333 332 331 332 331 330 329 329 329 331 331 331 330 331 330 330 330 330 330 329 329 328 329 329 328 329 329 329 328 327 327 331 331 330 329 329 329 330 331 330 330
333 333 332 331 330 331 331 330 331 331 333 332 331 330 330 332 332 331 331 329 329 329 329 327 327 327 328 329 329 328 329 329 329 329 328 328 328 329 330 328 328 327
333 332 331 330 330 331 331 331 331 331 331 332 331 331 331 331 332 332 330 330 330 329 327 326 326 327 327 328 329 330 329 329 329 328 326 326 327 328 330 328 327 327
333 332 332 331 330 331 331 332 331 331 330 332 332 331 331 330 330 329 331 328 327 326 326 327 327 327 328 328 330 330 330 329 328 327 327 327 327 328 328 328 328 328
332 333 332 332 332 331 332 332 332 331 330 330 332 331 329 328 327 325 327 328 327 326 326 326 327 327 326 329 330 329 329 328 326 326 327 328 328 329 329 329 329 329
333 333 332 332 333 332 332 332 331 329 327 327 329 327 326 326 325 326 326 328 326 326 327 329 327 326 326 329 329 329 328 327 326 326 325 325 325 326 327 328 329 329
334 333 333 333 334 332 331 330 330 329 327 327 328 326 327 325 326 327 326 326 327 327 327 327 327 329 331 330 329 328 327 327 327 327 326 325 325 325 325 325 325 326
333 333 333 332 332 331 331 330 329 328 328 327 329 329 329 330 327 328 327 327 327 326 326 326 328 329 332 331 331 330 327 328 327 326 326 326 327 326 326 326 326 326
332 332 332 331 331 331 331 331 330 329 328 328 328 328 328 329 330 328 328 329 328 327 325 327 329 330 329 326 327 331 330 326 326 327 327 327 327 326 326 326 324 322
332 332 331 331 331 331 331 331 330 329 328 328 328 328 329 330 329 330 329 329 330 327 325 325 327 328 325 325 326 326 330 329 326 326 326 325 325 324 323 322 322 323
332 332 331 330 330 331 331 330 328 328 328 328 328 329 329 329 330 330 330 329 329 327 326 325 325 326 324 324 324 324 325 327 324 324 324 324 322 323 323 323 324 324
333 332 331 330 331 331 330 329 328 328 328 329 329 330 330 329 330 330 330 329 329 328 328 326 324 324 323 321 321 321 322 324 323 323 322 321 322 322 323 323 324 324
335 333 332 331 331 331 330 329 329 328 328 329 329 329 329 329 330 330 330 331 330 329 327 325 325 323 320 319 318 317 319 323 320 322 319 319 320 321 322 323 324 325
335 334 333 332 331 330 329 329 328 328 328 329 329 328 329 329 329 330 330 329 329 328 326 325 327 324 320 318 316 316 319 323 319 318 317 318 320 322 323 324 324 324
334 333 332 331 331 329 329 328 328 328 328 329 328 328 328 328 328 329 329 328 327 326 326 326 327 323 317 315 315 315 317 317 317 318 318 319 320 321 322 323 323 323
333 333 332 331 330 329 329 329 329 329 328 330 328 328 328 329 328 325 325 327 326 326 327 326 325 322 314 312 312 314 319 317 317 317 317 319 320 322 322 321 323 330
333 332 331 330 329 329 329 329 328 329 329 329 329 328 327 325 327 324 324 323 323 325 332 324 322 317 311 311 311 312 316 316 316 316 317 319 320 319 319 319 320 323
333 332 331 330 329 329 330 330 330 329 328 328 327 326 325 324 326 325 322 321 323 324 325 322 320 319 320 310 310 311 314 317 317 317 318 318 316 317 318 316 316 318

ECMWFNIL_sfc_thetae_009.txt.gz
Theta_e
330 331 328 328 327 331 332 330 330 330 328 327 325 326 332 332 334 333 333 331 333 331 331 330 333 334 337 334 333 334 333 331 333 330 331 332 330 328 331 329 327 330
330 332 334 330 331 336 332 331 330 329 328 327 327 329 331 332 332 332 330 332 334 332 329 330 330 330 329 329 330 330 329 329 331 335 331 330 331 329 330 329 328 327
330 330 331 328 329 332 331 330 330 328 328 328 328 330 330 333 331 330 330 332 332 332 329 329 328 330 330 329 329 329 330 329 330 330 332 332 332 331 331 331 329 328
329 330 330 329 330 331 330 330 328 327 327 328 327 330 330 333 332 330 329 340 330 330 328 328 330 329 329 329 328 328 329 329 330 329 330 332 333 333 332 331 331 328
329 329 329 329 330 330 328 328 328 326 326 327 327 328 333 331 330 328 328 329 331 329 328 330 329 329 329 328 327 328 329 329 330 328 328 329 331 333 333 331 329 328
330 330 330 330 330 328 327 327 328 327 327 325 326 331 330 330 329 329 329 328 329 330 329 328 327 327 327 328 326 329 329 330 330 328 327 329 330 331 332 331 329 328
329 330 329 330 330 328 328 327 327 329 327 327 328 328 330 329 329 328 328 329 329 330 328 327 326 326 327 326 325 327 327 327 326 326 328 329 330 330 329 330 330 329
329 330 329 329 329 329 328 328 327 328 327 328 327 328 329 330 329 330 330 329 328 327 327 327 327 327 328 326 327 326 326 328 328 327 328 329 328 328 329 330 330 329
330 329 329 328 329 329 328 328 328 328 329 328 327 327 330 330 330 329 329 328 327 327 326 326 327 328 328 326 326 325 325 326 328 327 327 327 327 327 327 327 326 328
330 329 329 329 329 330 329 328 328 328 330 328 328 327 328 330 329 328 327 327 327 327 326 326 327 327 327 325 326 326 326 327 326 326 327 327 327 326 326 325 326 325
330 332 332 331 331 331 331 330 329 328 329 329 328 327 327 328 330 329 327 327 328 327 327 327 327 327 325 324 324 325 326 327 327 326 326 325 325 325 328 326 326 326
332 333 333 332 331 331 331 331 329 328 328 330 329 328 328 328 328 328 330 328 327 328 328 327 326 325 324 325 325 326 326 327 327 326 326 325 324 324 324 325 325 325
333 333 333 333 332 331 331 330 329 329 329 329 331 329 328 328 328 327 330 329 328 327 326 326 325 325 324 324 325 326 326 326 326 325 325 325 325 326 326 326 326 326
332 332 332 332 332 331 331 330 330 329 329 329 330 329 328 328 327 327 327 328 327 326 326 326 325 324 324 325 326 326 326 325 325 325 325 324 324 324 325 325 325 326
334 333 333 334 334 331 330 330 330 330 329 329 329 329 330 328 327 326 325 324 325 325 325 326 326 326 326 326 325 325 325 325 325 325 325 324 323 323 323 323 323 324
333 333 333 334 333 332 331 330 330 330 329 327 327 327 327 327 324 324 324 324 324 324 325 326 326 327 330 328 329 328 326 326 326 325 324 324 325 324 324 324 324 324
333 333 333 332 332 332 331 330 330 330 329 328 327 326 325 325 325 323 323 324 324 325 325 326 326 327 327 325 327 330 329 325 324 324 324 324 324 323 323 324 324 324
333 332 331 331 332 331 331 331 330 329 328 327 326 326 326 326 326 325 325 326 326 326 325 326 326 327 324 324 326 327 330 329 325 324 325 323 323 322 322 322 322 322
332 332 331 330 330 331 331 331 330 329 328 327 326 327 326 326 326 327 326 327 327 326 326 327 327 326 323 323 324 324 326 328 326 324 323 322 322 322 321 320 320 321
332 331 330 331 331 331 331 330 329 329 328 328 328 328 327 326 326 326 327 326 327 327 327 327 327 325 322 321 321 322 323 326 324 322 322 321 321 321 320 319 319 319
332 331 330 331 332 331 330 330 330 329 328 328 328 327 327 326 326 326 326 328 327 328 327 327 329 324 320 319 318 318 320 324 322 322 321 320 319 319 319 319 319 320
332 331 332 332 331 330 329 329 329 329 329 329 329 328 327 327 326 326 326 327 328 327 327 327 328 323 320 318 317 317 320 323 320 319 318 317 317 318 319 319 319 320
332 332 332 331 331 330 329 329 329 329 329 329 328 327 326 325 326 326 328 327 326 326 326 326 327 324 318 316 315 316 317 319 318 318 316 316 317 317 317 318 319 319
333 332 332 331 331 330 329 330 330 330 329 330 328 327 326 326 326 325 325 326 326 326 327 326 327 324 318 314 314 315 318 317 316 316 315 316 316 315 316 316 319 328
334 333 333 331 331 331 331 330 330 330 330 329 328 327 327 325 327 325 323 323 326 326 330 328 325 322 316 313 312 312 318 315 316 316 315 315 315 316 314 315 317 321
334 333 332 332 332 332 332 331 331 330 328 327 326 326 325 323 326 324 323 322 323 325 328 326 324 322 321 310 309 309 315 317 315 314 316 316 312 314 316 313 313 314

ECMWFNIL_sfc_thetae_012.txt.gz
Theta_e
337 336 335 333 332 332 331 330 331 333 333 333 332 332 333 336 338 337 338 336 337 336 335 335 339 338 339 338 339 338 338 336 337 335 336 336 336 334 335 335 334 335
333 335 336 333 333 335 332 331 332 333 332 332 332 332 334 336 337 337 336 335 338 337 335 335 336 338 338 338 336 336 336 337 336 339 336 336 337 335 335 336 335 334
332 333 332 330 330 332 332 332 333 332 332 331 331 332 334 336 336 335 334 335 336 337 335 335 334 336 335 335 334 336 337 335 335 335 338 337 337 336 337 335 335 334
331 332 331 330 330 332 332 332 332 331 331 330 330 333 335 336 335 334 333 341 335 336 335 334 334 334 334 335 335 335 334 334 335 335 335 336 337 337 336 336 336 336
331 332 333 331 331 334 332 331 331 330 330 330 330 333 335 335 333 333 333 336 334 334 333 334 333 333 334 334 333 333 333 334 334 334 334 334 335 336 336 336 336 335
332 332 332 331 331 332 331 331 331 330 330 329 330 334 333 333 333 333 333 332 333 333 333 333 333 333 333 334 332 333 333 333 334 334 333 334 335 335 335 336 335 334
331 331 331 331 331 331 331 331 331 332 329 330 331 331 331 331 331 332 332 332 331 334 333 333 333 333 332 332 331 332 332 332 332 332 332 333 334 334 334 334 334 334
331 331 332 331 330 330 330 330 331 331 330 330 328 329 331 330 331 332 333 331 330 331 332 332 332 332 331 331 331 331 331 332 332 331 331 332 333 333 334 334 334 334
332 332 331 330 330 331 329 330 329 330 331 329 329 328 331 330 331 331 332 332 331 332 331 331 331 331 332 331 331 331 331 331 332 331 331 331 331 332 333 333 332 333
331 332 330 330 330 330 329 329 330 329 331 329 329 328 328 331 332 331 332 331 331 332 331 331 331 331 331 331 331 331 330 330 331 331 331 331 331 332 332 332 331 331
332 332 331 330 330 331 331 331 330 329 331 330 329 328 329 329 332 332 331 331 330 330 330 330 331 331 331 330 330 331 330 330 330 330 331 331 331 331 331 332 330 330
332 332 331 332 332 331 332 333 332 331 330 330 330 328 329 329 329 330 331 330 330 330 331 331 331 331 331 331 330 330 330 330 330 331 331 331 331 330 330 331 331 331
332 332 333 333 333 333 334 333 333 333 331 329 331 330 329 328 328 329 332 331 330 330 331 331 331 330 330 330 330 329 329 330 330 330 331 331 331 331 330 330 330 330
332 334 333 332 333 333 331 330 331 332 331 330 331 330 329 329 329 329 330 332 331 331 331 332 331 330 329 329 329 329 329 329 330 331 331 330 330 330 330 331 331 331
332 333 332 332 332 329 329 331 332 332 332 331 330 331 331 330 330 330 330 330 330 331 331 331 330 329 329 328 328 328 329 329 330 330 330 330 330 329 329 329 329 330
331 331 331 330 326 327 329 330 331 332 332 330 330 330 330 331 330 330 330 329 329 329 329 329 328 329 330 327 328 330 329 329 329 330 330 330 330 330 329 328 329 329
329 329 329 328 325 327 329 329 330 331 331 331 330 329 329 330 331 329 328 329 328 328 327 328 328 329 326 324 325 328 331 329 328 329 330 330 330 330 330 330 330 329
328 327 326 327 326 328 329 330 331 332 331 330 330 329 329 329 329 328 328 328 327 327 326 327 328 326 323 323 325 326 329 332 330 329 329 329 329 329 330 330 329 328
328 325 327 329 330 330 330 331 331 331 331 330 330 330 330 328 328 328 328 327 327 327 326 328 328 326 323 323 323 324 325 328 331 331 329 329 329 329 329 328 328 328
329 327 329 330 331 330 330 329 329 329 330 330 331 331 330 329 329 329 329 328 327 327 328 329 329 325 322 321 321 321 323 326 331 331 330 329 329 328 328 327 327 326
329 328 327 327 328 329 329 328 328 329 330 330 331 330 330 329 329 328 328 329 329 329 329 329 330 323 320 319 318 318 320 324 329 329 329 328 328 327 327 327 325 325
328 327 326 327 328 329 329 328 328 329 330 331 331 330 330 330 330 329 329 329 329 329 329 329 331 322 320 319 317 317 320 326 327 327 327 327 326 325 325 325 325 325
329 327 328 329 329 328 328 328 328 329 330 331 331 330 329 328 329 328 330 329 329 330 329 329 330 325 318 315 315 316 318 326 326 326 325 324 324 323 324 324 325 325
329 328 329 331 331 329 329 330 330 331 331 332 331 330 329 329 329 329 330 330 329 329 330 330 330 326 318 314 313 315 319 326 325 324 323 323 323 322 323 323 324 327
331 330 331 330 331 331 331 330 330 330 332 332 332 331 330 330 330 328 328 328 329 329 330 331 331 327 317 315 314 313 320 325 324 323 322 321 321 321 320 322 323 323
333 333 333 332 331 332 332 331 332 332 332 331 330 330 330 330 330 329 328 328 328 330 331 331 330 328 328 312 311 309 316 325 323 322 322 322 319 320 322 322 321 321

ECMWFNIL_sfc_thetae_015.txt.gz
Theta_e
363 363 360 358 356 355 353 351 350 351 351 349 346 347 347 350 351 352 351 351 350 348 349 349 348 347 346 348 348 348 347 346 345 345 345 345 343 342 341 341 343 343
362 361 359 357 355 353 352 351 350 350 350 350 349 350 350 351 350 350 350 349 350 348 349 347 348 348 346 344 347 346 346 346 344 345 345 345 344 344 341 342 342 343
360 358 356 354 352 351 348 348 349 349 348 348 349 350 349 349 350 351 351 349 348 346 348 348 347 348 347 347 348 346 344 345 344 343 346 346 345 344 344 340 342 342
357 355 353 352 351 350 348 347 346 348 348 347 347 347 347 348 349 349 350 349 347 347 346 346 346 345 347 347 347 344 344 345 343 346 345 346 346 345 343 343 342 342
354 352 351 349 348 350 348 345 343 345 345 345 347 348 348 348 348 348 348 348 348 346 347 347 347 345 347 346 346 344 345 343 345 347 344 343 344 344 342 344 344 342
352 351 350 349 348 349 346 345 345 344 344 345 346 346 346 347 347 346 347 345 344 342 344 345 345 344 345 345 346 344 343 340 341 345 343 342 340 342 343 344 344 342
350 349 347 346 346 347 346 346 347 346 344 345 347 345 346 346 346 346 347 345 344 344 343 344 345 344 345 346 345 344 345 343 344 344 342 342 343 342 344 344 343 342
349 347 345 344 344 345 344 345 345 345 346 347 343 344 345 343 345 345 346 345 343 345 345 345 345 347 344 345 343 343 342 343 342 344 344 342 343 342 342 343 344 343
346 344 343 343 343 343 341 342 343 344 344 342 340 340 343 343 344 343 343 344 343 343 344 344 345 345 345 344 343 343 341 341 342 342 342 341 340 340 340 343 343 343
345 342 340 339 339 341 339 340 340 342 342 341 339 338 338 340 340 341 341 342 341 341 342 343 343 343 343 343 343 343 342 342 343 343 342 341 340 340 340 343 341 340
342 341 340 339 338 338 339 339 339 338 339 339 339 338 338 337 337 339 340 339 338 339 341 341 342 343 343 343 343 343 343 342 343 344 343 342 342 341 341 342 341 340
341 342 341 340 339 339 339 338 337 339 339 339 339 338 336 335 335 336 337 338 339 340 341 342 343 344 344 343 342 342 343 342 342 343 342 342 342 342 343 343 341 341
344 344 341 340 342 343 342 340 338 339 339 338 339 335 333 331 333 334 337 337 339 339 340 341 342 343 343 343 343 344 343 343 342 342 342 342 343 342 341 342 342 342
345 346 345 342 342 344 343 341 340 341 341 340 337 334 333 333 333 332 334 336 338 338 340 342 342 342 342 342 343 343 343 342 343 341 341 341 343 343 342 340 342 341
346 347 347 345 341 342 343 342 344 342 338 338 335 332 333 333 333 333 333 335 337 339 340 340 340 340 341 342 342 343 343 342 342 342 341 341 342 341 342 342 342 342
346 347 347 346 342 342 342 341 338 334 333 335 333 332 333 335 334 334 334 335 337 338 339 340 340 341 335 328 332 342 343 343 342 342 342 342 341 340 340 341 341 340
345 345 346 345 343 342 340 336 333 333 333 332 333 332 333 334 334 333 333 334 335 336 337 338 339 339 328 326 326 327 337 343 342 342 343 342 341 340 340 340 341 341
343 344 345 344 343 340 339 335 333 331 330 330 332 332 332 333 333 333 335 336 336 336 337 339 340 330 325 324 325 325 327 339 342 341 341 341 341 340 341 340 340 340
344 343 344 344 342 339 337 333 331 329 327 328 331 332 332 331 332 334 335 337 337 337 337 338 339 329 324 323 323 323 324 328 338 342 341 341 341 341 341 341 341 339
344 343 342 342 341 337 335 331 329 328 329 332 332 332 332 332 334 335 336 337 337 338 339 339 339 329 323 320 320 321 322 326 337 341 343 342 342 342 341 340 338 334
343 342 341 341 339 337 335 333 332 333 333 334 333 333 332 332 334 335 336 337 337 337 337 337 337 325 321 319 318 317 319 324 336 340 341 341 340 340 339 337 337 336
341 341 340 339 337 336 336 334 333 334 334 336 335 333 333 334 336 336 336 336 337 337 335 336 337 323 320 318 317 317 320 331 336 338 338 337 337 337 338 338 338 338
340 339 339 338 336 335 334 333 333 334 335 336 334 334 333 333 334 335 337 337 337 338 337 337 338 329 317 315 315 315 321 334 337 337 337 335 334 337 337 337 337 337
340 339 338 337 336 334 334 335 335 336 336 336 334 333 332 333 334 335 337 338 338 338 337 338 338 333 317 314 313 315 323 336 337 335 331 329 331 334 336 335 335 331
340 339 339 337 336 336 336 336 336 336 336 336 335 335 335 336 336 336 336 338 337 337 336 335 338 329 315 316 314 313 322 334 335 333 331 331 332 334 334 333 334 332
340 339 338 337 336 337 338 337 338 337 336 335 335 335 335 336 336 337 336 337 337 337 336 336 335 337 328 312 311 310 316 334 334 332 331 331 334 332 333 333 334 334

ECMWFNIL_sfc_thetae_018.txt.gz
Theta_e
370 369 367 365 364 364 364 363 361 361 361 358 357 357 355 357 355 353 352 352 351 348 347 348 348 347 345 346 347 347 347 347 345 345 345 343 342 340 340 340 340 340
371 370 368 367 365 366 365 364 364 363 363 363 361 358 358 356 353 352 351 349 348 347 348 347 347 347 346 345 346 345 346 346 345 344 344 344 343 342 340 341 340 341
371 370 369 367 365 365 364 366 367 365 363 362 361 358 355 354 353 352 350 347 347 346 347 347 346 346 345 345 346 344 344 345 344 343 344 344 342 341 342 338 339 339
371 371 369 368 366 366 367 365 365 364 363 361 358 356 354 352 351 349 348 347 347 347 347 347 346 345 346 345 345 343 343 344 344 345 344 344 344 342 342 341 339 339
371 370 370 369 367 368 367 365 362 362 360 359 358 356 354 351 350 348 347 346 347 347 346 346 346 345 346 345 345 344 343 341 344 344 343 341 343 342 341 340 339 338
371 372 371 369 368 367 365 363 362 360 359 357 356 353 352 351 350 347 346 346 345 345 345 345 345 343 343 344 344 344 342 341 341 343 341 340 339 339 338 339 339 338
369 370 368 367 367 366 365 364 363 361 359 357 355 352 351 350 348 346 347 347 346 345 345 345 345 345 344 344 344 344 343 343 343 342 341 340 340 339 338 339 339 338
368 367 366 366 365 365 364 363 362 359 359 357 354 353 351 348 348 346 348 348 345 346 346 345 345 346 343 343 343 343 343 343 342 342 341 340 339 339 339 339 339 338
366 366 365 365 363 362 360 359 359 359 357 355 352 350 351 348 348 347 349 350 347 345 347 346 346 346 344 342 343 344 343 341 341 341 340 338 337 338 338 339 338 337
365 364 362 361 359 359 357 359 356 356 355 353 350 347 347 346 349 347 350 348 345 346 347 346 345 344 342 342 343 343 342 341 341 340 339 338 338 338 338 338 337 336
362 362 361 359 357 356 354 353 352 353 353 351 348 344 346 348 350 351 350 348 345 345 345 345 343 343 342 342 343 343 343 341 341 341 339 339 339 340 339 339 337 336
361 361 359 358 356 355 354 353 351 352 351 349 346 342 346 346 348 346 345 346 346 345 343 342 342 342 343 342 342 343 343 342 341 341 339 340 340 339 339 339 338 338
360 360 360 357 357 355 353 353 350 349 347 344 343 342 344 343 345 345 345 344 343 344 342 341 341 341 343 345 344 344 344 344 341 340 340 340 340 338 337 337 338 338
361 362 361 359 357 355 353 352 350 349 348 346 344 344 342 341 343 342 342 341 341 342 342 342 341 341 344 346 345 345 344 343 343 341 340 339 340 339 339 337 337 337
363 362 362 358 354 354 353 352 350 349 348 349 347 345 341 342 344 342 340 340 340 341 341 341 340 340 343 344 345 346 344 342 342 342 341 339 339 338 339 339 339 338
362 362 360 357 354 355 351 351 348 348 348 347 347 345 346 345 344 341 338 338 338 338 338 339 339 341 338 331 336 343 343 343 342 343 342 341 339 339 339 339 339 339
361 360 359 356 354 353 347 349 349 349 348 347 346 346 344 343 342 338 337 338 337 336 335 335 338 340 330 327 329 331 341 342 342 343 344 342 340 340 339 339 340 340
360 360 359 356 354 353 348 348 347 345 347 347 347 345 343 342 339 340 340 340 338 337 335 336 339 331 326 326 327 326 330 342 341 341 340 339 339 339 339 339 339 339
360 359 358 357 354 353 350 347 347 346 345 344 344 344 342 340 340 340 340 339 339 338 335 337 338 330 325 324 325 325 325 331 341 342 339 338 339 340 340 342 343 342
360 358 357 357 354 352 351 347 345 345 344 342 343 341 339 338 339 340 339 339 339 339 339 340 341 330 324 322 322 322 324 328 342 343 341 338 339 340 342 345 344 338
360 357 356 356 354 351 351 347 345 345 344 342 342 340 337 337 338 337 339 340 340 340 340 340 340 327 321 320 319 319 321 326 341 343 342 341 341 343 346 346 343 342
359 357 356 355 353 351 349 347 346 345 344 344 342 343 342 340 339 337 337 339 341 341 340 340 340 324 321 319 318 317 321 335 339 341 341 341 342 345 345 344 344 344
358 356 355 354 353 350 348 346 345 344 344 344 339 336 335 336 336 337 338 339 340 340 340 341 341 328 318 317 316 316 322 338 340 341 341 340 342 343 343 343 342 341
358 356 355 353 352 349 348 346 345 345 343 342 337 334 331 331 332 333 335 338 338 339 339 341 340 329 315 314 314 315 326 340 340 338 339 341 341 340 340 341 338 339
357 356 355 353 352 350 349 347 344 343 342 341 338 336 333 334 333 333 334 335 336 337 337 338 339 328 313 314 313 313 328 340 339 340 340 338 337 337 338 338 336 336
355 355 355 353 352 351 350 348 347 345 343 339 336 335 334 334 334 335 335 334 336 337 338 339 336 340 332 311 311 311 319 340 341 339 336 335 335 332 329 332 336 338

ECMWFNIL_sfc_thetae_021.txt.gz
Theta_e
366 367 364 363 362 361 361 360 360 360 360 357 356 356 354 355 356 354 352 353 353 351 350 351 349 350 348 347 347 347 346 345 345 343 344 344 343 340 340 339 340 340
367 367 367 365 364 364 363 362 362 361 360 360 358 357 357 357 353 353 354 352 353 351 351 349 350 350 348 345 346 344 345 345 343 343 343 343 343 342 339 340 340 342
368 367 365 364 362 363 361 363 363 362 359 358 359 359 358 358 356 355 354 353 352 349 349 350 350 349 346 346 346 345 344 345 343 341 344 342 342 341 343 336 338 339
370 369 366 365 364 363 364 362 363 363 360 357 357 358 357 357 355 353 354 352 351 348 348 349 348 347 347 347 347 345 345 345 344 344 342 343 344 343 343 343 341 339
370 370 368 366 366 366 365 364 361 360 360 357 358 360 360 358 355 353 352 350 350 347 349 348 347 347 347 346 346 345 344 342 344 346 343 342 344 343 342 342 341 339
372 373 371 368 367 366 364 363 363 360 360 355 359 359 358 356 353 352 350 347 345 345 346 347 347 346 346 345 346 346 343 341 341 342 340 341 341 341 340 340 339 338
370 372 371 368 367 366 365 365 366 364 361 358 361 359 358 354 352 351 351 348 344 346 346 347 348 346 346 345 347 346 346 345 344 344 341 340 342 341 339 339 340 339
370 371 371 370 367 367 366 366 365 364 364 362 361 360 357 353 352 350 350 348 346 346 348 347 348 348 344 345 344 344 344 342 342 343 342 341 342 340 340 339 340 340
369 371 371 370 367 365 364 363 364 364 364 361 360 357 356 354 352 349 349 349 347 347 348 348 349 347 346 345 344 343 344 342 342 343 341 340 339 339 339 340 339 340
370 370 369 368 366 365 362 361 360 361 362 361 360 356 354 355 353 349 349 349 346 348 348 347 347 346 346 346 344 343 343 345 346 343 341 340 339 340 339 339 339 339
369 368 368 368 365 362 361 359 356 359 361 360 358 355 355 353 352 350 349 348 346 348 346 345 345 346 346 344 343 342 343 343 344 343 341 341 340 340 340 340 340 339
368 368 368 366 363 361 360 358 355 360 360 359 357 354 355 352 351 347 348 350 350 347 345 348 347 347 346 343 340 341 343 343 343 342 341 341 340 339 340 340 340 340
368 368 367 366 365 362 361 359 356 357 357 357 356 354 353 352 348 348 349 351 348 342 344 348 345 346 344 343 342 343 344 343 341 341 340 341 340 339 339 340 339 339
369 370 370 369 365 365 364 361 358 355 355 357 357 353 350 350 347 347 350 351 346 344 349 350 347 342 342 344 343 342 342 342 343 341 339 340 340 340 340 338 338 338
373 372 370 369 366 366 363 362 361 359 356 355 358 355 351 349 350 350 351 350 350 349 350 347 343 340 343 343 342 342 342 342 343 343 340 340 340 340 341 340 339 338
372 372 371 370 367 365 365 364 360 358 355 356 356 355 353 351 353 352 349 346 345 346 345 341 341 343 336 328 334 342 343 342 343 342 342 341 341 340 340 339 339 338
372 370 369 368 366 365 365 364 362 360 360 361 358 355 353 353 351 347 347 346 348 347 342 340 339 337 328 326 328 333 342 343 341 341 342 342 341 341 340 340 340 340
370 369 368 367 366 365 364 363 362 361 359 357 355 353 352 352 347 350 349 346 344 341 339 339 339 329 325 325 327 328 334 344 341 341 341 342 342 340 340 340 339 338
370 368 368 365 364 363 363 363 362 360 359 357 355 354 353 352 351 348 344 343 342 339 336 337 337 327 323 324 326 326 328 335 341 341 340 339 339 339 339 339 341 346
368 368 367 365 363 362 361 359 359 358 357 356 355 355 355 353 350 347 345 344 341 341 338 337 337 326 322 322 323 324 326 331 340 339 339 339 339 338 337 339 345 340
367 367 366 364 363 360 358 357 357 358 357 355 353 352 353 350 348 346 344 342 339 337 336 336 337 325 321 321 321 321 323 328 340 341 341 340 340 339 339 339 341 340
367 366 366 364 360 358 357 356 356 357 356 355 353 352 352 349 347 345 342 341 340 339 338 339 338 321 320 320 319 319 323 336 340 343 342 340 340 340 340 344 346 341
367 365 364 362 359 357 356 355 355 355 354 355 353 350 348 346 346 342 343 341 340 340 339 339 338 326 318 317 318 318 323 339 341 342 343 342 341 343 344 347 345 344
368 366 364 361 360 358 356 353 354 353 352 354 351 349 347 346 344 342 342 342 340 339 338 338 338 332 315 315 315 316 327 340 342 342 343 344 344 344 346 345 343 342
368 366 365 362 360 358 354 353 353 353 352 352 349 349 348 349 346 344 341 339 337 335 337 336 337 330 313 314 314 314 329 342 343 342 343 342 341 342 343 343 344 341
366 365 364 363 360 358 355 354 354 351 350 348 348 347 346 345 344 342 340 337 336 336 335 336 337 339 326 313 312 313 319 344 345 341 337 341 342 341 341 341 338 337

ECMWFNIL_sfc_thetae_024.txt.gz
Theta_e
366 367 366 366 365 363 363 363 361 361 361 359 359 358 358 359 359 358 357 355 355 354 355 354 354 352 353 353 355 356 362 348 351 347 349 351 347 345 343 343 344 347
366 367 367 367 367 365 366 364 363 362 362 363 361 361 362 358 359 359 357 355 354 352 355 352 352 353 352 350 351 349 351 350 349 347 346 346 349 348 342 348 344 347
366 366 367 365 364 364 360 363 365 363 362 362 362 362 359 358 356 358 357 354 352 350 353 352 351 352 350 350 348 347 346 349 347 344 348 347 348 347 346 339 340 340
367 367 365 364 364 364 362 363 364 363 363 360 360 359 358 356 355 355 357 356 353 352 351 350 349 348 348 348 346 346 346 347 347 348 353 348 345 346 345 346 345 348
367 367 366 364 364 365 364 362 359 362 359 360 360 360 359 359 357 353 354 353 354 352 351 350 350 348 348 347 348 345 346 345 346 347 346 349 347 345 345 346 346 347
368 368 367 366 364 365 363 362 361 360 359 358 359 359 359 360 356 353 352 351 351 348 347 347 348 346 347 347 348 347 345 343 343 346 345 344 345 343 343 343 342 341
367 368 367 366 365 365 364 363 362 361 360 358 360 358 358 358 355 354 352 351 349 348 346 346 347 346 346 347 346 346 347 345 344 344 342 342 344 343 341 343 344 342
366 367 367 366 364 364 363 363 362 362 362 360 358 359 359 356 355 354 353 351 349 347 347 347 348 348 346 346 345 345 345 344 344 345 342 341 340 339 342 340 341 342
367 368 367 366 363 362 359 360 362 363 363 360 358 358 359 357 355 353 353 352 348 347 347 348 348 347 347 346 345 345 343 343 343 344 343 341 340 340 340 341 340 341
367 368 365 363 361 360 358 359 359 361 362 361 358 357 358 358 357 354 353 351 347 346 347 348 348 347 346 346 345 345 344 343 342 342 342 341 340 340 340 340 339 339
365 366 366 364 363 361 360 359 360 361 361 359 358 355 358 358 356 354 353 350 346 346 346 347 347 347 347 345 346 345 344 343 343 343 343 341 341 341 343 340 339 338
363 364 365 364 363 360 360 359 360 361 361 360 359 357 359 357 355 352 351 350 347 347 346 347 347 347 347 345 344 344 344 343 344 345 343 343 342 342 342 342 341 340
363 364 365 365 364 363 361 360 359 359 360 360 359 358 358 356 354 352 350 350 348 347 347 347 348 347 347 346 346 345 344 343 343 343 343 342 342 341 340 341 341 341
366 365 364 366 366 366 363 361 360 358 359 362 360 359 357 355 354 352 350 349 347 347 348 348 347 347 347 347 347 346 344 343 343 342 341 341 341 341 339 338 339 339
366 366 365 366 366 367 364 362 361 360 359 362 362 360 357 355 355 353 349 349 348 347 349 347 345 345 346 346 346 344 343 342 343 342 341 340 340 339 339 339 339 339
368 367 366 367 366 366 365 363 361 360 359 361 361 360 359 357 356 353 350 348 348 348 348 346 345 346 340 333 338 343 341 341 342 342 341 340 339 339 338 339 339 338
369 369 368 367 367 366 365 364 362 361 360 361 361 360 358 357 357 352 349 349 350 347 343 344 346 345 330 328 331 334 340 341 341 342 343 342 340 339 338 339 339 340
369 370 370 369 369 367 366 365 364 363 362 361 360 360 359 358 356 352 350 351 350 345 340 343 346 334 325 326 328 329 335 342 342 342 343 342 340 339 340 340 339 339
371 372 371 371 370 368 367 366 366 365 364 363 362 362 361 358 356 353 351 352 350 347 343 346 347 328 324 324 326 326 329 337 341 342 341 340 340 341 340 340 341 340
373 372 371 371 371 370 368 367 366 364 363 363 361 360 359 356 354 353 353 352 350 348 347 345 342 325 323 321 323 323 326 330 344 343 341 340 341 341 340 339 341 346
373 372 371 371 370 369 367 366 365 364 363 360 358 356 355 354 352 351 351 351 348 348 347 343 340 321 320 319 320 320 323 327 339 342 343 342 341 340 338 338 346 345
371 370 370 369 367 367 365 364 364 364 361 361 359 357 356 355 354 351 350 349 348 346 343 340 336 319 319 318 318 319 323 333 337 339 339 339 340 342 341 345 345 345
371 369 367 366 365 363 362 361 361 361 361 361 357 355 354 354 353 351 351 347 346 345 342 339 335 321 317 316 317 318 321 333 334 336 337 336 336 340 341 343 346 346
371 369 367 365 363 361 359 359 358 359 359 360 355 351 349 351 351 351 350 348 345 342 340 338 336 325 315 314 315 316 323 332 333 335 335 335 336 339 340 343 345 348
369 369 367 364 362 360 358 356 355 356 356 357 354 353 351 352 351 349 348 347 343 341 336 337 338 331 313 314 314 314 323 334 336 335 333 334 336 337 340 344 341 342
368 367 366 364 362 360 359 358 356 354 354 352 352 352 351 350 350 348 346 344 343 342 342 339 338 342 323 313 312 312 318 335 337 335 334 335 336 338 335 335 338 337

ECMWFNIL_sfc_thetae_027.txt.gz
Theta_e
359 359 357 355 354 355 353 350 353 352 351 351 351 349 352 350 352 351 350 350 349 349 346 343 341 338 341 342 342 343 341 338 340 338 339 338 336 337 338 335 337 336
359 359 358 357 356 355 354 353 354 354 352 351 352 351 352 351 351 351 350 349 349 346 344 343 342 340 340 340 340 342 340 339 340 342 338 339 336 335 336 335 335 333
359 358 358 357 356 355 355 355 354 355 354 353 353 353 352 352 350 351 350 349 347 345 343 342 342 341 342 340 340 340 340 337 338 338 338 337 337 336 336 336 333 336
359 358 358 358 358 355 356 355 354 355 355 354 353 354 353 352 352 350 348 352 345 345 343 341 341 343 342 341 339 338 340 338 337 338 337 337 337 335 335 335 336 335
358 359 359 359 359 357 356 355 354 354 355 355 354 354 354 350 349 350 348 347 344 344 344 342 341 342 342 341 339 338 339 338 339 338 339 337 336 336 336 338 336 335
359 359 359 359 359 357 355 355 355 354 354 355 354 354 353 350 348 350 349 346 344 344 344 342 341 342 341 341 338 337 338 338 338 338 337 339 336 336 336 337 336 334
358 358 359 359 359 359 355 355 356 355 355 354 355 354 352 350 347 348 348 347 344 344 343 342 341 341 341 340 338 337 337 338 337 338 336 336 338 335 336 335 334 332
359 359 359 359 358 358 356 355 355 355 355 354 353 354 352 351 348 347 348 347 345 344 343 342 342 341 341 339 340 336 337 340 338 337 337 336 336 335 334 336 335 334
360 359 359 358 357 357 357 356 355 355 356 354 353 353 353 352 350 348 347 346 345 344 343 342 342 341 341 339 339 338 337 338 338 337 336 336 335 334 335 335 334 335
359 359 359 358 357 357 357 356 356 355 356 354 354 353 352 352 351 348 346 345 344 343 342 341 341 341 340 339 338 338 338 337 337 337 336 336 335 334 334 335 333 332
358 359 358 358 357 357 356 357 356 356 356 354 354 353 353 352 351 349 347 345 344 343 341 341 341 341 340 339 339 339 338 338 337 336 337 337 336 335 339 335 334 333
358 358 358 358 358 357 356 356 356 356 355 355 354 352 352 352 351 349 347 345 344 343 342 341 341 341 340 340 339 339 338 338 338 337 337 337 337 336 337 336 335 334
358 358 358 358 358 357 357 356 355 356 356 355 355 353 352 351 351 349 348 347 345 343 342 341 341 341 340 340 340 339 338 338 338 338 337 337 337 337 337 336 336 335
358 358 359 359 359 358 356 356 355 354 355 355 355 353 351 352 351 350 348 347 346 343 342 342 342 341 340 340 340 340 339 338 338 338 337 337 337 337 336 336 336 336
357 358 359 360 359 358 356 355 355 354 355 355 354 353 352 352 352 351 348 346 346 344 342 341 341 342 341 340 340 340 340 339 338 338 337 337 337 337 336 336 336 337
357 357 358 359 359 358 357 356 355 354 355 355 354 353 352 352 352 351 349 347 345 343 342 341 341 342 337 330 334 340 340 340 339 338 338 337 337 336 336 336 335 336
357 357 357 358 359 359 358 357 355 355 354 355 355 354 352 352 352 350 348 347 345 343 342 342 342 341 330 328 330 334 339 339 337 337 338 337 337 336 334 335 335 335
357 357 356 357 359 359 359 357 356 354 353 353 355 354 353 352 351 350 348 347 345 344 342 342 342 332 326 327 329 330 334 339 336 337 338 337 336 336 335 335 335 335
358 357 357 356 357 358 359 358 356 354 353 353 354 354 353 352 350 349 347 346 345 343 342 342 342 331 325 326 328 328 330 335 334 335 337 336 337 336 335 335 335 335
358 358 357 357 357 358 358 358 356 354 354 354 355 354 353 352 350 348 347 345 345 344 342 342 342 329 324 323 325 326 327 331 333 336 337 337 337 337 337 336 336 335
358 358 358 358 358 358 358 357 356 355 354 354 354 354 353 351 350 347 346 345 345 345 343 342 342 325 321 321 322 322 324 329 334 336 337 337 338 338 337 337 336 337
358 358 359 359 359 358 358 357 356 355 355 355 353 353 353 352 350 348 346 345 346 345 343 340 341 321 320 320 320 321 324 332 333 334 335 336 337 338 337 338 337 337
359 360 360 360 360 359 358 357 356 356 355 354 352 350 350 349 348 347 347 346 345 345 343 342 338 321 318 317 318 319 322 333 331 332 334 336 336 335 337 337 338 338
361 362 362 362 361 360 359 358 358 357 355 353 352 349 348 348 347 346 346 346 345 344 343 341 333 322 315 315 316 316 323 332 332 331 332 334 335 334 334 335 340 348
363 363 363 362 361 360 359 358 357 356 355 354 352 351 349 349 347 346 345 344 343 342 339 337 332 322 313 315 315 314 323 332 332 331 330 331 333 333 333 332 333 339
364 363 363 362 360 359 359 358 357 356 355 352 350 349 348 348 347 345 343 342 341 340 339 337 334 329 321 312 312 312 317 331 330 329 328 328 330 331 331 331 333 332

ECMWFNIL_sfc_thetae_030.txt.gz
Theta_e
352 351 351 351 352 351 351 350 350 349 350 350 349 349 349 349 350 349 349 348 347 344 344 343 342 338 340 338 339 339 339 338 338 337 336 337 333 334 334 332 332 328
352 353 353 352 352 353 352 352 351 350 349 350 350 350 350 349 350 349 349 347 347 345 344 343 340 336 338 338 338 338 337 337 336 339 336 334 334 333 333 332 333 330
353 353 353 352 352 352 352 352 351 351 350 350 350 349 350 350 349 349 349 348 346 346 345 343 339 336 337 338 337 338 337 336 335 337 337 334 333 333 333 333 331 330
354 354 354 354 353 352 353 352 351 351 350 349 349 349 351 350 349 349 348 352 346 346 345 343 339 336 335 337 337 337 337 336 336 337 336 336 335 333 332 332 333 332
354 355 355 355 355 354 353 352 350 351 350 350 350 350 351 350 348 348 348 348 347 345 343 342 339 336 336 336 336 336 336 335 335 336 334 333 334 335 333 333 332 330
355 356 356 356 355 354 353 352 350 351 350 350 350 351 350 350 348 348 348 347 346 345 342 341 338 336 337 336 335 335 336 335 335 335 334 333 333 335 335 333 332 331
355 355 356 356 356 355 353 352 351 351 351 351 351 351 350 349 348 348 348 347 345 345 341 339 338 337 337 337 335 334 335 335 335 335 334 333 333 332 333 333 333 331
356 356 356 356 356 355 353 352 352 351 352 352 350 350 351 349 348 348 348 347 345 343 342 339 338 337 338 337 335 334 333 336 335 334 334 334 334 332 333 333 332 331
357 356 356 356 355 355 354 353 352 352 352 352 351 351 351 350 348 348 347 347 345 343 342 340 338 338 338 337 336 335 334 334 335 334 334 333 333 334 333 333 332 331
357 357 356 356 355 355 355 354 353 353 353 352 352 352 350 351 349 348 347 346 344 342 341 341 339 338 338 338 337 336 334 334 335 334 334 333 333 333 333 333 332 331
356 356 356 355 355 355 355 355 354 353 353 352 352 352 351 350 349 347 347 346 344 342 341 340 340 339 338 338 338 337 336 335 335 334 334 334 333 333 337 333 332 331
356 356 355 355 355 355 355 355 355 354 353 353 352 352 352 351 349 347 346 346 345 343 342 341 341 340 339 338 338 337 337 336 335 335 335 334 334 334 334 333 332 332
356 356 356 355 355 355 355 355 355 354 354 353 353 352 351 350 349 348 346 345 345 344 343 342 341 340 340 339 338 337 337 336 335 334 335 335 335 334 334 334 333 333
356 356 356 356 356 356 355 355 355 354 353 353 353 352 351 350 349 348 347 345 344 344 343 343 341 340 340 339 339 337 337 336 335 335 335 335 335 336 336 335 334 334
356 356 357 356 356 355 355 354 354 354 354 353 353 352 352 351 351 349 348 346 344 343 343 342 341 340 340 339 338 337 337 336 335 335 335 334 334 335 335 336 335 335
356 356 356 356 356 355 355 354 354 354 353 353 352 352 352 351 350 350 348 347 345 343 342 342 341 341 336 328 332 339 337 337 336 336 335 335 335 334 335 335 335 335
356 356 356 355 355 355 355 354 354 353 353 352 352 352 351 351 350 349 348 348 346 344 343 342 342 341 329 326 328 331 337 337 336 336 335 335 335 335 334 335 335 335
355 355 355 355 355 355 355 354 354 353 352 351 351 351 351 351 349 349 349 348 347 345 344 343 342 332 326 325 327 328 332 339 338 337 336 335 335 335 335 335 334 334
355 355 354 354 354 355 355 354 353 352 351 350 350 351 351 350 349 349 348 348 347 345 344 344 343 331 325 324 326 326 328 335 338 338 336 335 335 335 335 334 334 334
355 354 354 354 354 355 355 354 353 352 352 351 351 351 350 350 349 348 348 348 347 346 345 345 344 330 324 322 323 324 326 331 338 338 337 336 336 336 335 334 334 333
354 354 353 353 354 354 354 354 353 353 352 351 351 351 350 350 349 348 348 348 347 347 345 345 345 328 321 320 320 321 324 328 338 338 336 335 336 336 335 335 334 334
354 354 353 353 353 353 353 353 353 353 352 352 351 351 352 352 351 350 348 348 347 346 345 344 345 322 319 319 319 320 323 333 337 336 334 333 334 335 336 336 336 335
355 354 353 353 353 352 352 353 353 353 353 353 351 351 351 351 351 350 349 348 347 346 345 344 341 321 318 316 317 319 322 335 336 336 334 333 334 335 335 335 336 336
355 355 353 353 352 352 352 353 354 355 354 353 351 351 351 351 352 351 349 348 346 345 345 343 339 320 315 315 316 317 324 335 336 335 333 333 333 335 335 335 337 344
356 355 355 353 353 352 353 353 354 354 355 354 353 352 351 352 351 349 348 347 346 346 340 341 334 320 313 315 316 316 325 336 336 334 332 332 333 333 331 331 334 342
355 355 355 354 354 353 353 354 354 355 354 353 353 352 351 350 348 348 346 344 343 343 342 339 333 327 320 313 314 314 319 335 335 333 331 331 331 332 330 328 329 329

ECMWFNIL_sfc_thetae_033.txt.gz
Theta_e
349 348 348 347 347 347 347 347 347 347 349 350 350 350 351 352 352 350 350 349 348 346 344 342 342 341 339 337 338 337 337 336 336 334 333 334 332 332 331 330 328 328
349 349 349 349 348 348 348 348 348 348 348 350 350 351 351 351 351 350 348 348 348 346 345 343 342 341 338 337 337 336 335 336 335 338 333 333 333 331 331 330 331 328
349 348 348 347 348 348 348 349 349 348 348 349 351 350 351 351 350 350 348 348 347 346 345 344 342 341 339 337 336 336 336 335 334 336 335 333 333 331 331 331 330 329
349 349 348 348 348 348 349 349 349 349 349 348 349 350 351 351 350 349 348 351 346 345 344 344 342 341 339 337 336 336 336 335 336 335 335 334 334 332 331 331 332 330
350 349 349 349 349 349 350 349 349 349 348 349 349 350 350 349 349 348 347 347 346 345 344 343 342 340 338 337 336 335 335 335 335 334 334 333 333 333 331 332 330 329
350 350 350 350 349 349 349 349 350 349 349 348 349 350 349 349 348 348 347 347 346 345 344 343 342 340 336 335 335 335 335 335 334 334 333 333 333 333 333 331 330 329
350 350 350 351 350 350 349 349 350 350 350 350 350 349 349 348 348 348 347 347 346 346 344 343 342 340 337 335 334 334 334 335 333 333 333 333 333 332 333 331 330 329
350 351 351 351 350 350 350 350 350 350 350 350 348 349 349 348 348 348 347 347 346 345 345 344 343 341 338 335 334 333 333 334 333 333 333 332 331 331 331 332 331 329
350 350 351 351 350 351 350 350 351 351 351 350 349 349 349 349 348 347 347 347 346 345 345 344 342 341 339 336 334 333 333 333 334 333 332 332 331 331 330 331 330 330
350 350 351 351 350 351 351 351 351 351 351 350 350 349 348 349 348 348 347 346 345 345 344 344 342 341 339 337 335 334 333 333 333 333 332 332 332 331 330 330 330 330
350 350 350 350 351 351 351 352 352 352 351 350 350 349 349 348 348 348 347 346 345 345 344 343 342 341 339 337 336 335 334 333 333 333 332 332 332 332 335 331 331 331
351 351 350 350 351 351 352 352 352 352 351 351 350 349 349 349 348 347 347 346 346 345 345 344 343 341 339 338 337 336 335 333 333 333 333 332 332 331 333 333 332 331
351 351 352 351 352 352 353 353 353 352 352 351 351 350 349 348 348 347 347 346 346 346 345 344 343 341 339 338 337 336 335 334 333 332 332 332 332 332 332 333 333 332
352 353 353 353 353 353 353 353 353 353 352 351 351 350 350 349 348 348 347 347 346 345 345 344 343 341 340 338 337 337 336 335 334 333 332 332 332 332 332 332 333 333
352 353 354 354 354 353 353 353 353 353 353 352 351 350 350 350 350 349 347 346 345 345 345 344 343 342 341 339 338 337 336 336 335 334 333 333 332 332 332 333 333 332
353 353 354 354 354 353 353 353 353 353 353 352 351 351 350 350 350 349 348 347 345 344 344 344 343 342 336 328 331 338 337 336 336 335 334 333 333 332 332 333 333 333
353 353 354 353 354 354 353 353 353 353 352 352 351 351 350 349 349 348 348 348 346 345 343 343 344 342 329 326 327 331 337 336 335 335 334 334 333 333 332 333 334 334
353 353 353 353 354 353 353 353 353 352 352 351 350 350 350 350 349 348 348 348 347 346 344 343 343 332 327 325 326 327 331 338 336 335 335 334 334 334 334 333 333 333
353 353 353 353 353 354 354 353 352 352 351 351 350 350 350 349 349 348 348 348 347 346 345 345 344 331 325 324 325 325 327 333 337 336 336 335 335 335 334 334 334 333
353 353 353 353 354 354 354 353 352 351 351 351 351 350 349 349 349 348 348 347 347 346 346 346 344 330 323 321 322 323 325 330 338 337 337 337 336 335 335 334 334 333
353 353 353 353 353 353 353 352 352 352 351 351 350 350 349 348 348 348 348 348 348 348 347 346 346 328 320 319 319 320 323 326 338 338 337 337 337 336 335 335 334 334
353 353 353 353 353 353 352 352 352 351 351 351 350 350 350 350 349 349 348 347 348 348 347 345 347 324 319 318 318 319 322 331 336 337 337 337 336 336 336 335 335 334
354 353 353 353 353 352 352 352 351 351 351 352 350 349 349 348 349 349 349 348 347 347 346 346 345 323 317 316 317 318 321 333 335 336 337 336 335 336 335 334 335 334
354 353 353 352 352 352 352 352 352 353 352 352 350 349 348 349 349 349 349 349 348 347 347 346 344 322 315 314 316 316 322 334 335 335 335 335 335 334 333 334 336 342
354 354 353 353 352 352 352 352 352 352 353 352 351 351 350 350 349 348 348 348 348 348 341 344 343 323 313 315 315 315 323 335 335 335 334 334 334 332 333 333 333 340
353 353 353 353 352 352 353 353 353 353 352 352 351 351 350 350 349 348 348 348 348 347 345 345 341 328 320 313 314 313 318 336 336 335 334 334 334 332 331 330 332 335

ECMWFNIL_sfc_thetae_036.txt.gz
Theta_e
350 349 348 348 347 347 347 347 347 348 348 350 350 351 352 354 356 356 355 355 354 352 351 349 348 347 344 342 341 341 341 339 340 339 339 339 338 338 337 336 335 336
349 350 350 349 348 349 348 348 348 348 348 349 351 352 353 354 355 355 355 354 354 353 351 348 347 346 344 341 341 339 339 340 339 340 338 338 337 337 336 337 336 335
349 349 349 348 347 347 347 348 349 348 348 349 351 352 352 354 354 355 354 354 353 352 350 348 346 345 344 342 341 340 339 339 338 339 340 337 338 337 337 335 335 335
349 349 349 349 348 348 348 348 348 349 349 349 350 352 353 353 354 353 353 355 352 352 350 348 346 345 344 342 341 340 340 339 339 340 339 339 339 338 337 337 337 336
349 349 349 349 349 349 349 348 347 348 348 349 350 352 353 353 352 352 352 352 352 351 350 348 347 345 344 342 341 339 339 339 339 339 338 338 338 338 337 337 336 335
349 350 350 349 349 349 348 348 348 348 348 348 349 351 352 352 352 352 351 351 351 350 349 348 347 346 344 343 340 340 339 339 339 338 338 338 338 338 337 336 336 335
349 349 349 350 349 349 349 349 349 349 349 349 350 350 351 351 351 351 351 351 350 350 349 347 346 346 344 342 341 340 339 339 339 338 337 337 338 337 337 337 336 335
349 349 350 350 349 349 349 349 349 349 350 350 349 350 351 350 351 351 351 350 350 349 349 348 346 346 345 342 341 340 339 339 338 338 337 337 337 337 337 337 337 335
349 349 350 349 349 348 348 348 349 350 351 350 349 349 351 351 351 351 351 350 350 349 348 347 346 345 345 343 341 340 339 339 339 337 337 336 336 336 337 337 336 336
349 349 349 349 348 349 348 349 349 350 351 350 350 350 349 351 351 350 350 350 349 349 348 347 346 346 345 343 341 340 339 339 338 338 337 337 336 336 336 336 336 336
348 349 349 349 349 349 349 349 349 350 351 350 350 350 350 350 350 351 350 349 348 348 348 347 347 346 345 343 342 341 340 339 338 337 337 337 337 336 337 336 336 336
348 348 348 349 349 349 350 350 350 350 350 351 351 350 350 350 349 349 349 349 349 349 348 348 348 347 345 344 342 341 340 339 338 338 337 337 336 337 337 337 335 336
347 348 349 349 350 350 351 351 351 351 351 350 351 351 350 349 349 349 350 349 349 349 348 348 347 347 346 345 344 342 340 339 338 337 337 337 337 336 336 337 336 336
348 349 349 350 351 351 351 351 351 351 351 352 352 350 350 349 349 349 349 349 349 349 349 349 348 347 346 345 344 343 341 340 338 337 336 336 337 337 336 336 337 336
349 350 350 350 351 351 351 351 351 352 352 352 352 351 351 351 350 350 349 348 349 348 348 348 347 346 346 345 343 342 342 340 339 338 337 336 336 336 336 336 337 337
350 351 351 351 350 350 351 351 352 352 352 352 351 351 351 351 351 350 349 348 348 348 348 347 347 347 339 329 333 343 341 340 339 338 337 336 336 336 336 336 336 336
350 350 351 351 351 351 351 351 352 352 352 352 352 351 351 351 351 349 349 349 348 347 347 347 347 346 330 326 328 331 340 341 339 339 338 337 337 336 335 336 336 337
349 350 351 351 351 351 351 352 352 352 352 352 351 351 351 351 350 350 350 349 349 348 347 347 347 334 327 326 327 327 332 341 340 339 338 338 337 337 336 337 337 337
350 350 350 351 351 352 352 352 352 352 351 351 351 352 351 350 350 350 350 350 349 348 347 347 347 333 326 324 326 325 327 335 341 340 339 339 338 338 337 337 337 337
350 350 350 351 352 352 353 352 352 351 352 352 352 352 351 350 350 350 350 350 349 349 348 348 348 332 324 322 323 323 325 331 342 340 340 340 339 339 338 338 338 337
349 350 350 351 352 352 352 352 352 352 352 352 352 352 351 350 350 350 350 350 350 350 349 348 348 328 322 320 320 320 323 327 342 342 340 340 340 340 340 339 339 338
350 350 350 351 351 352 352 352 352 352 352 353 353 353 353 352 352 351 350 350 350 350 349 348 349 325 320 319 318 319 321 334 340 341 341 340 340 340 340 340 340 339
350 350 350 351 351 351 351 352 352 352 353 354 352 352 352 351 351 351 351 351 350 350 349 348 349 328 318 317 317 317 321 337 339 340 341 340 340 341 340 340 340 339
351 351 350 351 351 351 351 352 353 353 353 353 352 351 351 351 352 352 352 352 350 350 349 348 349 330 315 315 315 315 324 338 339 339 339 340 340 341 340 340 340 342
352 352 351 351 352 352 352 352 353 353 354 354 353 353 352 353 352 351 351 351 351 351 338 345 349 332 314 315 314 314 325 340 339 339 338 339 339 339 338 338 338 341
353 353 353 352 352 353 353 353 354 354 354 353 353 353 352 352 351 351 350 350 351 350 349 347 349 340 322 314 313 313 318 339 340 338 337 338 339 338 336 336 337 339

ECMWFNIL_sfc_thetae_039.txt.gz
Theta_e
360 360 358 357 357 358 358 358 358 358 359 359 359 361 362 365 367 366 366 365 364 363 364 364 363 363 364 362 360 359 357 356 353 354 353 351 350 348 347 348 348 347
360 360 360 359 358 359 360 359 359 359 360 361 361 362 365 366 366 366 365 364 364 362 363 363 362 364 363 361 359 357 356 355 353 353 352 352 351 349 347 349 348 348
360 360 359 358 357 357 356 359 360 360 359 360 361 363 363 364 364 366 366 365 363 362 363 362 362 364 363 361 359 357 355 354 352 350 352 352 350 349 349 345 347 349
360 360 358 358 358 357 357 358 359 359 359 359 359 360 361 362 364 364 365 364 364 363 362 361 361 362 362 361 359 356 355 354 353 354 352 352 352 350 349 350 348 348
359 359 359 359 359 359 359 358 356 357 357 357 359 361 362 363 363 362 363 363 363 363 362 360 360 362 362 360 358 356 354 353 353 353 351 350 352 350 349 349 348 346
360 360 360 359 359 359 358 357 357 356 357 356 358 359 360 362 362 361 362 361 361 360 360 360 360 361 360 359 357 356 354 351 352 352 350 350 349 349 347 349 348 347
358 359 359 359 359 359 358 358 358 358 357 358 360 359 360 360 361 361 362 362 360 361 362 362 362 360 360 359 357 355 354 353 353 351 350 349 350 350 348 348 348 347
357 357 358 358 357 357 358 357 357 358 359 359 358 359 360 359 361 361 362 362 361 362 363 363 362 362 359 358 356 354 354 353 352 351 350 350 350 349 349 348 348 348
357 357 357 358 356 356 356 355 357 358 359 358 357 357 359 359 360 360 362 363 361 362 363 362 362 362 360 358 356 355 354 352 351 351 350 349 349 348 348 349 347 347
357 357 356 355 354 355 355 355 355 357 358 357 356 356 357 359 360 361 362 362 361 362 362 362 362 361 360 359 357 356 355 354 352 351 351 350 349 349 348 348 346 346
355 355 355 355 354 354 355 355 355 355 357 356 356 355 357 358 359 361 361 361 359 360 361 361 361 361 360 358 358 357 356 355 354 352 352 351 350 350 348 349 347 346
355 355 354 354 354 354 354 355 355 355 356 356 356 356 357 357 358 359 359 360 360 360 361 361 361 361 360 359 357 356 356 355 354 353 352 352 351 351 350 350 348 348
354 355 355 354 356 355 355 355 355 355 355 355 356 356 356 356 357 358 359 359 360 360 360 361 361 360 360 360 358 357 356 355 353 353 352 352 351 350 350 349 349 348
355 356 357 357 357 358 357 356 356 356 357 357 357 356 355 356 356 357 358 359 359 360 361 361 361 360 360 360 359 357 355 354 353 352 351 351 351 350 349 348 348 348
357 357 358 359 358 358 357 357 357 357 358 358 358 357 356 356 357 357 358 358 359 359 360 360 359 359 359 359 358 357 356 354 353 352 351 350 350 349 348 348 348 347
358 358 358 359 358 358 358 358 357 358 357 358 358 357 358 358 359 358 358 357 357 358 359 359 358 359 346 334 339 356 356 354 353 352 352 350 350 348 347 347 346 346
357 358 359 358 358 359 359 359 358 359 359 359 359 359 358 359 358 358 357 357 357 357 357 357 357 355 333 330 332 335 352 355 353 352 352 351 349 349 348 347 347 347
356 358 358 357 358 358 359 359 359 359 358 359 359 359 359 359 358 358 358 357 357 357 356 357 357 338 329 328 329 329 336 354 354 353 351 350 350 349 349 348 347 346
359 358 357 358 358 358 359 359 359 359 359 359 358 359 359 359 358 357 358 358 357 357 356 356 357 335 328 326 327 327 328 340 354 353 351 350 350 350 349 349 349 347
358 357 357 358 358 359 359 359 358 358 358 358 358 359 359 358 358 358 358 358 358 357 357 357 357 334 326 324 324 324 326 333 353 353 352 351 351 351 350 350 350 349
358 358 358 359 359 359 358 358 357 358 358 358 357 357 358 358 357 357 358 358 358 357 357 356 356 330 323 322 321 321 323 327 351 353 352 352 352 352 351 351 351 350
358 358 358 359 359 358 358 357 358 358 358 359 359 358 359 358 359 358 357 358 358 358 356 356 356 327 322 321 320 319 321 338 349 352 352 352 352 352 352 352 352 351
357 357 358 358 359 358 358 357 357 358 359 360 358 358 357 356 357 357 358 358 358 358 357 356 357 334 320 318 318 317 323 344 348 351 352 351 351 352 352 352 351 351
358 358 358 358 358 357 357 357 358 359 359 360 358 356 355 356 357 358 358 359 357 357 357 356 357 337 316 316 316 315 326 345 348 350 350 350 351 352 353 352 351 344
358 359 359 357 358 358 358 358 358 359 359 360 358 358 357 359 358 357 358 359 358 357 342 351 357 338 315 316 315 314 328 348 349 350 349 349 350 350 352 352 352 344
356 359 358 357 358 359 359 359 360 359 359 359 358 358 357 358 357 357 356 356 358 357 357 355 355 356 330 314 314 313 319 347 351 349 348 349 350 350 349 349 349 350

ECMWFNIL_sfc_thetae_042.txt.gz
Theta_e
364 365 366 365 365 364 364 364 363 364 364 362 361 364 362 367 368 367 369 371 371 370 371 371 371 369 367 367 368 367 364 363 360 357 359 357 353 347 345 347 349 347
363 365 366 367 365 366 365 365 366 365 365 365 364 364 367 368 369 368 369 371 372 370 371 370 370 369 368 365 366 365 364 362 361 358 358 357 353 348 345 348 348 349
364 364 364 365 364 365 363 366 367 366 364 365 366 366 366 368 370 371 371 371 370 368 369 369 369 367 367 367 367 366 363 362 360 358 360 359 353 349 348 346 347 349
366 366 364 365 366 366 366 365 366 367 366 365 365 364 365 367 369 370 371 371 369 369 368 369 367 366 367 367 367 365 365 364 362 363 359 359 356 351 349 348 348 349
365 364 365 366 367 368 368 366 364 365 365 364 365 366 366 367 369 369 369 369 370 369 368 368 369 367 368 367 367 365 365 362 362 363 358 357 358 354 351 349 348 348
365 367 368 366 368 368 366 365 366 365 365 363 364 365 365 367 367 366 367 368 367 365 365 367 368 366 366 366 365 366 364 362 361 361 358 358 356 354 351 350 349 349
365 366 366 367 369 368 367 367 367 366 365 366 366 365 366 365 366 367 367 367 366 366 364 366 368 366 366 366 365 365 365 365 364 361 359 358 357 354 352 350 351 349
366 367 368 368 366 367 366 366 366 366 367 367 365 366 367 365 367 367 367 367 366 367 367 367 368 369 365 365 366 366 367 365 363 361 359 359 357 355 354 351 352 351
365 366 367 367 365 365 364 363 365 366 366 366 363 363 367 366 366 366 368 368 367 367 368 367 368 369 368 367 368 368 366 364 363 362 360 359 357 355 354 354 352 351
365 365 364 364 363 363 362 363 363 364 365 364 364 362 363 366 367 367 368 368 367 368 368 368 368 369 368 367 367 368 367 365 364 364 363 361 358 357 355 354 352 351
362 362 362 363 362 361 362 362 362 362 364 364 363 362 363 365 366 367 368 368 367 367 368 368 368 370 369 366 366 367 367 365 365 365 363 362 360 358 355 356 354 352
362 362 361 361 361 361 361 361 361 361 362 363 363 363 363 362 365 365 366 368 369 369 369 369 370 370 370 368 365 366 367 365 365 365 363 363 362 359 358 357 355 354
361 362 362 360 361 361 360 360 360 360 361 361 363 363 362 361 362 365 366 367 369 369 368 369 370 369 369 369 367 366 367 366 363 365 364 363 362 360 358 358 356 355
361 363 363 363 363 364 363 361 361 361 362 362 364 363 361 361 361 363 365 366 368 369 369 370 370 369 369 370 368 366 366 366 364 364 363 363 363 362 360 358 358 356
363 364 364 365 364 364 363 362 362 363 364 364 364 363 362 362 362 362 365 366 367 368 369 368 367 368 368 368 367 366 366 365 365 363 363 363 362 361 361 359 359 358
365 365 365 365 364 364 365 364 362 363 363 363 364 364 365 364 365 364 364 365 365 367 368 367 367 367 354 338 345 365 366 364 364 364 364 363 362 361 360 360 359 358
365 365 366 365 365 365 365 365 364 364 364 365 365 365 365 366 365 364 362 364 365 365 365 366 366 364 337 333 335 340 360 366 363 364 365 363 362 362 361 359 360 359
365 366 366 365 366 365 366 366 365 364 364 365 364 365 366 365 364 363 364 364 364 365 364 365 366 343 331 331 333 333 341 364 364 363 363 362 362 361 361 360 359 358
368 367 366 366 366 366 367 367 366 365 364 364 364 365 366 365 365 364 364 364 364 364 363 363 365 338 330 328 330 331 332 345 362 363 361 361 362 362 361 361 360 359
367 367 366 367 367 367 366 366 365 364 364 364 364 365 365 365 364 364 364 365 364 364 365 364 364 337 327 326 327 327 329 337 360 361 362 362 362 361 361 361 361 360
366 366 366 367 367 367 367 366 365 366 365 364 363 363 364 364 363 363 364 365 364 363 363 363 362 332 324 323 323 323 326 330 358 359 361 362 362 362 362 361 362 361
364 363 364 366 366 366 365 364 365 365 364 364 363 363 365 364 364 364 363 364 364 364 362 362 363 329 322 322 321 322 324 344 356 358 359 360 362 362 361 361 361 361
362 362 363 364 365 364 364 363 364 364 365 366 363 362 361 363 364 363 364 364 364 364 363 363 364 339 319 319 319 319 325 351 355 356 358 359 360 360 359 359 359 359
364 364 364 364 365 363 363 363 363 364 365 365 363 361 360 361 363 364 364 364 363 363 363 363 363 341 316 317 317 316 330 352 355 356 357 358 358 359 358 358 357 347
364 364 365 364 364 364 364 363 363 364 365 365 363 363 361 362 363 363 362 363 363 363 345 356 363 344 315 317 315 315 332 355 356 356 356 356 356 355 356 355 357 350
363 365 365 365 366 366 365 364 364 363 363 362 363 362 362 361 361 362 362 362 362 361 361 361 362 366 336 315 315 314 320 354 358 355 355 355 355 354 354 356 355 358

ECMWFNIL_sfc_thetae_048.txt.gz
Theta_e
364 364 364 363 361 361 361 364 364 364 365 363 362 363 362 365 366 364 364 366 369 368 368 370 369 369 368 369 370 370 369 364 362 364 363 357 356 353 350 347 349 350
363 365 365 364 363 362 362 363 366 366 367 367 365 366 367 367 366 366 365 365 368 368 369 370 369 368 369 367 369 367 369 366 364 362 360 358 356 354 351 349 347 350
364 365 365 363 361 362 359 362 365 368 367 367 367 367 367 367 366 366 368 366 366 365 368 369 369 369 369 369 369 368 366 366 363 359 359 358 356 354 354 348 346 348
364 364 363 362 361 362 361 361 362 366 367 367 364 363 365 363 365 365 365 369 366 366 367 368 367 368 370 370 370 367 367 367 364 364 361 359 357 355 354 353 347 346
363 364 363 362 363 363 362 360 358 362 364 365 366 364 363 365 365 364 364 366 367 367 368 368 368 368 371 370 369 366 365 366 366 365 363 358 358 356 355 353 351 347
364 364 364 364 365 364 363 360 361 360 362 361 365 365 363 363 366 363 364 363 365 364 364 366 367 366 369 370 368 366 364 363 364 364 362 360 356 356 354 354 351 349
364 364 364 364 364 364 364 363 362 362 362 362 365 365 364 361 363 364 365 365 362 362 362 364 366 365 366 368 367 366 365 364 364 364 361 359 358 355 354 355 352 349
364 364 364 363 361 362 363 364 364 363 364 365 364 366 366 362 361 361 365 366 365 364 365 366 367 367 365 366 366 365 364 364 364 364 361 359 358 356 354 354 354 349
364 363 363 362 360 359 358 359 363 364 365 364 363 362 366 365 363 360 363 366 366 367 367 366 367 366 365 365 366 365 363 361 362 364 362 359 357 356 355 355 353 351
365 364 361 359 359 359 359 358 359 362 364 363 363 361 362 365 366 363 364 366 366 367 368 366 366 366 365 364 365 365 364 363 362 362 363 361 358 356 355 355 353 352
361 362 363 361 360 359 359 358 359 361 363 361 360 360 362 363 365 367 367 366 365 366 368 367 365 366 365 363 365 366 365 363 362 361 362 361 359 358 357 356 355 352
362 361 360 361 360 358 358 357 358 359 362 363 364 363 362 362 364 365 366 367 366 366 368 368 367 365 365 364 363 364 366 365 363 361 361 362 361 359 358 357 356 355
362 360 360 361 361 358 357 359 359 358 360 362 363 362 361 359 363 364 365 368 367 367 366 368 367 366 365 366 365 365 366 365 364 363 361 362 363 361 359 358 357 357
363 362 360 362 362 362 360 359 359 358 359 362 365 363 361 359 358 363 366 366 368 367 367 367 367 367 366 367 367 366 366 366 365 363 361 362 363 363 360 358 358 357
365 364 362 363 364 363 360 359 359 359 360 361 364 364 362 360 358 360 364 365 367 368 368 367 366 366 366 366 367 366 366 365 365 364 362 362 363 363 362 360 359 358
366 366 365 364 364 363 361 361 359 359 359 360 362 364 364 364 361 358 362 365 365 368 368 367 366 366 355 342 348 364 365 363 364 364 363 362 363 362 362 362 360 358
367 367 367 365 365 364 364 362 361 361 360 361 361 363 365 366 365 360 357 363 365 366 367 367 366 363 341 335 339 344 360 363 363 365 364 363 362 362 361 361 361 360
368 368 368 367 366 365 365 365 363 362 361 361 361 362 365 366 365 363 361 358 364 365 366 367 367 347 335 334 336 337 345 363 363 363 364 363 361 361 362 362 361 360
370 369 368 368 368 367 367 367 365 363 362 361 360 362 363 365 366 364 363 361 360 365 365 367 368 343 333 331 333 334 336 349 363 361 360 361 361 360 360 362 361 360
370 369 369 369 370 369 369 368 367 364 362 361 361 363 363 363 365 364 364 363 361 363 366 367 368 344 329 328 330 331 333 341 363 362 361 360 361 360 358 359 362 360
371 370 369 370 371 371 369 369 368 367 365 363 362 362 362 362 363 363 364 364 363 362 364 366 366 339 326 326 326 327 330 335 361 362 361 361 362 362 361 358 359 361
371 370 370 371 371 371 369 368 368 368 366 365 363 363 364 364 365 364 364 364 364 363 361 362 364 335 325 324 324 325 327 343 358 360 359 360 361 362 362 362 360 360
372 371 371 372 372 370 369 367 368 369 369 367 364 362 362 363 363 363 364 364 364 364 362 361 362 341 322 322 322 323 327 349 357 360 359 358 359 361 362 363 362 361
373 372 372 372 372 371 370 369 369 370 369 368 363 361 358 360 363 363 364 365 364 364 364 362 363 345 319 319 319 320 330 351 356 358 359 359 358 360 362 363 362 350
373 373 373 372 372 372 371 371 370 369 370 370 365 363 361 364 364 364 364 365 364 364 349 359 363 350 318 318 317 318 330 353 357 358 358 358 358 358 360 362 363 353
372 374 373 372 372 373 373 372 371 369 370 369 367 363 361 361 363 364 363 364 364 364 363 363 364 365 341 314 315 315 320 351 359 358 357 358 359 359 358 359 361 364

ECMWFNIL_sfc_thetae_051.txt.gz
Theta_e
354 354 354 354 354 355 356 355 356 354 355 354 356 356 356 357 358 357 358 359 361 361 362 362 362 361 361 360 360 359 359 357 357 355 355 349 346 346 342 341 343 341
354 355 355 355 354 355 356 357 356 356 355 356 355 357 358 359 359 358 358 360 361 361 362 363 361 361 360 359 360 359 357 356 356 358 356 349 348 346 345 340 340 342
354 354 354 354 354 354 355 357 357 357 356 357 358 357 358 361 360 358 358 360 361 361 361 362 362 361 361 359 360 359 359 356 355 357 356 349 349 345 346 343 339 341
354 354 354 355 355 355 355 355 357 358 358 357 358 359 359 360 360 358 357 362 360 360 361 361 362 361 360 360 360 358 359 358 357 356 355 351 350 347 347 344 341 340
354 354 355 355 355 356 355 353 355 358 358 359 360 360 360 358 358 358 358 358 359 359 360 360 361 361 360 360 361 358 358 359 357 355 353 351 350 348 348 347 342 339
355 355 355 355 355 355 354 353 353 357 359 359 360 360 360 360 358 358 358 359 358 359 359 360 360 361 361 360 362 359 359 358 358 356 354 350 349 350 349 348 344 340
354 354 354 355 355 355 355 354 353 354 357 360 361 360 359 359 358 358 357 358 359 359 359 360 360 360 362 361 361 360 359 359 358 356 355 351 350 348 349 348 346 343
354 354 355 356 355 355 355 355 354 354 355 358 359 360 359 357 358 358 358 356 359 359 359 360 360 360 361 362 361 360 359 360 359 357 355 354 350 348 347 349 347 344
355 354 355 355 355 355 355 355 355 354 355 355 357 360 360 358 356 358 358 357 356 358 359 359 360 360 361 362 361 360 359 358 359 358 356 354 352 349 348 348 347 345
355 355 354 355 355 355 355 355 355 355 355 355 356 358 359 359 356 355 358 358 356 356 357 358 360 360 360 361 361 361 359 357 357 357 357 355 354 351 349 348 347 346
355 355 354 354 354 355 355 355 356 355 355 355 356 356 358 359 358 356 355 358 358 356 356 356 358 360 359 359 360 361 360 359 357 356 357 356 355 353 354 349 348 347
356 355 354 354 354 354 354 355 355 356 356 356 356 356 357 358 358 357 354 355 358 358 358 357 358 359 359 359 359 360 360 359 358 356 356 357 356 354 353 351 349 348
356 355 355 355 354 354 354 354 354 354 356 356 357 357 356 357 358 358 357 354 356 359 359 359 358 359 360 359 359 359 359 359 357 356 356 357 357 356 354 353 351 350
356 356 356 356 355 354 353 353 353 353 354 356 357 356 355 356 357 358 358 357 355 356 359 360 360 359 359 359 358 358 359 358 357 356 355 355 356 357 356 354 353 352
356 356 356 356 356 354 353 353 353 352 353 355 356 355 356 355 357 358 357 357 357 357 357 359 361 360 359 359 358 357 358 358 358 357 356 355 354 356 356 355 354 353
356 356 356 356 356 355 354 353 353 353 352 353 356 356 355 355 355 356 357 357 357 358 358 358 359 361 352 339 344 357 357 358 359 358 357 355 354 353 355 356 355 354
356 356 356 355 355 356 355 353 352 353 352 352 354 356 356 355 355 354 356 357 357 358 358 358 359 359 340 333 335 340 354 357 357 358 358 357 355 354 353 355 355 355
357 356 356 355 354 355 355 354 352 352 352 352 352 355 357 356 355 354 354 357 358 358 359 359 359 344 334 332 333 333 340 358 358 358 358 357 357 355 355 355 355 355
358 357 356 355 354 354 355 355 353 351 351 351 351 354 357 356 356 355 353 355 357 357 357 359 359 342 333 330 331 331 332 344 358 358 358 358 357 356 356 355 356 356
359 357 357 356 356 355 355 355 353 351 351 352 353 353 354 356 357 356 355 353 355 357 357 359 360 343 331 328 328 328 330 337 357 357 357 357 358 357 357 356 356 356
359 358 357 357 357 356 355 355 354 353 352 352 352 352 352 355 356 356 356 355 354 355 358 358 360 339 328 326 325 325 328 331 355 357 356 356 357 358 357 356 356 357
360 359 358 358 358 357 356 355 355 354 353 353 353 353 353 354 355 357 357 356 356 354 354 357 360 335 328 325 323 324 326 341 352 355 354 354 354 355 357 357 356 356
361 360 359 359 359 358 357 356 356 356 356 355 353 352 352 353 353 355 357 357 357 356 354 353 357 340 325 323 322 322 325 346 351 353 354 354 354 354 355 356 356 356
362 361 360 360 360 359 359 359 358 359 358 358 354 353 352 353 353 354 355 357 357 357 356 355 354 342 322 321 319 319 328 348 351 352 353 354 354 354 355 355 355 347
364 363 362 361 360 361 361 360 360 360 360 361 358 356 354 354 354 354 354 355 357 357 347 353 356 346 318 318 317 318 329 349 352 352 352 353 354 353 354 355 355 351
365 364 363 362 361 362 363 362 362 362 362 362 361 359 357 355 355 355 355 355 356 357 358 357 357 358 339 314 315 315 320 348 353 352 352 353 354 353 353 353 354 355

ECMWFNIL_sfc_thetae_057.txt.gz
Theta_e
349 349 347 347 347 347 345 345 345 345 344 345 347 349 350 352 353 354 355 355 355 355 356 357 357 357 358 357 357 357 357 356 355 353 350 349 344 341 340 338 336 334
349 349 350 348 347 348 347 346 346 346 345 345 347 348 350 351 352 353 354 354 355 355 356 357 358 357 357 357 356 355 355 355 354 354 351 348 345 342 341 338 338 337
349 348 348 347 346 347 348 347 346 347 347 346 347 348 349 352 351 352 353 354 354 355 355 356 357 358 358 357 356 355 355 354 353 353 351 349 346 343 342 339 337 338
348 348 348 348 347 347 348 348 346 347 348 348 347 349 351 352 352 352 352 357 353 354 355 356 357 358 358 357 356 355 355 354 355 353 351 350 348 345 344 341 339 337
348 348 348 348 348 347 348 348 348 347 347 349 349 349 351 351 351 351 351 353 353 353 354 355 356 356 357 357 356 355 354 354 353 353 351 350 349 346 345 343 340 337
349 349 349 348 348 347 346 347 349 348 348 348 349 351 351 351 351 351 351 351 353 353 353 354 355 356 356 356 355 355 354 353 353 352 351 350 350 348 347 344 342 340
348 348 348 348 348 348 347 347 348 350 350 349 350 350 351 351 351 351 351 351 352 353 353 353 354 355 356 356 355 354 354 354 353 352 351 351 351 348 347 344 343 342
348 348 348 348 348 348 348 348 348 349 350 351 349 350 352 352 352 352 352 352 351 351 352 353 354 354 355 355 354 354 353 354 353 352 351 351 350 349 347 346 344 342
348 348 348 348 347 347 348 348 349 349 350 351 351 350 352 352 353 353 352 352 351 351 352 352 353 354 355 355 355 354 353 353 353 352 351 350 349 349 349 347 344 343
347 348 348 348 347 348 347 348 349 349 351 351 352 352 351 352 353 353 353 352 352 351 351 352 353 353 354 355 355 354 353 353 353 353 352 352 351 350 349 348 346 344
347 348 347 347 347 348 348 348 349 349 350 351 352 352 352 352 353 353 353 353 352 352 351 351 352 353 353 354 355 355 354 354 353 353 352 352 352 351 352 349 347 346
347 347 347 347 348 348 348 349 349 349 349 350 351 351 352 353 352 353 353 352 353 353 353 352 352 353 353 354 354 355 354 354 354 353 353 353 352 352 351 350 348 347
348 348 348 348 348 349 349 349 349 349 349 349 351 351 352 352 352 352 353 353 353 353 353 353 353 353 353 353 354 354 354 354 353 353 353 353 353 353 352 351 350 349
349 349 349 349 349 349 349 349 349 349 349 349 350 349 350 351 352 352 353 353 353 353 353 353 353 353 353 353 353 354 354 354 354 353 353 353 353 353 353 352 352 351
350 351 351 350 350 349 349 349 349 349 349 349 349 349 350 350 352 353 353 352 353 353 353 353 352 352 353 353 353 353 354 353 354 353 353 352 352 353 353 353 353 352
351 351 351 351 350 350 349 349 349 349 349 349 349 349 349 349 349 351 352 352 352 352 353 353 353 353 346 336 340 353 353 354 354 354 354 353 352 352 352 353 354 354
351 351 352 351 351 351 350 350 349 349 349 349 349 349 349 349 349 348 349 351 352 352 351 352 353 353 337 331 332 335 350 353 353 353 354 354 353 352 351 352 353 354
352 352 351 351 351 351 351 350 350 349 349 349 349 348 349 349 348 348 348 349 350 351 352 352 352 339 333 330 330 330 335 353 354 353 353 353 354 354 353 353 352 352
353 352 352 352 351 351 351 351 350 349 349 348 348 349 349 348 348 348 348 348 348 348 350 351 352 337 331 328 328 328 328 338 353 354 353 353 353 354 354 353 353 352
353 353 352 352 353 352 352 351 350 349 349 349 349 349 348 348 348 348 348 348 348 348 348 350 351 338 329 326 325 325 326 331 350 353 353 353 353 353 354 353 353 352
353 353 353 353 353 353 352 351 350 350 349 349 349 348 348 347 348 347 348 348 348 349 348 348 350 335 327 323 322 322 324 326 346 351 353 353 353 353 353 353 353 353
354 353 353 353 353 353 352 351 351 350 350 350 349 349 349 349 348 349 348 348 349 349 348 348 350 332 326 323 321 321 323 335 343 348 350 351 352 353 353 354 354 354
355 355 354 354 353 353 352 352 351 351 351 351 349 349 348 347 347 347 348 348 349 349 348 348 349 336 323 320 319 319 321 338 343 346 348 350 351 352 353 353 353 354
357 356 355 355 354 353 352 353 353 353 352 352 350 349 348 348 348 348 348 348 348 348 349 348 348 339 322 318 317 317 325 340 343 345 347 348 350 352 353 353 354 347
358 357 356 355 355 354 354 353 353 353 353 353 352 351 350 350 349 348 348 348 348 348 342 346 349 341 321 319 316 315 325 342 345 345 346 347 348 350 351 352 353 350
358 358 357 356 355 355 355 354 354 354 353 352 352 352 350 350 349 349 347 347 348 349 349 348 348 349 339 317 315 314 318 341 346 346 346 347 348 349 349 350 352 352

ECMWFNIL_sfc_thetae_060.txt.gz
Theta_e
349 349 348 348 348 348 348 347 347 347 347 348 349 351 352 354 356 356 357 357 357 357 357 358 359 358 359 360 360 361 360 359 360 359 358 356 354 351 348 346 344 342
349 350 350 349 348 349 349 348 348 347 347 347 349 351 353 354 355 356 356 356 357 357 358 358 358 359 359 359 359 359 359 359 359 359 357 355 355 351 349 348 345 345
349 349 349 348 347 348 348 348 348 348 347 347 348 350 351 354 354 355 356 356 356 356 357 358 358 359 359 359 359 359 358 358 358 359 358 356 355 352 351 347 345 344
350 350 349 349 349 348 349 348 347 348 348 347 347 348 350 353 354 354 355 358 356 356 357 357 358 359 359 359 359 358 358 358 359 359 357 357 356 354 352 350 347 345
349 349 350 350 350 350 349 348 347 347 347 348 348 349 351 352 352 353 353 355 356 355 356 356 357 358 359 359 359 358 358 357 358 358 357 356 356 354 353 351 348 345
350 350 350 350 350 349 348 348 348 348 347 348 348 350 350 351 352 352 353 353 354 355 355 355 356 357 358 359 359 358 358 357 357 357 356 356 356 355 353 351 350 348
349 350 349 350 350 349 348 349 349 350 348 348 350 349 350 350 351 352 352 353 353 354 354 354 355 356 357 358 358 358 358 358 358 356 356 356 356 355 353 352 351 349
349 349 350 350 349 349 348 348 348 350 350 350 348 350 351 351 351 352 352 352 353 353 354 354 355 355 356 357 357 357 357 357 357 356 355 355 355 354 355 353 352 351
349 349 349 349 348 348 348 348 348 349 351 350 349 349 352 351 351 352 352 353 352 353 353 354 354 355 356 356 356 356 356 356 356 356 355 354 354 354 354 354 352 351
349 349 349 349 348 348 348 348 348 348 350 350 350 350 350 352 353 352 353 352 352 352 352 353 354 354 355 356 356 356 356 356 356 356 356 355 355 354 354 354 352 351
348 348 348 348 348 348 348 348 349 349 349 350 351 351 351 351 353 353 353 352 351 352 352 352 353 354 354 355 356 357 356 356 356 356 356 356 356 355 355 354 353 352
348 348 348 348 348 348 348 349 349 349 349 350 350 351 351 352 352 353 353 352 353 353 353 353 353 354 354 354 355 356 356 356 356 356 356 356 356 356 356 355 354 354
347 348 348 348 349 349 349 349 349 349 349 349 351 350 351 351 352 352 353 353 353 354 353 354 353 353 354 354 355 355 356 356 356 356 356 356 356 356 356 356 355 354
348 348 348 349 349 349 349 349 349 349 350 350 351 350 350 351 351 351 352 353 353 354 354 355 354 354 354 354 355 355 355 355 356 355 355 356 356 356 356 356 356 355
348 349 349 349 349 349 349 349 349 349 350 350 350 350 351 351 352 352 352 352 353 354 354 354 354 354 354 354 354 354 355 355 355 355 355 355 355 355 356 356 356 356
349 349 349 349 349 349 349 349 349 349 349 349 349 350 351 351 352 352 352 352 352 353 353 353 354 354 346 335 339 353 354 355 355 355 355 355 355 355 355 355 356 356
349 349 349 348 349 349 349 349 349 349 350 349 349 350 350 351 351 350 351 352 352 352 352 353 353 352 336 331 331 334 350 355 354 354 355 356 355 355 354 355 356 356
349 349 349 349 349 349 349 350 350 350 349 349 349 349 350 350 349 349 350 350 351 352 352 352 353 339 332 330 330 329 334 353 355 355 354 355 355 355 355 355 355 355
350 349 350 350 350 350 350 350 350 349 349 349 349 350 350 349 349 349 349 350 350 350 350 352 353 337 331 328 328 328 327 338 354 354 354 354 355 355 355 355 355 355
350 350 350 350 351 351 351 350 350 349 349 350 350 350 350 349 349 349 349 349 349 349 349 350 351 338 329 326 326 325 326 331 350 353 354 354 355 355 355 356 356 355
351 351 350 351 351 351 351 351 350 350 350 350 350 350 349 349 349 349 349 349 349 349 349 349 349 334 327 323 322 322 324 327 347 352 354 354 355 356 356 356 356 356
352 351 351 352 352 352 351 351 351 351 350 351 351 351 351 351 351 350 349 349 350 350 349 348 350 331 325 323 321 320 322 336 345 349 351 353 354 355 356 357 357 357
353 352 352 352 352 352 351 351 351 351 352 352 351 351 350 350 350 350 351 350 350 350 349 349 350 336 323 320 319 318 321 340 345 347 349 351 352 354 355 356 356 357
354 353 353 353 353 352 352 352 353 353 352 353 351 350 350 350 351 351 351 351 350 350 350 349 350 340 322 318 317 317 325 343 345 346 347 349 350 352 354 355 356 349
355 354 354 353 353 353 353 353 353 353 354 354 353 353 352 352 352 351 351 351 351 350 342 347 350 342 322 318 316 315 325 344 346 346 347 348 349 350 352 353 355 351
355 355 355 354 354 354 355 354 355 355 355 354 354 353 353 353 352 352 350 350 351 351 350 349 350 351 342 317 315 314 317 343 347 346 346 347 349 349 350 352 353 354

ECMWFNIL_sfc_thetae_063.txt.gz
Theta_e
357 358 356 356 356 357 357 357 357 357 359 358 358 360 361 365 366 367 367 368 368 368 368 369 369 368 367 368 369 368 367 367 365 366 367 365 365 364 362 363 363 362
357 358 357 357 358 359 360 359 359 358 360 361 360 361 365 366 366 366 366 367 368 367 369 368 368 368 368 366 368 366 366 366 365 366 367 367 365 365 363 364 362 363
357 357 356 356 355 356 355 358 360 359 359 359 361 363 363 364 364 366 366 367 366 365 367 368 368 368 367 368 369 367 365 366 365 365 367 367 366 364 366 362 362 362
358 357 356 355 355 356 356 358 359 359 359 359 358 359 361 361 363 364 365 366 366 366 367 367 367 367 368 368 369 366 367 368 367 368 367 368 368 366 366 366 364 362
357 357 357 356 356 358 358 358 356 357 357 358 358 360 361 362 363 362 363 364 366 365 367 367 367 367 368 368 369 366 366 365 367 368 365 365 367 366 366 367 366 363
358 359 358 357 357 358 356 356 356 356 356 356 358 358 358 360 361 360 362 362 362 362 362 364 365 365 366 367 368 366 365 364 365 366 364 363 364 366 365 365 366 364
357 358 357 358 357 358 357 357 357 358 356 357 359 358 358 358 359 360 361 361 361 362 361 363 365 365 366 367 367 366 365 365 365 364 363 363 364 365 366 366 366 364
357 357 358 357 357 357 357 356 357 357 358 358 357 358 359 357 359 359 361 360 360 361 363 363 365 367 364 365 365 365 365 364 363 363 362 362 363 363 366 365 366 365
357 357 357 357 356 356 355 355 356 357 358 357 356 356 359 358 358 358 360 361 360 361 363 363 365 365 365 364 364 365 365 364 364 364 364 362 362 364 365 366 364 365
357 357 356 356 355 355 355 355 355 356 358 357 356 356 356 358 359 358 360 362 360 361 362 362 363 363 363 364 364 365 365 365 366 366 365 364 365 364 365 365 364 364
355 356 355 355 355 355 355 355 355 356 357 356 356 355 356 358 359 360 360 361 358 359 361 361 362 363 363 362 363 364 365 364 365 366 366 365 365 365 364 365 365 363
355 355 354 355 355 355 355 355 355 356 356 356 356 356 356 356 358 358 359 360 360 360 361 362 363 363 363 363 361 363 364 364 364 365 364 365 365 365 365 365 364 364
354 355 355 355 356 355 356 356 355 355 355 355 356 356 356 356 356 358 359 360 361 361 361 362 363 363 363 364 363 363 364 364 362 363 364 364 365 364 364 364 364 364
355 356 356 357 357 358 357 356 356 356 356 357 357 356 356 356 356 356 358 359 360 361 361 362 363 362 363 364 364 363 363 363 363 362 362 363 364 364 363 363 363 364
357 357 357 358 358 358 357 357 356 357 357 357 358 357 356 357 357 357 358 359 359 360 361 361 360 361 361 362 362 362 363 361 362 362 362 362 363 362 363 363 363 363
359 358 358 359 358 358 358 358 357 357 356 357 357 357 358 358 358 358 357 357 358 360 360 360 360 360 352 338 344 361 363 361 361 363 363 362 362 362 362 362 363 363
359 358 359 358 358 359 359 359 358 358 358 358 358 358 358 359 358 357 357 357 357 358 358 358 359 358 338 332 333 336 356 362 361 362 363 363 361 362 362 361 362 363
357 358 358 358 358 358 359 359 359 358 358 358 358 357 359 359 358 357 358 357 357 357 357 357 358 342 332 331 331 330 337 359 361 361 361 361 362 361 361 362 361 361
358 358 358 357 358 358 359 359 359 358 358 357 356 357 358 358 358 357 357 358 357 357 356 357 358 339 331 329 329 328 328 342 358 360 359 359 360 361 361 362 363 362
358 357 357 358 358 358 358 358 358 357 357 356 356 357 357 357 356 357 357 358 358 357 358 358 358 340 328 327 326 326 327 332 357 358 359 360 361 361 361 362 363 363
357 357 357 358 358 358 358 358 357 357 357 356 355 355 356 356 356 356 357 358 357 357 357 356 356 335 325 323 323 322 324 328 356 358 358 360 361 362 363 362 363 364
357 357 357 358 358 358 357 357 357 357 357 357 357 356 357 357 357 357 356 357 357 357 355 356 356 332 325 322 321 321 323 342 354 358 358 358 360 362 362 364 364 363
356 356 357 358 358 357 357 356 356 357 358 359 356 356 355 355 356 356 358 357 357 357 356 356 357 339 322 319 318 318 324 350 354 356 358 358 359 361 362 363 364 365
357 357 357 358 358 357 357 356 357 358 357 358 356 354 353 355 356 357 357 358 357 356 356 356 357 344 320 317 316 316 329 352 355 356 357 358 359 361 362 363 364 357
358 358 359 358 358 358 358 357 357 358 358 359 357 357 356 358 358 357 357 358 357 357 347 352 357 347 320 318 316 314 330 354 356 356 356 357 357 358 361 361 363 359
359 361 360 359 359 360 359 359 360 359 359 359 359 358 357 357 357 358 357 357 358 358 357 356 356 358 349 317 315 313 318 351 357 355 354 355 357 356 357 361 361 363

ECMWFNIL_sfc_thetae_066.txt.gz
Theta_e
362 362 361 362 361 361 360 360 358 358 359 356 356 359 359 364 366 365 366 367 368 367 367 370 371 370 367 368 369 367 366 366 365 363 364 363 363 363 363 364 366 364
361 362 362 363 363 363 362 362 362 360 361 361 358 358 364 365 366 367 365 366 367 367 368 367 370 370 369 365 367 365 365 366 366 363 364 365 364 363 362 364 363 365
360 360 360 360 360 362 359 362 364 362 361 361 361 362 363 366 366 370 368 367 366 362 365 368 368 369 368 367 368 366 363 366 366 363 365 366 363 362 364 361 362 362
361 361 359 359 361 362 362 361 363 364 362 361 362 361 361 362 366 367 369 369 367 366 365 365 366 365 367 367 368 365 364 366 366 367 366 366 366 364 363 364 362 361
361 360 360 361 362 364 364 362 361 362 362 360 362 363 364 365 366 365 367 369 370 367 367 366 368 366 367 367 368 365 363 363 366 368 366 365 367 366 364 363 364 362
363 363 363 362 363 364 362 362 362 361 362 359 361 362 363 365 365 364 365 365 366 364 361 363 366 365 364 366 367 366 363 360 361 366 366 365 364 364 363 363 365 364
363 363 363 362 363 364 363 363 363 363 362 362 363 362 363 364 365 365 364 365 364 365 362 363 365 364 364 365 367 367 366 366 365 365 365 364 365 365 364 365 367 365
363 363 364 364 364 363 363 362 363 363 364 364 361 363 364 363 365 365 364 364 364 365 366 364 366 368 365 364 365 367 367 363 364 366 367 365 365 365 366 366 367 368
364 364 365 364 362 362 360 361 362 364 364 362 361 361 364 364 363 363 365 366 365 365 367 366 367 368 368 365 365 367 367 364 362 365 366 364 363 365 365 366 365 367
364 364 363 362 361 360 360 361 361 362 363 362 361 360 361 364 364 364 365 367 365 366 367 368 368 366 367 367 366 366 367 367 365 365 366 366 364 364 364 365 364 366
362 362 362 362 361 360 360 360 360 360 362 362 362 360 360 363 364 365 366 366 365 365 366 367 367 368 367 364 364 366 366 365 366 367 367 367 366 366 365 366 366 365
362 362 361 361 361 360 360 360 360 360 361 362 362 361 361 360 363 364 363 366 367 367 367 368 369 368 369 367 362 363 366 365 365 366 366 368 368 366 367 367 366 366
362 362 362 361 362 361 360 360 360 360 360 361 362 362 360 359 360 364 365 365 367 368 366 367 368 368 368 369 366 364 365 366 363 364 365 367 368 366 365 366 366 366
362 363 362 363 363 365 363 361 360 360 361 362 363 363 360 359 359 361 364 364 366 367 367 368 368 368 369 370 370 366 364 365 365 364 362 364 366 366 364 362 363 364
364 364 364 365 365 365 363 362 362 362 362 363 364 363 361 361 360 360 363 365 365 367 367 366 365 366 367 368 369 368 366 363 365 365 363 362 364 363 364 364 363 361
365 366 366 365 365 365 365 364 363 363 362 363 363 364 364 364 363 362 362 363 364 366 367 366 365 365 359 343 351 368 368 363 363 366 366 364 364 364 361 363 363 362
365 365 366 365 365 365 366 366 364 364 364 365 365 365 365 366 364 363 362 362 363 364 365 364 364 362 342 334 336 342 364 368 365 366 368 367 365 366 365 362 362 363
364 366 366 365 366 366 367 367 366 366 365 366 365 365 366 366 364 364 364 362 362 364 363 364 364 347 333 332 334 334 344 365 366 365 365 366 366 365 365 365 363 360
366 366 365 366 366 367 368 367 366 365 365 365 364 366 366 366 366 364 364 364 362 363 362 363 364 342 330 329 331 331 333 347 362 364 363 363 365 366 365 365 365 364
366 366 366 366 367 368 368 367 366 365 365 364 364 366 366 365 364 365 365 366 364 364 364 363 364 342 328 326 327 328 330 338 360 360 361 362 364 365 366 366 367 368
366 366 366 367 367 367 367 367 366 366 365 364 363 363 364 365 364 364 365 366 365 364 363 361 361 334 325 324 324 324 326 333 360 360 360 362 363 365 367 366 368 368
365 365 366 367 367 366 366 365 366 366 366 364 363 363 364 365 365 364 364 364 364 364 362 362 362 333 323 322 321 322 324 348 359 361 360 361 363 365 365 368 368 368
364 363 365 365 365 365 365 364 365 365 366 367 363 362 361 361 363 363 365 363 364 364 363 363 363 341 321 319 319 319 327 356 359 359 361 361 362 364 365 366 368 369
364 364 364 365 365 364 364 364 364 365 365 366 363 361 358 360 362 363 364 364 363 363 363 363 363 345 319 317 317 316 333 357 360 359 361 362 362 364 365 366 368 364
364 364 365 364 365 365 364 364 364 365 365 365 363 362 360 361 362 362 362 364 362 362 353 359 363 348 318 318 316 315 335 360 360 360 360 361 361 362 365 365 366 364
364 365 365 364 365 366 365 364 365 363 364 363 363 362 361 360 360 361 361 361 362 362 361 361 361 365 343 316 315 314 321 358 362 360 359 361 362 362 363 366 366 367

ECMWFNIL_sfc_thetae_069.txt.gz
Theta_e
363 364 363 361 358 357 357 359 358 357 356 351 351 356 355 358 362 359 360 363 366 367 366 367 369 369 367 367 369 367 366 366 365 362 364 363 361 362 361 363 365 364
362 365 365 363 362 362 359 359 361 359 359 358 353 355 360 360 361 360 360 361 364 365 367 365 368 370 368 364 366 365 365 365 365 361 362 363 363 361 359 362 362 366
362 363 363 363 361 361 358 359 361 361 358 358 356 356 357 360 362 364 363 362 361 360 365 366 367 369 368 367 366 365 363 366 365 360 362 363 362 360 361 358 360 362
363 364 361 362 362 362 361 359 360 361 359 358 358 354 354 354 360 363 365 365 362 362 361 365 365 364 368 368 367 365 363 364 365 366 363 364 364 362 361 361 360 360
362 362 363 363 362 365 365 360 358 359 359 357 359 359 358 360 360 361 364 364 365 362 363 363 365 364 366 366 367 365 363 361 364 367 366 364 366 365 362 360 360 359
365 365 365 363 363 364 363 361 360 358 360 356 358 359 358 358 359 361 364 364 363 360 358 360 362 363 363 366 366 366 363 358 358 365 365 366 364 361 358 360 361 361
363 363 362 363 362 363 364 364 364 362 360 358 360 360 360 360 360 362 364 364 362 362 357 360 364 363 363 364 367 366 365 364 362 362 364 365 366 364 360 360 362 361
362 363 363 364 361 362 364 365 365 362 362 363 359 361 361 360 362 361 361 363 362 362 362 358 364 365 361 362 364 365 365 362 361 363 363 365 364 364 365 363 362 363
363 364 363 363 362 361 362 362 364 364 363 362 359 358 362 361 362 363 363 363 363 363 365 362 365 364 363 362 363 365 365 362 360 362 362 363 363 364 364 365 364 364
364 363 362 362 360 361 361 361 362 363 363 362 361 358 359 362 362 364 365 365 362 363 364 366 364 364 364 363 362 364 365 365 364 362 363 363 362 363 363 363 361 362
361 361 362 361 360 359 359 360 359 360 363 362 362 358 357 362 363 365 366 366 362 363 364 366 365 365 365 363 362 363 364 364 365 365 363 364 366 365 364 363 362 360
361 361 361 361 360 359 359 359 358 358 360 362 362 359 358 359 362 363 364 366 366 365 366 367 368 368 367 365 361 361 362 364 364 365 363 364 366 366 366 365 363 363
361 360 360 360 361 359 358 358 357 356 357 360 361 360 358 356 360 363 363 365 367 367 366 367 369 368 370 368 365 364 363 363 361 362 363 364 365 365 364 364 363 363
362 362 361 363 363 363 360 358 358 356 357 359 362 361 358 356 357 361 363 364 367 367 368 369 370 369 369 371 369 363 361 363 363 361 360 363 363 364 364 359 359 360
365 363 362 365 363 364 360 359 358 358 358 359 362 362 359 357 357 359 363 364 366 368 368 367 367 368 368 369 369 366 362 359 362 361 359 360 362 361 362 362 358 355
369 368 367 365 364 364 365 362 359 360 357 357 361 362 363 362 361 359 361 363 364 366 367 365 365 367 362 348 355 368 365 358 359 363 362 359 360 360 359 359 359 357
368 368 370 368 367 366 367 366 365 362 363 366 365 365 367 369 363 358 357 361 363 364 365 364 362 362 345 337 340 348 365 364 360 362 364 363 358 361 360 357 356 358
368 369 370 369 369 369 369 369 367 367 367 368 364 364 368 365 362 361 362 359 361 363 363 363 362 349 334 335 337 338 350 367 362 359 360 362 362 358 359 359 356 353
370 369 369 369 370 370 371 370 369 368 365 363 362 365 366 367 367 363 362 360 359 362 362 363 363 342 331 333 335 335 336 353 361 360 356 358 361 362 358 359 360 358
370 370 369 369 370 371 371 370 368 367 365 364 364 366 367 367 365 365 364 366 363 362 366 364 365 340 329 329 331 331 334 342 364 359 359 357 359 361 361 360 363 363
370 370 370 371 371 371 371 370 367 368 367 365 364 365 366 367 365 364 365 366 363 361 362 362 361 333 327 325 326 327 330 337 363 359 359 361 361 362 365 364 365 365
369 370 370 371 371 370 370 369 369 369 368 366 365 365 367 367 368 366 366 366 365 363 360 360 361 326 326 324 324 325 327 352 362 362 360 360 362 363 365 369 368 368
369 368 370 370 370 369 370 369 369 369 369 368 365 364 364 365 366 364 367 366 365 366 363 361 361 335 322 321 321 322 329 359 362 361 362 361 362 363 364 366 367 369
370 369 370 370 370 369 369 368 369 370 369 369 365 362 361 364 366 365 365 365 365 365 364 363 362 345 317 319 319 319 336 361 362 362 362 363 363 365 365 366 368 367
369 369 370 369 370 370 368 369 369 369 369 369 366 365 362 363 365 365 364 365 364 364 358 361 362 346 316 319 317 316 337 364 363 363 362 362 362 363 365 365 367 366
369 370 371 370 371 370 370 369 369 369 369 368 367 364 361 360 360 363 363 363 364 363 363 364 363 363 336 316 316 315 323 362 365 362 361 362 364 363 364 367 366 368

ECMWFNIL_sfc_thetae_072.txt.gz
Theta_e
361 361 358 356 355 353 356 356 355 355 355 353 356 356 357 361 363 366 362 365 368 367 368 373 372 372 370 373 374 373 372 366 371 372 368 369 368 361 360 359 365 364
363 362 361 359 358 357 359 360 358 357 358 358 356 360 361 362 359 364 363 364 367 366 370 368 371 372 371 369 372 370 372 371 369 363 369 367 368 363 359 362 361 370
362 363 362 358 355 356 352 359 361 360 359 356 357 362 360 360 360 362 367 364 363 362 368 369 369 371 370 371 372 368 367 370 368 364 368 367 369 365 365 357 359 359
363 363 360 358 357 356 354 356 360 361 358 357 354 353 357 354 358 361 364 367 365 365 366 366 365 366 369 369 370 368 367 370 368 370 369 370 369 365 365 365 361 363
361 362 362 361 361 360 357 355 354 358 356 357 356 354 356 363 360 361 361 364 366 364 367 366 366 366 369 369 369 367 366 366 366 370 369 369 370 368 364 365 366 362
361 362 363 363 363 363 359 356 355 355 356 354 357 356 354 358 363 359 361 360 360 359 358 361 363 363 366 368 368 367 365 361 362 367 366 366 364 364 361 364 365 363
359 361 361 362 361 363 361 359 357 357 356 356 358 357 356 354 359 360 362 363 360 359 357 358 362 363 363 366 366 367 367 366 365 367 364 365 367 366 362 363 365 365
359 359 360 362 360 360 360 360 358 358 360 359 356 359 359 354 356 358 362 363 362 361 360 360 363 366 363 364 365 366 365 363 362 367 366 365 366 366 366 364 367 367
360 360 361 360 359 359 358 358 359 358 360 359 354 353 359 357 357 355 360 364 363 364 363 361 364 364 363 362 364 365 364 362 360 361 364 363 363 365 364 365 364 364
360 360 359 358 358 358 357 359 358 357 359 358 355 353 355 359 360 357 361 365 364 365 365 361 364 363 362 362 364 365 364 364 364 363 361 361 362 363 363 364 363 363
358 359 358 358 358 357 357 357 358 357 358 356 356 353 355 357 361 361 361 363 362 363 365 363 362 363 362 360 362 364 365 364 364 365 364 362 362 363 367 365 364 362
359 359 358 358 357 357 355 356 356 358 359 358 358 355 356 356 359 360 361 362 361 361 363 365 365 364 364 362 360 361 363 363 365 365 363 364 364 364 364 365 364 363
358 359 359 358 359 357 356 357 357 358 358 357 358 356 354 354 356 359 362 364 363 362 361 364 366 365 365 365 363 362 362 362 362 364 363 363 363 362 363 364 364 363
360 358 358 361 360 359 359 358 357 357 358 360 359 357 354 353 355 357 361 363 364 363 363 364 366 365 366 367 365 363 362 362 362 361 361 362 361 362 362 362 364 363
361 361 362 362 361 361 360 358 358 358 359 361 362 359 356 354 354 357 358 360 363 364 364 364 364 365 365 366 365 364 362 360 361 361 360 360 361 360 361 362 362 361
364 362 362 363 362 362 361 360 359 359 357 359 361 360 360 359 355 359 360 360 361 364 364 363 363 364 359 348 354 363 362 357 360 361 360 359 361 360 360 361 360 359
364 362 363 364 363 363 362 362 360 359 358 359 362 361 360 362 358 357 358 360 360 361 362 361 361 360 346 338 341 348 360 359 358 361 363 362 360 361 360 358 358 360
363 364 364 364 364 363 363 363 362 361 360 360 361 361 362 362 359 358 358 360 360 361 361 362 363 351 336 335 337 339 350 361 358 358 360 361 360 358 359 359 357 356
365 365 364 364 364 364 364 363 362 362 361 359 359 362 364 363 361 359 358 359 360 361 361 362 362 344 332 333 335 335 337 354 359 357 354 357 359 360 358 358 358 357
366 366 365 365 365 366 365 363 361 361 360 360 359 362 364 362 362 360 360 360 360 363 362 362 363 343 329 330 331 332 334 343 362 359 356 355 358 361 360 358 360 359
367 367 366 366 366 366 366 364 362 362 362 359 357 358 362 363 360 359 360 360 359 361 363 360 361 336 325 326 327 328 332 338 362 360 358 358 359 361 363 361 361 361
368 367 368 367 367 366 365 364 363 362 362 360 358 356 360 363 364 361 361 360 360 358 357 359 358 328 324 324 325 326 330 348 360 361 360 359 361 363 363 365 364 363
368 367 368 368 367 366 365 364 363 363 363 363 359 357 356 359 361 360 362 361 359 359 357 358 359 332 321 321 322 324 329 355 360 360 360 359 359 364 369 370 368 366
368 368 368 368 367 366 366 365 365 364 362 363 359 356 355 358 361 363 363 362 360 359 359 359 359 342 317 319 320 320 335 358 359 360 360 359 360 361 363 365 368 372
370 369 369 368 368 368 367 367 365 364 363 364 359 359 360 362 364 363 362 361 360 360 356 359 358 345 314 319 317 317 334 358 361 361 359 360 360 360 362 361 362 365
370 371 371 369 370 370 370 370 369 365 363 361 360 359 358 359 362 363 362 361 361 360 362 362 360 361 332 316 315 316 323 358 363 361 358 360 361 361 361 362 362 362

ECMWFNIL_sfc_thetae_075.txt.gz
Theta_e
348 347 344 345 345 346 343 343 343 346 344 343 346 351 353 354 356 355 359 360 359 358 361 361 361 363 362 360 362 361 364 361 358 360 360 359 359 359 359 358 359 357
348 349 348 345 346 349 346 345 344 345 347 345 345 347 351 354 355 355 356 358 360 358 359 363 361 362 361 362 361 359 358 360 358 365 358 357 358 358 357 357 358 357
349 349 349 346 344 346 349 346 346 344 347 348 348 348 349 353 352 356 354 358 358 358 359 361 363 361 362 361 362 361 360 358 357 359 358 357 357 355 356 356 355 358
350 349 349 348 346 345 349 348 348 346 346 348 349 351 351 351 351 350 356 363 357 357 359 360 362 362 362 362 362 359 361 360 360 359 358 359 359 357 356 355 355 354
351 350 350 349 348 347 347 350 349 348 347 348 349 352 352 350 351 349 353 358 357 357 359 359 360 361 362 362 362 359 359 360 360 359 358 357 358 358 358 358 355 354
353 352 352 350 349 348 346 348 350 350 349 349 348 350 352 350 350 350 349 356 357 357 359 359 359 360 362 361 361 359 358 359 359 359 358 357 358 359 359 357 354 354
354 354 353 352 350 349 347 346 350 352 351 350 350 347 348 350 350 351 350 353 357 356 358 358 358 357 360 361 360 359 358 358 356 357 357 357 357 356 358 356 356 354
354 355 355 354 352 351 350 347 347 350 352 351 350 349 347 346 352 352 352 352 354 355 356 358 358 357 358 360 360 359 358 360 358 356 356 356 357 356 357 359 356 353
355 355 355 355 354 352 352 350 348 349 352 351 350 350 349 346 349 353 354 352 352 353 353 354 357 357 357 358 359 359 358 358 359 357 357 356 356 357 357 358 357 356
354 354 355 355 354 354 354 353 351 350 351 351 350 351 351 349 346 351 354 354 353 353 353 352 354 356 356 357 358 359 358 357 357 356 356 357 357 357 358 358 357 355
353 354 353 354 355 355 355 356 354 352 351 351 351 350 351 350 348 348 353 355 354 354 353 352 354 356 356 356 357 359 359 358 357 356 354 355 357 357 364 358 357 356
353 353 353 353 354 355 355 356 356 354 352 352 352 350 350 351 350 348 349 354 355 356 356 354 354 356 356 356 356 358 358 358 358 357 356 354 355 355 359 359 358 357
353 353 353 353 354 354 355 355 355 355 353 352 353 352 349 350 351 350 349 352 355 356 357 357 354 355 356 355 355 356 358 358 358 357 357 357 355 355 356 359 359 359
354 354 353 353 354 354 355 355 355 355 354 353 353 352 349 349 350 352 351 351 354 356 357 359 356 355 355 355 355 355 356 357 357 357 357 357 357 357 356 357 358 359
355 355 355 354 354 354 354 354 354 354 354 353 352 352 351 350 351 353 353 352 353 355 356 358 358 357 356 356 355 354 355 356 356 357 357 356 356 356 356 357 358 359
355 355 354 355 354 353 353 353 353 353 353 354 353 352 351 350 351 352 354 354 354 354 355 356 357 359 354 345 349 355 355 355 356 356 356 356 356 355 355 355 356 358
355 354 354 354 354 354 354 353 352 352 353 354 354 353 352 351 350 351 352 354 355 355 354 354 355 356 344 336 339 344 355 355 354 354 355 355 355 354 354 354 355 356
355 355 354 354 354 354 354 353 352 352 352 353 354 352 352 352 350 350 352 353 355 356 355 355 355 348 336 334 336 337 346 357 355 354 355 354 353 354 354 354 354 355
356 355 355 354 354 355 354 353 352 352 351 352 353 354 353 352 351 350 351 353 354 355 356 357 356 343 333 332 333 334 336 350 355 353 354 354 353 353 353 353 353 353
356 356 355 355 355 355 355 353 352 352 352 352 354 355 353 353 352 350 351 353 354 354 356 358 357 345 330 329 330 331 333 341 356 353 352 353 354 354 354 352 352 352
357 356 355 355 356 356 355 354 353 352 352 352 353 354 354 353 352 351 350 353 355 355 355 357 359 339 327 326 326 326 330 336 355 355 352 350 351 354 354 353 352 352
357 356 356 356 356 356 355 354 353 352 352 352 352 353 355 355 354 353 352 351 354 356 355 355 358 333 327 325 324 325 328 344 353 354 353 351 349 350 353 354 354 353
358 357 356 356 356 356 355 355 354 353 353 354 351 351 354 354 354 353 353 352 352 354 355 355 357 336 325 322 322 323 327 347 352 354 354 352 351 351 352 354 356 355
359 358 357 357 356 356 356 356 356 355 353 355 352 351 351 354 355 354 354 354 352 352 354 355 357 339 321 321 320 320 331 349 352 353 353 353 352 352 354 356 360 368
360 359 358 357 357 357 357 357 356 355 354 355 354 353 351 354 356 355 354 354 354 353 351 351 354 342 317 320 319 318 330 350 352 353 352 352 352 351 351 352 352 360
361 360 359 358 358 358 358 358 358 357 355 354 354 354 351 352 355 355 354 354 355 355 354 353 352 352 329 316 316 316 321 349 352 352 351 352 352 351 351 350 351 351

ECMWFNIL_sfc_thetae_078.txt.gz
Theta_e
343 342 343 340 338 339 341 340 338 342 346 348 348 350 350 352 355 354 356 356 356 356 357 357 358 357 357 354 358 356 355 356 357 357 357 358 357 357 357 356 354 352
343 343 347 343 340 340 341 343 341 341 345 348 349 350 350 351 354 354 355 356 357 356 357 358 357 357 356 354 356 355 356 355 354 359 356 355 356 356 356 356 355 355
343 343 344 343 340 339 339 342 342 341 344 347 349 350 350 352 352 353 354 355 356 356 356 358 357 357 357 356 356 355 355 354 354 358 356 354 355 355 355 355 354 355
343 343 343 344 343 340 340 340 341 342 342 343 346 349 351 353 352 352 352 360 355 355 355 357 358 357 358 357 357 355 355 354 355 355 355 355 355 354 353 352 353 353
344 343 343 343 344 344 342 340 340 340 341 342 343 346 350 351 351 351 351 353 355 355 355 355 358 358 358 357 357 355 356 355 355 355 353 353 354 355 353 353 351 350
346 344 345 343 343 343 344 342 340 340 340 342 342 344 345 348 350 350 351 351 353 354 354 355 355 358 358 357 357 356 356 356 356 355 354 353 354 356 356 354 352 351
347 345 344 345 343 342 343 344 343 342 340 340 343 343 344 344 345 347 348 351 352 354 353 354 354 356 358 357 357 356 356 356 356 355 354 353 354 354 356 353 352 351
347 347 346 345 344 343 342 343 344 344 342 341 341 344 345 344 343 344 346 348 352 353 353 354 354 354 357 357 356 356 356 357 356 355 354 353 353 352 353 355 352 350
349 348 347 346 345 344 343 342 343 345 345 343 341 342 346 346 345 343 344 344 348 352 352 353 354 354 355 357 357 356 356 356 356 354 354 353 352 352 352 353 352 352
349 349 348 347 345 345 344 343 342 343 347 345 344 343 343 346 347 346 345 345 344 348 352 353 354 355 355 356 356 356 356 355 355 354 354 353 353 353 353 352 353 352
350 350 349 348 347 346 345 345 344 343 345 347 346 345 344 344 346 347 347 346 346 346 349 352 353 354 354 354 356 357 357 356 356 355 354 354 353 353 358 353 353 353
351 351 351 350 349 348 347 346 345 344 343 345 347 346 346 345 344 345 348 347 347 347 348 350 352 354 354 354 354 356 356 357 356 356 355 354 355 354 354 355 354 354
352 351 351 351 351 351 350 349 347 346 345 344 347 347 347 346 346 344 345 348 349 348 348 349 351 352 354 354 353 354 355 356 356 355 355 354 354 354 355 356 356 355
353 353 353 352 352 352 352 351 350 349 348 346 346 346 347 347 347 346 344 345 349 350 350 350 350 350 352 353 353 353 353 354 355 355 355 354 354 353 354 355 356 357
354 354 354 353 353 352 352 352 352 351 351 349 348 347 348 347 348 348 346 344 346 349 351 351 351 350 351 351 352 352 353 353 354 355 355 354 354 354 353 352 354 356
354 354 353 353 352 351 351 352 352 352 352 352 350 349 348 348 347 348 348 346 344 347 350 352 352 353 349 341 345 353 352 353 354 354 354 354 353 353 353 353 353 353
355 354 353 352 352 351 351 351 351 352 352 352 352 350 349 349 348 347 347 348 346 345 347 351 353 354 342 335 336 341 351 352 352 353 354 354 353 353 352 353 354 354
355 354 353 352 352 351 351 351 351 351 351 351 351 351 350 350 349 347 347 348 348 347 346 349 351 345 335 333 334 334 342 353 352 352 354 353 354 353 353 353 353 353
355 354 353 353 352 352 351 351 350 350 350 350 350 351 351 349 348 348 347 347 348 347 347 348 349 341 333 331 332 332 333 346 352 352 352 353 353 353 353 353 353 352
355 354 353 353 353 352 352 351 350 350 350 351 351 351 351 350 349 348 347 347 348 348 348 349 349 341 330 328 329 329 331 337 352 352 352 352 352 353 353 353 353 352
356 355 354 353 353 352 352 351 351 350 350 350 350 350 350 350 349 348 347 348 348 349 349 350 351 337 328 325 325 325 328 334 351 353 352 352 352 352 352 352 352 353
355 355 355 354 353 352 352 351 351 351 350 350 350 350 351 351 351 350 348 347 348 349 349 350 352 334 327 324 323 323 327 340 349 352 352 351 351 351 352 352 352 352
353 354 355 355 354 353 351 351 351 351 351 352 350 350 349 350 351 350 350 349 348 349 349 350 352 337 325 322 321 322 325 343 347 351 352 352 351 350 350 351 353 352
351 353 354 355 354 353 353 352 353 353 352 353 350 349 349 350 351 351 351 351 349 349 350 350 351 341 322 321 320 320 329 344 347 349 350 351 352 352 350 348 351 362
351 352 354 355 355 354 354 353 353 353 353 353 352 351 350 351 352 352 352 351 351 350 348 350 351 343 320 321 319 318 328 346 348 349 349 350 351 351 351 350 349 356
351 352 354 356 355 355 355 355 355 354 353 352 352 352 351 350 351 352 351 351 352 351 351 352 352 353 337 318 318 317 320 346 349 349 348 349 351 351 351 350 350 351

ECMWFNIL_sfc_thetae_081.txt.gz
Theta_e
342 341 340 339 338 339 338 340 342 345 345 346 347 349 350 350 353 353 354 355 355 355 355 354 355 355 357 354 354 353 353 352 355 355 355 356 355 355 356 354 351 350
342 342 343 340 339 340 339 339 340 343 345 346 347 348 350 350 351 353 353 354 355 355 355 355 355 355 355 354 352 352 350 351 351 357 354 354 355 354 355 354 354 352
342 342 341 340 338 337 338 339 338 340 344 346 347 347 349 350 350 351 352 353 353 354 354 354 354 355 355 354 352 352 353 350 351 353 354 353 354 353 353 354 353 353
342 342 342 342 340 338 338 339 338 338 341 344 346 348 349 350 350 350 351 357 353 353 354 354 355 355 355 354 353 351 352 351 353 352 353 353 353 352 352 351 353 352
342 341 342 342 342 340 337 338 339 338 338 342 345 347 349 348 348 349 350 351 352 352 353 353 354 355 355 354 353 352 351 351 350 351 352 351 352 352 352 351 350 350
343 342 342 342 342 340 337 336 339 340 339 339 342 346 347 348 348 348 350 350 351 352 352 352 353 354 355 355 354 353 352 352 352 350 350 350 351 352 353 351 349 348
344 342 341 341 341 342 339 337 337 341 340 340 341 343 346 347 347 348 348 349 350 352 352 352 352 353 354 354 353 353 352 351 351 351 351 350 350 350 351 351 350 349
344 343 342 341 341 341 341 339 337 338 340 340 339 341 343 345 347 348 348 348 349 349 351 352 352 352 353 354 353 353 353 354 353 351 351 350 348 349 350 352 350 348
344 343 343 341 340 340 340 341 340 338 339 339 339 340 342 343 345 346 347 348 348 348 349 350 351 351 352 353 353 353 352 353 354 352 351 351 350 350 350 350 349 350
343 344 343 342 341 340 340 341 342 341 341 339 338 338 339 342 342 343 345 345 346 347 348 349 349 350 351 352 353 353 353 352 353 352 352 352 352 352 351 350 350 349
344 344 343 343 342 341 341 341 341 341 342 342 340 338 337 339 342 341 340 341 343 344 346 348 349 350 350 351 353 354 353 353 353 352 352 352 352 352 356 351 350 350
345 344 344 343 343 343 342 342 341 341 340 342 343 341 339 338 339 341 342 340 340 340 342 344 348 349 350 351 352 353 353 353 353 353 353 352 352 351 351 351 351 351
346 346 345 345 345 344 344 343 342 342 341 340 342 343 341 340 339 339 342 342 341 341 340 341 343 347 349 350 351 351 352 352 353 353 353 353 352 352 352 352 352 352
348 347 347 347 347 346 345 344 344 343 342 342 341 341 342 342 341 340 340 342 343 343 343 343 342 344 347 349 350 351 351 351 352 353 353 353 353 353 353 353 353 353
349 349 349 349 349 347 347 346 345 344 344 343 342 341 342 343 343 343 341 341 342 343 344 345 344 344 346 348 349 350 351 350 351 352 352 352 352 352 352 352 352 353
350 351 350 349 349 348 348 348 347 346 345 344 343 342 342 343 343 343 343 342 341 341 343 345 346 346 345 338 342 350 350 351 351 351 352 352 351 351 351 352 352 352
351 351 351 350 350 350 349 349 348 348 347 346 345 344 343 342 343 342 343 343 343 342 341 343 346 347 338 332 333 338 349 350 350 350 351 351 351 351 350 351 352 352
352 352 351 351 351 350 350 350 350 349 349 348 347 346 346 345 343 343 343 343 344 343 342 342 343 339 332 330 331 331 339 351 350 350 350 350 351 351 351 351 351 351
352 352 352 352 351 351 351 351 350 349 349 349 348 349 348 347 345 344 344 344 344 343 343 344 344 336 330 329 329 329 330 342 350 350 349 350 350 351 351 351 351 351
353 352 352 352 352 352 352 351 350 349 350 350 350 350 349 348 348 346 346 345 344 344 344 345 344 337 328 327 327 327 328 334 348 349 349 349 350 351 351 351 351 350
353 352 352 352 352 352 351 351 350 350 350 350 350 349 349 348 348 348 347 347 346 346 345 345 346 334 326 324 324 324 326 331 345 349 349 349 349 350 351 352 351 352
353 353 353 353 352 352 351 351 350 350 349 350 350 350 350 350 350 350 348 348 348 347 346 345 347 331 325 323 322 322 325 336 342 346 348 349 349 349 350 351 352 352
355 354 353 353 353 352 351 351 350 350 350 351 349 349 349 348 349 349 349 349 348 347 346 346 346 335 323 320 320 320 324 339 342 345 347 348 349 349 350 350 351 351
355 355 354 354 353 352 352 352 352 352 351 352 350 349 348 349 349 349 349 350 348 348 347 346 346 339 323 318 318 318 327 340 343 344 346 347 349 350 350 350 351 359
353 354 355 354 354 353 353 353 352 352 352 352 351 350 350 350 350 349 349 349 349 349 346 346 347 341 323 319 317 316 326 341 344 344 345 346 348 349 350 351 349 355
351 352 353 353 354 354 354 354 354 353 352 352 351 351 350 350 350 349 348 348 350 350 349 348 347 348 340 318 316 314 319 341 345 344 344 345 347 348 348 349 350 349

ECMWFNIL_sfc_thetae_084.txt.gz
Theta_e
344 343 342 341 341 342 344 347 348 349 349 350 351 352 353 354 356 357 357 358 359 358 358 358 359 360 360 360 360 359 359 357 358 358 358 359 358 357 357 358 358 357
344 344 345 343 342 343 343 346 348 349 349 349 350 352 354 354 354 356 356 356 358 358 358 358 358 359 359 359 357 357 356 357 356 358 358 358 359 359 359 359 359 359
344 344 343 342 340 341 341 342 346 347 348 349 350 351 352 354 353 355 355 356 356 357 357 357 358 358 358 358 357 357 357 355 355 356 359 358 358 359 360 359 358 358
345 344 343 343 342 341 341 341 342 344 347 348 348 349 351 352 353 353 354 359 356 356 357 357 357 358 358 358 357 356 356 357 357 357 357 358 358 358 358 358 358 357
344 344 344 344 343 343 341 340 340 340 342 346 348 349 351 351 352 352 353 354 355 355 356 357 357 357 358 358 358 357 356 355 356 357 356 356 357 358 357 357 357 356
345 345 345 344 344 342 339 339 340 340 340 341 345 349 349 350 350 351 351 352 353 354 355 355 356 356 357 358 358 357 357 355 356 356 356 356 356 357 357 357 356 355
344 344 344 344 343 343 340 339 340 342 340 341 344 345 348 348 349 350 351 352 352 354 354 354 355 355 357 358 357 357 357 357 356 356 355 356 356 355 356 357 357 355
345 344 344 344 343 343 342 340 338 340 341 342 340 342 346 347 348 349 350 351 352 352 354 354 355 355 355 357 357 356 356 355 355 356 355 355 355 355 355 356 357 356
345 345 344 343 342 342 342 342 340 339 341 341 340 340 344 346 347 348 349 350 350 351 352 353 354 354 355 355 356 356 356 356 356 356 355 355 354 355 355 356 355 355
345 345 343 342 341 342 341 342 342 340 341 340 341 341 341 344 346 347 349 349 349 350 351 352 353 354 354 354 355 356 356 356 356 356 356 355 355 355 355 355 355 355
344 345 344 343 342 341 341 342 342 342 341 339 340 340 341 342 344 346 347 348 348 349 349 350 351 353 353 354 354 355 355 355 355 356 356 356 356 356 357 356 356 355
344 344 344 343 343 342 341 341 342 342 342 342 340 339 340 341 342 343 345 345 347 348 349 350 351 352 352 353 353 354 355 355 356 356 355 356 356 356 357 357 356 356
344 343 344 344 344 343 343 342 341 341 342 342 343 341 340 339 340 341 344 344 345 346 347 349 350 351 352 352 353 354 354 354 355 355 355 355 356 356 356 356 356 356
345 345 344 345 345 345 345 343 342 341 341 342 344 343 342 340 339 339 341 344 343 343 344 346 347 348 351 352 352 353 353 353 354 354 354 355 355 356 356 356 356 356
346 346 346 346 346 345 345 344 344 343 343 342 342 342 343 343 343 341 340 341 343 343 344 344 343 343 345 348 350 352 353 352 353 354 354 354 355 355 356 356 356 356
347 348 347 347 346 346 346 346 345 344 343 342 342 342 342 344 344 344 342 341 341 342 343 343 343 343 342 336 340 348 350 351 351 352 353 354 354 354 354 355 355 356
348 348 349 348 347 347 347 347 346 346 345 344 344 343 342 343 343 342 342 343 342 341 341 342 344 344 336 330 331 335 346 350 350 351 352 353 353 353 353 354 355 356
348 349 349 349 349 348 348 348 348 347 347 346 345 344 344 344 342 342 343 343 343 343 342 342 343 338 330 329 330 329 336 349 350 350 351 352 353 353 353 354 354 354
349 349 349 349 349 349 349 349 349 348 347 347 346 346 345 344 344 343 343 343 343 343 342 343 344 334 329 328 328 328 328 340 349 350 350 351 352 353 353 353 354 354
350 350 349 350 351 350 350 350 349 349 349 349 349 349 347 346 345 344 344 344 344 343 344 344 344 336 327 325 326 326 327 332 347 349 350 351 351 352 352 353 353 353
350 350 350 351 351 351 351 350 350 350 350 350 350 349 348 348 347 346 346 345 345 345 344 344 344 332 325 322 322 323 325 329 345 348 349 350 351 352 352 353 353 354
351 351 351 352 352 352 351 351 351 351 350 351 351 351 351 351 351 350 349 348 347 346 345 345 346 329 324 322 320 321 324 337 344 346 348 349 350 351 352 353 354 354
353 352 352 352 353 352 352 352 351 351 352 353 351 351 351 350 351 351 351 351 350 349 347 347 347 335 322 320 319 319 323 339 343 345 347 348 349 350 352 352 353 354
350 351 352 353 353 352 352 352 353 353 353 354 351 351 350 351 351 351 352 352 351 350 350 349 348 340 322 318 317 317 326 340 343 344 345 347 348 350 352 352 353 357
351 350 351 352 353 353 354 353 353 353 354 354 353 353 352 353 353 352 352 352 352 351 346 349 350 343 322 318 316 315 325 342 344 344 344 346 348 348 351 352 352 355
349 352 355 356 355 355 355 355 355 355 355 354 354 353 353 353 352 352 351 351 352 352 352 351 350 351 343 318 316 313 317 341 345 344 344 345 347 348 348 350 352 353

ECMWFNIL_sfc_thetae_087.txt.gz
Theta_e
357 357 355 355 355 356 358 358 358 359 362 360 360 363 364 367 369 369 369 370 370 370 370 371 372 371 369 370 372 371 370 369 368 368 369 367 366 363 361 362 364 364
357 357 357 356 357 358 358 359 361 360 363 364 363 364 367 367 367 367 367 368 369 368 370 369 370 371 371 368 370 368 368 368 367 366 367 367 366 364 363 364 363 366
356 356 355 354 352 353 352 356 360 361 360 360 363 365 364 365 365 367 367 367 367 365 369 370 369 370 369 369 370 368 365 368 366 364 367 367 364 364 365 362 363 364
357 356 354 353 353 353 353 355 357 359 360 360 360 361 362 361 364 365 366 367 367 367 368 368 367 367 368 368 369 366 366 368 365 368 366 367 367 364 364 365 363 363
356 356 355 355 354 356 355 353 352 354 356 357 359 361 362 363 364 363 364 365 367 366 367 367 368 366 368 368 369 366 365 364 366 369 366 365 367 366 364 364 365 363
357 357 357 355 356 356 353 352 352 352 353 354 357 359 359 361 361 361 362 362 362 362 362 364 365 365 366 367 367 366 364 362 363 368 365 365 364 364 362 364 365 364
354 356 355 355 354 354 353 353 353 353 352 353 357 357 358 358 359 361 362 362 361 362 361 364 366 365 366 366 367 367 367 366 366 367 366 364 366 366 364 365 366 364
354 354 355 354 353 353 353 352 352 352 353 354 353 355 357 356 358 358 360 361 360 361 363 363 366 367 364 364 365 365 365 364 365 367 366 365 366 366 366 365 366 366
353 353 354 353 352 352 351 350 351 351 353 352 350 350 355 355 356 356 359 361 360 361 363 363 365 364 364 364 364 365 364 363 362 364 364 363 363 364 363 365 364 364
354 353 352 352 350 351 350 351 350 350 352 351 350 349 350 354 355 356 359 361 359 360 362 362 363 362 362 363 364 365 364 364 365 365 364 364 362 363 362 363 363 363
352 352 351 351 350 350 350 350 350 350 350 349 349 349 349 351 354 356 358 359 356 358 360 360 361 362 362 360 361 363 364 363 364 366 365 365 364 364 364 364 364 362
351 351 351 351 350 350 350 350 350 350 349 349 349 348 349 349 351 352 354 356 357 357 359 360 361 362 362 362 359 361 362 362 363 364 363 365 365 364 364 365 363 363
350 351 351 351 351 351 351 351 350 350 350 349 349 349 348 348 348 351 353 354 357 356 356 359 360 360 362 363 361 362 363 362 360 362 362 362 363 362 362 363 363 362
351 352 352 353 353 354 352 351 350 350 351 351 350 349 348 348 347 348 351 352 354 355 357 359 360 360 361 362 362 361 361 361 361 360 359 360 361 361 361 360 361 361
353 352 353 354 354 354 353 351 351 351 351 351 352 350 348 348 348 348 349 350 352 354 355 356 355 356 357 359 360 360 360 358 359 359 359 359 359 358 359 361 360 360
355 355 354 354 354 354 355 353 352 351 350 350 350 351 351 351 350 349 348 349 350 352 353 352 353 354 351 341 345 359 360 357 358 360 360 358 359 359 357 358 358 358
355 355 356 355 355 355 356 356 354 352 352 352 351 351 351 353 351 349 348 347 347 348 349 349 349 349 338 332 333 337 354 359 358 360 361 360 357 359 358 355 356 359
353 355 356 355 356 355 355 356 355 354 354 354 352 350 353 351 350 349 350 348 347 347 347 347 348 340 331 329 330 330 337 354 355 355 354 356 356 354 355 356 355 355
357 356 355 355 356 356 357 356 356 355 354 353 351 352 351 351 351 349 350 350 348 349 347 347 347 336 329 327 327 327 327 339 349 351 350 351 353 355 354 356 357 357
357 356 356 357 358 358 358 356 355 354 353 352 352 353 353 351 350 350 350 351 350 349 350 349 348 338 327 325 325 324 326 331 348 348 350 351 353 354 354 355 358 359
357 356 356 357 356 355 356 356 355 355 355 353 352 352 353 353 350 350 350 351 350 349 349 348 347 333 325 322 321 321 324 328 347 348 349 352 354 355 357 356 358 360
358 356 357 355 352 351 353 354 354 356 356 356 355 353 354 354 354 352 351 351 351 350 349 348 349 330 324 321 320 320 322 338 346 350 350 351 353 356 357 359 359 359
354 354 355 353 351 350 350 351 352 355 356 356 355 354 352 353 354 353 355 353 353 352 351 351 351 337 322 319 318 318 323 344 348 349 352 352 352 356 358 359 359 360
351 352 353 353 353 350 350 351 354 355 356 356 355 353 352 354 355 355 356 356 354 353 353 352 352 342 321 317 316 316 327 346 350 350 352 353 354 355 357 359 360 358
348 352 353 353 353 353 352 351 353 354 356 356 354 355 355 356 357 356 356 357 356 355 349 352 354 346 321 318 316 315 327 348 351 351 351 352 352 353 356 357 359 358
344 349 353 353 352 353 354 353 353 353 353 354 356 356 356 356 357 357 357 357 358 358 357 356 355 357 350 317 315 313 317 347 353 351 351 351 353 352 353 357 358 360

ECMWFNIL_sfc_thetae_090.txt.gz
Theta_e
361 362 361 361 360 359 359 358 357 358 360 358 357 360 359 364 365 366 367 367 367 367 369 371 370 370 369 370 373 371 370 372 369 370 371 368 367 364 362 363 364 363
362 363 363 362 361 361 361 360 361 358 360 362 360 360 364 365 366 366 365 365 367 365 367 367 369 370 369 370 370 369 370 370 368 365 367 367 367 365 363 364 363 365
363 362 361 360 357 360 358 360 363 361 358 359 360 362 361 364 365 367 366 365 363 361 364 366 367 368 368 369 370 368 365 368 367 365 366 366 365 365 366 362 363 364
364 362 360 359 358 358 360 359 360 361 360 357 358 358 358 357 361 364 366 367 364 364 363 365 365 364 367 367 368 366 365 366 366 367 366 368 367 366 367 367 364 364
364 362 360 360 359 360 361 359 357 358 359 357 358 361 362 362 363 362 363 365 367 364 365 365 366 364 365 366 367 365 363 363 365 368 366 365 367 366 363 366 367 364
364 365 364 361 361 360 358 358 359 357 358 355 357 358 360 363 362 360 360 361 361 359 357 360 363 362 361 364 366 365 362 359 359 365 365 365 363 362 359 363 364 363
362 363 362 361 359 360 359 360 360 359 355 356 358 358 359 360 361 360 361 362 359 358 356 359 364 362 362 364 366 366 366 366 364 364 366 364 365 364 361 361 363 363
362 362 363 362 360 358 359 358 359 358 359 358 355 358 360 357 360 359 359 359 359 359 362 360 363 368 361 360 363 364 364 359 362 366 367 366 365 365 366 362 363 364
361 362 362 361 359 357 356 356 356 357 359 358 355 354 359 359 356 357 359 361 360 359 362 363 365 365 363 361 361 364 363 359 355 360 363 362 361 364 362 364 363 364
361 361 360 360 358 357 355 355 354 355 358 357 355 353 352 358 358 357 359 362 362 361 362 365 364 364 363 362 363 363 363 363 362 361 361 361 359 359 358 360 359 360
359 359 358 359 358 356 355 355 354 353 356 356 355 352 352 353 358 359 359 361 360 360 361 363 362 363 363 359 360 362 363 360 361 362 362 361 360 359 359 359 358 357
358 358 357 357 357 356 355 355 354 354 354 356 356 354 353 351 354 357 357 360 362 360 360 362 364 363 364 362 357 358 360 360 359 361 361 363 361 359 359 360 357 356
357 357 358 357 358 357 356 356 355 354 354 353 356 356 353 351 350 355 358 358 362 362 357 360 363 362 364 365 362 359 359 360 357 356 359 360 361 358 356 357 358 357
357 358 358 360 359 361 359 357 356 356 356 356 357 356 354 353 351 350 354 357 357 360 360 359 361 362 364 366 366 361 358 359 360 356 353 355 357 357 356 353 353 355
358 358 359 361 360 361 360 359 357 358 358 358 359 357 355 355 354 352 352 355 356 357 358 357 354 357 358 361 363 363 361 356 358 358 355 353 354 353 355 357 355 351
359 360 360 361 360 361 362 361 359 359 357 358 358 358 359 359 358 356 354 353 355 356 357 354 353 352 355 345 350 359 361 354 354 357 359 357 356 356 353 352 353 354
359 360 361 361 362 362 363 362 359 358 359 360 359 359 360 361 358 356 355 354 353 354 355 354 352 349 342 335 336 341 355 358 357 357 360 361 358 358 358 354 352 353
358 362 361 361 362 363 363 364 362 360 359 361 359 358 361 359 357 357 358 355 353 354 353 354 355 344 332 331 333 333 342 354 352 354 354 356 359 356 355 355 355 352
361 360 361 360 362 362 363 363 363 360 359 358 357 359 358 359 360 357 358 357 356 355 353 354 354 341 330 328 330 330 331 344 351 349 349 350 353 356 357 358 357 355
360 359 359 361 362 362 362 361 360 361 358 357 357 359 359 357 357 358 358 359 358 357 357 355 355 343 329 325 326 326 328 335 353 350 349 349 351 353 354 356 359 359
359 359 359 360 362 362 362 361 360 361 359 357 356 356 357 358 357 358 358 358 357 357 356 355 354 337 327 322 322 322 325 331 352 350 350 351 351 353 355 355 358 360
357 358 360 360 361 361 362 361 361 361 360 359 358 356 356 356 358 359 358 357 357 357 355 355 356 333 326 322 319 320 323 342 350 352 351 351 352 353 354 357 359 359
350 352 357 359 362 362 362 360 360 360 361 362 359 357 354 353 356 357 360 359 358 358 357 357 357 341 324 319 318 318 325 348 351 351 352 352 352 354 355 356 358 362
342 347 353 356 358 358 358 358 358 358 358 360 358 357 355 353 355 356 358 360 359 359 358 357 358 348 323 318 316 316 331 350 353 352 353 354 354 356 356 357 359 359
342 343 346 353 356 356 357 357 357 358 358 358 357 358 357 358 357 356 356 359 359 359 355 356 359 351 324 318 316 314 330 353 353 354 354 354 354 355 358 358 359 359
341 342 343 345 351 357 359 358 358 357 357 356 357 357 357 357 357 357 356 358 361 358 358 358 358 360 359 316 315 313 318 351 355 354 354 355 357 356 358 360 360 361

ECMWFNIL_sfc_thetae_093.txt.gz
Theta_e
360 361 360 359 358 356 355 355 356 359 360 358 357 359 358 362 366 366 365 368 366 367 368 372 371 370 367 370 376 368 370 371 369 368 367 368 366 362 360 361 362 362
360 361 362 360 359 359 358 355 356 356 360 362 360 359 361 363 362 365 367 367 367 365 369 367 369 370 370 370 371 369 369 371 366 364 369 367 365 363 361 361 360 364
360 360 360 358 355 358 354 356 358 357 355 358 360 363 361 361 364 365 366 365 364 362 365 367 369 370 369 370 373 369 367 369 368 365 367 368 365 364 365 360 360 361
363 361 358 357 355 355 356 355 356 358 355 354 355 355 359 358 361 363 365 365 363 363 362 363 364 364 366 367 369 367 367 367 366 368 366 368 368 364 364 364 362 361
363 361 358 358 357 357 357 354 353 354 354 353 354 356 356 359 360 360 362 363 365 362 363 363 363 363 364 365 366 365 364 361 363 366 364 363 368 365 362 363 364 363
366 364 362 359 358 357 354 354 354 352 354 350 352 352 354 356 357 358 360 361 360 358 356 358 360 360 360 363 364 364 360 356 358 363 362 363 361 360 358 359 361 360
364 365 361 359 357 357 356 355 356 356 352 352 354 353 353 353 357 358 360 360 359 358 355 358 360 360 360 361 363 363 362 363 362 362 362 362 363 361 359 360 361 361
363 364 364 360 357 356 356 354 355 356 356 353 349 353 353 351 357 357 357 357 357 358 359 356 359 362 358 359 360 362 362 358 358 362 363 362 363 362 361 359 360 361
362 362 364 361 356 354 353 352 353 356 358 354 350 349 354 354 352 355 357 357 358 358 360 358 362 360 361 360 360 361 362 358 354 358 359 359 359 360 359 360 359 360
363 361 360 359 355 353 351 351 349 352 356 354 351 349 347 354 354 353 355 359 357 358 359 361 360 360 360 360 359 361 362 363 360 358 356 358 357 357 356 356 356 357
360 359 358 358 355 353 352 350 348 347 351 352 352 349 346 349 354 355 357 358 355 357 358 360 360 362 362 358 358 359 361 361 362 360 358 358 358 357 356 357 355 354
360 359 357 357 357 354 352 351 349 348 347 349 351 350 348 345 350 353 353 356 358 359 359 360 362 362 363 363 357 355 358 359 359 359 358 358 358 355 355 355 353 354
359 359 359 357 357 357 354 352 351 349 347 347 350 350 349 346 345 351 354 354 357 359 357 359 360 360 363 363 361 359 356 358 355 356 355 355 356 355 353 353 352 352
358 360 360 362 361 363 359 354 352 351 351 350 351 351 348 347 345 345 350 354 355 357 359 359 359 359 361 362 362 359 355 354 356 355 352 352 352 353 352 350 350 350
362 360 361 364 362 363 360 358 355 355 355 354 353 351 350 349 347 345 346 350 354 357 358 356 352 355 357 359 359 360 358 352 352 353 353 351 350 349 351 351 350 347
363 364 365 364 363 362 364 362 359 358 355 354 354 352 355 356 356 352 348 347 350 354 356 354 352 349 355 348 353 358 358 351 349 352 354 352 351 349 346 346 346 347
358 361 363 363 365 365 365 366 364 360 359 363 359 357 360 364 357 354 351 348 348 349 352 352 351 348 343 335 337 344 356 356 352 352 355 354 351 355 352 348 345 344
359 362 363 363 364 367 368 367 366 364 362 362 359 358 363 359 357 357 358 354 351 350 349 350 351 347 332 332 335 335 345 356 351 350 347 348 350 351 351 351 349 345
356 357 361 361 363 363 367 367 367 365 361 359 358 360 360 362 363 359 359 359 357 354 350 350 350 341 331 329 332 332 334 348 349 347 344 344 345 349 350 352 352 350
351 348 347 349 355 358 361 364 365 365 361 359 357 359 360 359 360 361 360 362 361 360 358 355 353 345 329 326 328 329 331 339 354 349 346 343 346 344 344 348 357 357
350 350 351 351 351 353 356 354 356 359 361 360 357 357 358 360 359 360 361 362 360 360 360 357 355 340 328 323 323 325 328 336 355 352 352 352 350 349 352 348 354 354
344 343 347 352 355 356 354 353 353 353 355 360 359 357 359 359 361 360 360 360 360 361 358 358 358 335 328 322 320 322 326 346 355 356 354 354 355 355 355 357 354 353
343 343 345 348 352 355 353 352 353 354 356 358 358 355 356 357 359 358 361 360 360 360 359 360 359 344 325 320 318 319 327 351 355 355 355 355 355 357 358 357 356 357
344 342 343 345 347 350 356 359 360 358 356 357 353 355 358 358 358 359 360 360 359 359 359 359 359 350 323 318 316 317 333 353 356 354 355 356 356 358 358 359 360 359
345 345 343 343 345 348 351 353 355 356 356 358 360 359 358 361 361 360 358 359 358 358 361 358 359 350 324 318 316 315 332 356 356 356 355 355 355 356 359 359 360 361
341 345 344 344 345 347 349 352 354 357 358 359 359 359 357 358 360 358 358 359 358 358 358 358 358 359 355 318 316 313 319 355 359 356 355 355 357 357 358 360 361 362

ECMWFNIL_sfc_thetae_096.txt.gz
Theta_e
364 364 362 362 362 362 362 361 356 358 364 359 359 361 366 367 372 368 366 368 369 370 374 375 374 372 368 373 374 371 371 375 366 369 372 369 370 361 359 359 361 363
363 364 364 362 365 365 366 361 362 364 365 369 364 366 367 368 365 368 369 366 368 367 372 370 372 373 373 369 373 372 373 374 370 367 368 369 371 362 360 363 357 366
361 362 360 359 356 357 353 357 362 361 360 359 363 366 361 363 364 371 371 368 365 363 370 371 371 373 370 373 373 372 368 373 370 366 371 372 368 366 370 358 358 361
361 360 357 356 356 356 354 356 360 359 359 360 358 357 357 356 363 363 369 368 369 369 365 367 368 366 370 370 373 372 370 374 370 373 370 372 371 366 367 369 366 363
357 358 358 357 356 358 357 354 352 354 354 357 356 362 366 371 363 362 365 366 370 365 368 367 367 367 370 370 370 371 367 367 369 371 369 369 372 369 362 367 366 364
361 361 361 359 358 359 354 352 353 353 354 351 354 356 356 361 362 360 361 360 359 359 359 360 362 361 362 368 368 367 364 360 361 366 367 367 364 364 357 364 366 364
358 359 356 357 355 355 355 354 354 355 352 351 355 354 354 354 358 361 363 362 359 361 358 360 364 363 362 366 366 368 368 369 369 371 364 365 367 365 360 365 370 366
360 359 358 357 354 352 353 353 353 354 356 355 351 354 354 351 356 353 358 361 359 361 361 360 365 367 359 360 363 364 363 359 360 367 371 367 368 367 367 362 366 369
361 361 359 356 353 351 350 350 351 352 355 353 349 349 353 353 355 353 358 361 360 362 364 361 365 361 360 361 361 363 362 359 356 360 361 362 362 364 363 365 363 364
357 360 358 355 352 350 349 350 350 351 354 351 349 348 348 352 354 355 359 361 360 363 364 361 362 361 359 359 364 363 362 363 365 366 361 359 360 360 359 360 359 361
351 354 357 357 354 351 349 349 349 349 352 351 349 346 348 349 353 357 359 360 355 357 361 361 360 361 362 358 359 360 362 360 361 363 364 362 360 362 363 362 360 357
354 352 353 354 354 353 350 350 348 348 349 352 351 348 348 349 351 351 355 358 356 355 358 360 361 361 362 361 358 358 359 359 362 363 360 360 360 361 360 360 357 359
355 356 350 356 354 352 349 349 348 347 347 349 351 350 347 345 348 351 352 357 358 357 356 359 361 361 363 364 362 361 360 358 357 360 360 359 358 356 355 355 355 354
355 357 353 356 358 356 354 349 347 346 347 349 351 349 347 345 343 347 351 352 357 357 358 360 362 361 363 365 364 361 360 359 359 357 356 357 356 356 354 352 352 351
354 355 352 352 356 360 358 355 353 353 355 355 353 348 346 347 345 343 348 349 352 356 358 357 356 358 358 361 362 362 360 355 355 356 356 355 354 351 352 352 351 349
359 353 352 354 354 351 349 348 349 357 349 352 355 353 354 354 352 351 347 350 351 354 356 354 354 354 356 348 352 359 360 355 352 353 354 354 355 353 350 351 348 347
357 354 354 353 354 355 354 355 355 353 349 356 360 361 360 370 363 353 348 345 349 351 352 351 351 351 346 337 338 345 358 359 355 354 355 355 354 354 352 348 346 347
355 357 356 356 357 355 355 355 356 353 351 352 355 358 364 360 354 357 358 351 346 346 347 350 352 349 335 333 335 336 346 357 356 353 351 353 353 351 351 350 347 344
351 353 355 356 356 357 357 354 353 355 353 354 354 357 359 363 359 356 357 356 352 352 350 348 350 341 332 329 332 333 334 348 353 353 349 346 347 350 349 350 351 349
346 347 349 354 356 356 357 358 355 353 355 357 358 358 358 355 357 359 358 361 358 356 357 353 350 344 331 326 327 329 331 338 353 349 348 347 347 347 347 349 351 352
343 341 343 346 352 357 357 356 356 356 355 355 356 357 357 357 357 354 356 359 358 357 357 355 353 340 329 323 323 324 328 334 352 350 347 346 347 348 351 350 353 355
344 342 342 346 349 351 354 357 357 357 356 357 357 356 358 360 359 356 353 354 356 355 356 356 357 337 332 323 320 321 326 341 350 352 350 349 350 351 350 351 351 350
346 343 343 344 346 349 350 353 355 357 358 359 356 355 354 355 356 355 357 355 357 357 355 354 355 346 331 321 318 319 324 344 349 351 352 351 352 355 357 358 357 355
345 347 345 344 345 346 349 352 354 356 358 360 355 354 354 354 356 358 357 356 354 354 353 354 356 351 331 319 316 317 329 346 348 351 352 354 354 356 357 358 360 365
339 343 345 344 345 345 346 349 351 353 355 356 358 357 356 357 358 357 357 357 357 356 354 354 356 350 332 319 316 315 327 347 350 352 351 353 353 354 357 357 358 361
338 343 343 343 345 345 347 349 352 353 354 355 357 358 357 356 356 355 354 355 355 355 354 354 354 356 353 320 315 313 318 348 356 353 352 352 354 354 355 357 359 360

ECMWFNIL_sfc_thetae_099.txt.gz
Theta_e
356 358 355 355 355 355 355 355 357 356 355 356 356 358 357 358 360 359 360 363 362 364 367 367 367 366 367 365 362 360 364 362 359 365 365 364 361 362 360 359 359 356
357 358 359 358 357 359 356 357 355 355 355 354 356 356 360 359 363 360 360 361 364 366 367 366 366 363 364 364 363 362 362 364 360 367 364 364 363 360 358 358 356 359
356 357 357 356 356 356 358 357 355 356 356 358 356 356 358 360 360 361 361 360 361 364 365 365 364 364 363 363 364 363 363 364 361 362 362 363 361 360 359 358 356 358
356 357 356 356 356 355 354 354 355 356 355 356 357 358 356 358 359 362 362 366 358 360 363 363 363 363 363 364 362 363 362 363 364 363 362 367 365 362 360 359 359 356
355 356 356 355 354 354 352 351 353 352 353 354 356 356 354 354 357 357 361 362 358 361 361 362 362 361 363 363 363 362 362 363 362 362 360 361 362 362 360 359 356 355
355 355 355 355 353 353 351 349 350 351 350 353 353 355 355 360 356 356 359 359 361 359 360 359 361 361 362 362 363 362 361 361 360 360 358 356 358 359 360 358 356 353
353 354 354 355 354 353 351 350 349 351 350 350 353 352 354 354 356 356 357 358 357 357 355 357 357 356 360 360 360 359 359 358 357 358 357 356 357 357 358 356 360 354
353 354 354 354 353 352 351 350 349 350 349 349 350 351 351 352 352 356 357 357 355 355 355 354 356 355 356 358 357 358 357 360 359 359 356 355 356 354 354 358 357 356
355 354 354 353 352 351 351 350 349 349 351 349 348 348 350 350 350 351 354 356 355 355 354 354 355 356 356 356 357 357 356 356 355 353 355 356 356 356 355 356 354 353
351 351 352 353 352 350 348 348 349 349 350 350 348 346 348 349 350 350 349 353 355 355 354 354 355 356 356 354 356 356 356 355 354 353 352 353 355 356 356 356 355 353
353 353 350 348 350 350 347 348 347 347 348 349 348 346 345 346 349 349 349 350 353 354 356 354 353 356 354 353 354 356 356 355 355 355 355 353 353 354 361 355 354 353
350 353 354 352 351 346 346 345 346 343 347 348 348 346 344 345 345 349 350 350 351 351 354 355 353 354 354 352 352 355 356 356 355 354 355 356 354 353 354 355 354 353
355 353 351 351 351 351 350 348 346 344 346 346 349 347 346 343 344 345 350 352 351 351 351 354 354 353 353 354 353 352 353 355 355 355 355 355 354 354 355 354 353 353
354 354 352 351 353 353 353 352 351 348 346 347 348 348 346 345 343 344 345 352 352 351 350 351 353 354 353 354 355 354 353 353 353 354 355 355 354 353 352 352 352 352
352 352 354 354 355 354 354 352 350 348 349 349 348 348 348 347 344 344 344 347 351 351 350 351 352 353 355 355 356 355 354 353 353 352 353 353 354 353 352 351 350 350
351 352 352 354 354 353 353 352 350 350 352 351 349 348 350 347 345 342 344 344 347 350 350 351 351 353 355 348 352 357 355 354 353 352 351 351 351 351 351 350 351 350
353 352 351 351 352 352 353 353 352 352 350 349 349 349 351 355 351 342 341 344 344 347 350 350 351 353 347 337 338 345 356 354 353 351 349 348 349 349 348 348 348 348
351 353 353 353 355 353 353 353 354 353 351 351 351 350 352 357 356 349 342 342 345 345 347 349 350 348 337 334 335 335 345 355 354 353 351 347 347 347 347 348 346 345
346 347 348 349 350 353 355 354 350 352 353 353 351 352 353 352 350 354 354 350 345 343 344 347 349 341 333 331 331 332 333 346 353 353 351 350 347 346 346 346 346 346
344 344 344 345 349 351 352 353 354 352 353 355 356 355 354 354 354 353 353 354 355 352 347 347 347 345 331 328 327 328 330 336 351 351 351 350 348 346 346 346 345 345
342 342 343 345 347 349 350 351 353 354 354 354 353 353 353 352 354 354 353 353 353 353 353 353 352 341 331 325 323 322 326 332 346 350 350 349 348 347 344 344 344 346
343 342 343 345 347 348 349 350 352 354 355 355 355 354 354 355 356 355 352 352 354 354 353 351 353 337 331 328 321 319 322 333 341 346 347 347 346 345 343 343 343 343
343 342 343 344 345 346 347 349 349 351 353 356 354 354 353 353 354 356 356 355 354 353 352 352 353 344 332 320 318 319 321 331 336 340 344 346 346 345 343 343 343 344
343 342 343 344 344 345 346 347 349 351 352 355 354 354 353 353 354 354 355 355 354 353 352 350 351 346 332 325 324 320 325 333 336 338 339 342 344 346 346 345 348 358
337 343 344 344 344 345 346 346 347 348 351 354 355 355 353 354 356 355 354 355 356 356 356 354 353 347 334 329 326 325 328 334 339 341 340 341 342 343 346 347 348 356
334 336 338 337 337 341 345 346 349 350 351 353 354 355 354 355 355 355 354 353 355 355 356 355 355 354 349 330 323 324 321 338 340 341 341 342 343 344 345 346 348 349

ECMWFNIL_sfc_thetae_102.txt.gz
Theta_e
351 354 349 350 350 353 351 352 353 353 352 352 354 354 355 358 360 360 360 361 360 360 359 359 362 360 363 359 359 357 360 359 359 359 360 359 358 359 359 356 355 353
352 355 354 352 354 355 353 353 354 354 353 353 355 356 355 358 358 359 359 360 361 360 362 363 362 360 361 359 357 356 356 359 356 362 360 359 359 358 357 356 354 354
353 354 354 350 353 352 353 353 354 354 353 353 354 355 356 359 357 357 358 359 359 360 362 363 362 361 361 359 357 356 357 357 356 356 358 357 359 359 358 356 354 354
353 354 354 353 353 353 353 353 352 353 354 353 353 355 355 360 358 357 357 364 358 360 362 363 362 361 360 360 359 358 358 358 360 358 357 359 361 359 357 356 359 356
353 354 354 354 354 354 354 352 352 352 353 353 354 354 355 354 356 358 357 359 357 359 361 362 361 360 360 360 359 358 358 358 359 357 356 355 357 358 358 356 354 353
353 353 354 354 353 353 352 352 352 352 353 352 353 356 354 352 354 357 358 358 356 357 360 360 360 360 359 359 359 358 359 360 359 356 356 355 356 358 360 357 353 352
353 353 354 353 353 353 351 350 351 353 351 352 352 353 354 352 352 354 358 358 357 356 358 358 358 358 358 358 358 358 357 357 356 355 354 354 354 353 354 354 354 353
352 353 353 353 352 351 351 349 349 350 350 350 350 351 352 353 353 353 354 357 358 356 356 357 357 357 358 357 357 356 357 359 357 354 353 354 353 352 352 353 353 351
351 351 352 352 352 351 351 350 349 348 349 348 349 350 351 350 352 354 353 354 355 355 354 354 355 355 355 356 356 356 355 356 356 354 353 354 353 353 352 352 350 350
349 351 351 352 351 351 350 350 350 348 349 348 348 349 349 350 349 351 354 353 353 353 353 353 352 353 353 353 355 355 355 354 354 353 351 352 353 353 353 353 351 350
348 348 346 349 350 351 350 348 348 349 348 348 347 346 347 348 349 348 350 353 353 353 352 352 352 353 353 353 353 355 355 354 354 352 351 350 350 351 359 354 353 352
346 348 349 348 350 347 347 345 345 345 344 345 348 347 345 346 347 348 348 349 352 353 353 353 352 352 353 353 353 353 354 354 354 353 352 352 351 350 350 353 353 352
347 348 348 347 349 350 350 346 344 344 345 344 345 345 345 344 345 346 348 347 347 351 353 353 353 352 352 352 352 351 352 353 353 352 352 351 351 352 352 351 351 352
348 349 349 348 349 351 352 351 347 345 344 344 347 346 344 344 343 344 346 347 347 347 349 352 353 352 351 351 351 350 350 351 352 352 351 351 351 351 352 352 352 352
350 350 351 351 353 352 352 351 350 348 347 345 345 345 347 345 345 343 343 345 347 347 347 349 350 352 352 351 351 351 350 349 350 351 351 351 351 351 351 351 351 351
350 350 351 351 350 348 348 350 350 349 349 347 346 346 345 348 347 344 342 342 345 347 347 348 348 350 353 346 349 352 351 351 350 350 350 350 350 350 351 351 351 350
349 348 348 349 349 347 349 350 351 351 350 349 348 348 347 348 353 351 343 341 342 344 347 348 349 349 344 336 337 342 352 350 350 350 349 349 348 348 348 350 350 350
349 351 350 350 351 349 349 350 351 350 348 348 349 350 350 354 352 351 351 345 341 342 344 347 348 347 336 333 334 334 343 352 351 350 350 348 348 348 348 348 348 349
344 344 346 346 347 348 350 350 348 349 349 349 350 351 353 351 350 352 352 353 351 343 340 344 347 341 333 332 331 331 332 343 352 351 351 350 349 348 347 346 347 347
342 342 342 343 346 346 348 348 350 350 351 351 352 352 350 351 353 352 351 350 351 351 349 348 345 343 332 327 326 327 328 333 348 350 351 351 351 350 349 348 346 345
341 341 341 343 345 346 346 347 349 350 351 352 352 352 350 349 351 351 351 352 352 353 352 351 351 330 330 328 326 323 324 328 335 341 346 349 350 350 349 349 347 347
341 341 341 343 344 345 346 347 348 348 348 352 354 353 353 353 353 353 352 351 352 352 351 351 352 331 329 329 325 321 323 333 334 336 339 342 345 347 348 348 347 346
342 341 341 343 343 344 344 344 345 346 349 351 351 352 353 352 352 353 353 353 352 352 350 349 350 332 324 324 329 322 325 332 333 336 337 338 340 343 345 345 344 344
341 341 341 342 342 342 343 345 346 346 347 349 349 350 352 353 353 351 352 353 353 352 352 351 352 342 320 317 318 319 331 334 333 334 335 337 338 340 341 342 344 354
332 336 337 337 337 338 342 344 345 344 347 349 350 351 352 352 354 352 352 352 354 354 355 353 353 346 321 318 316 317 328 337 336 336 336 337 338 339 341 342 343 351
329 330 330 330 331 333 336 340 345 346 346 347 349 350 351 352 352 351 352 351 353 353 354 355 353 352 348 329 323 321 323 341 340 340 340 341 342 342 342 342 343 343

ECMWFNIL_sfc_thetae_108.txt.gz
Theta_e
350 350 350 349 349 350 351 351 352 352 353 354 354 354 355 357 360 360 361 362 362 362 362 361 363 363 364 362 362 361 362 360 361 360 360 361 361 360 360 360 359 358
351 352 354 351 351 353 351 352 352 353 353 354 355 355 356 358 359 361 360 361 362 362 362 361 361 362 362 362 361 360 359 361 360 363 361 361 361 360 360 361 360 359
352 353 352 350 350 351 351 351 353 353 354 354 355 356 355 358 358 360 361 361 361 361 361 361 361 362 361 362 361 361 359 359 360 360 363 361 360 360 361 360 360 359
352 353 353 351 351 351 352 351 352 353 354 354 354 355 356 357 359 359 360 364 361 361 361 361 362 362 362 361 361 359 358 359 360 361 360 362 362 361 362 361 362 361
353 352 353 352 351 353 353 352 352 352 353 354 354 356 358 358 358 358 358 359 361 360 360 361 362 362 363 361 360 359 358 358 359 361 361 361 361 362 361 362 361 360
353 353 354 352 352 352 352 352 353 353 353 353 354 356 356 356 357 357 358 357 358 359 359 360 361 362 362 362 361 360 360 359 359 359 359 360 360 360 360 361 360 359
351 352 353 354 352 352 352 352 353 355 354 355 355 354 355 354 355 357 358 358 357 359 358 360 361 361 362 362 361 360 360 360 360 360 359 359 360 359 358 358 359 357
351 352 353 354 353 352 352 352 352 353 354 355 354 354 355 354 354 355 357 358 357 358 359 359 360 361 361 361 360 359 359 358 359 359 359 359 358 358 358 357 358 356
351 351 352 353 353 352 352 352 352 352 354 353 353 353 355 355 354 354 355 357 358 358 358 358 360 360 361 360 360 359 359 359 359 359 358 357 357 357 357 357 356 356
351 351 352 352 352 352 352 352 352 352 354 352 352 353 352 354 355 354 354 356 357 358 357 358 358 359 360 360 360 359 359 359 359 359 358 358 357 357 357 357 356 356
351 351 351 351 352 352 352 352 352 352 352 352 352 351 352 352 354 354 354 354 354 356 357 357 357 358 358 358 359 360 359 359 359 359 358 358 358 358 359 358 356 355
351 351 351 351 351 351 352 352 352 352 351 352 352 352 351 351 351 352 353 353 354 355 357 358 358 357 358 358 358 358 359 359 359 359 358 358 357 356 356 357 356 356
350 350 350 351 352 352 352 352 352 351 351 350 351 351 350 349 349 350 352 352 353 354 354 355 356 356 356 357 357 358 358 358 357 357 357 357 357 356 356 355 354 354
350 351 351 351 351 352 352 352 351 350 350 351 351 350 349 349 348 348 348 351 351 352 354 355 355 355 356 356 356 356 356 355 356 356 355 356 356 356 355 355 355 354
350 350 351 351 352 351 351 351 349 349 349 348 349 349 348 349 349 348 348 347 349 350 351 353 353 353 354 354 354 355 355 354 354 354 354 354 354 354 355 355 354 354
348 347 346 347 349 348 348 350 350 349 347 346 346 346 347 348 347 347 346 346 346 348 349 349 350 352 353 346 349 355 354 353 354 354 354 354 354 354 353 353 353 353
346 346 346 346 347 346 345 344 346 349 350 349 348 347 346 347 348 347 348 346 344 344 345 346 347 348 343 336 336 340 354 355 353 354 354 354 353 353 353 353 353 353
345 345 346 346 346 345 344 344 346 348 350 350 349 348 349 349 349 348 348 349 347 345 343 344 346 345 334 332 333 332 340 354 354 353 352 352 352 352 352 352 352 352
346 346 346 346 346 347 346 345 345 344 345 347 350 351 351 351 350 350 350 351 351 349 345 344 345 339 332 330 330 330 330 341 351 353 352 351 352 352 352 352 353 353
342 344 344 345 346 347 347 348 346 345 346 347 348 351 351 351 351 352 352 352 353 353 353 352 350 345 332 328 327 327 328 333 345 348 350 351 352 352 351 352 352 352
339 340 340 341 342 344 345 345 346 347 347 350 352 352 349 351 352 352 352 353 353 354 353 352 352 339 328 326 324 323 325 331 343 344 346 348 350 352 353 353 353 353
332 332 331 330 330 332 334 336 338 340 341 346 349 349 350 350 353 353 353 353 354 354 353 353 353 334 328 328 325 323 324 337 342 344 345 346 347 350 351 354 354 354
329 328 328 327 326 326 327 329 330 334 337 341 345 347 349 352 352 353 355 354 353 353 352 352 353 340 326 321 319 320 329 340 341 343 344 344 345 347 349 350 350 352
327 327 326 326 325 325 326 328 330 333 335 337 339 343 346 348 351 353 354 354 355 354 354 353 354 347 327 321 319 317 327 341 340 340 341 342 342 343 344 345 346 348
328 328 327 327 327 328 329 328 328 331 334 335 337 340 346 347 349 349 351 351 353 353 355 355 355 349 323 320 320 319 331 343 345 345 344 345 345 345 347 347 348 348
325 326 326 325 324 324 326 329 332 332 331 333 336 340 344 348 349 349 348 349 350 352 351 351 352 353 346 322 317 317 319 339 345 346 346 346 346 347 348 349 349 350

ECMWFNIL_sfc_thetae_111.txt.gz
Theta_e
361 361 360 360 361 362 363 363 362 362 364 362 361 363 363 366 368 367 366 368 369 369 371 371 372 371 368 370 372 372 370 369 368 367 368 365 363 361 358 360 364 365
361 362 363 361 363 364 365 364 365 364 365 367 365 365 368 368 367 368 367 367 369 368 371 370 370 371 370 369 371 369 368 369 368 366 367 366 365 363 361 362 362 366
360 361 360 359 357 360 358 362 365 364 363 363 365 368 365 366 366 369 368 367 367 365 370 371 370 371 369 370 370 369 366 368 367 366 368 366 365 365 364 361 362 364
361 360 358 357 357 359 359 361 362 364 363 364 363 363 364 362 366 367 368 369 368 369 368 369 368 368 369 370 371 369 368 369 367 369 367 368 367 365 365 365 364 364
360 360 360 359 359 362 362 360 358 360 361 362 362 365 367 367 367 365 367 368 370 368 369 369 369 369 371 371 371 369 368 364 368 370 367 366 368 366 364 365 365 363
362 363 364 361 363 363 360 360 360 359 360 359 362 363 364 365 365 365 365 364 363 363 363 366 367 367 368 369 370 369 366 363 366 369 367 366 365 366 362 364 365 364
359 361 360 361 360 361 361 361 361 362 360 360 364 363 364 363 364 366 367 365 363 365 363 366 370 369 369 371 371 370 370 369 369 369 367 365 367 366 365 365 366 366
357 359 361 362 359 360 360 361 361 362 363 364 362 364 365 362 365 364 365 365 364 365 367 366 369 372 367 368 369 368 368 364 365 369 368 366 366 366 366 365 366 366
357 359 360 360 358 358 357 357 360 361 364 362 359 360 364 363 363 362 366 368 365 366 368 367 369 368 368 368 369 369 368 364 362 365 365 364 363 365 364 365 364 364
359 358 357 357 356 357 357 357 357 359 362 360 360 359 359 364 365 364 366 368 365 366 367 367 368 367 367 369 369 369 369 368 367 367 365 364 363 363 362 364 363 363
359 358 356 356 356 356 356 357 357 358 360 360 359 358 359 361 365 366 366 366 361 362 364 367 366 367 368 366 367 368 368 366 366 368 367 366 366 366 365 366 365 363
360 360 358 357 356 355 356 356 357 358 359 359 359 358 360 358 360 361 361 364 364 363 364 366 368 368 369 368 365 366 367 366 366 367 366 367 367 366 366 366 364 365
359 360 359 357 359 358 357 357 357 357 358 358 359 359 359 357 358 360 362 362 364 364 362 365 367 366 368 370 367 367 367 367 364 365 366 366 366 365 364 364 364 363
359 361 360 359 361 364 362 359 358 358 358 359 360 360 358 357 357 357 360 361 361 362 363 365 366 365 367 368 367 365 364 365 365 364 362 364 364 365 364 362 363 362
358 358 359 361 362 362 362 361 359 360 360 360 361 359 357 358 358 357 357 358 359 360 362 362 359 360 361 363 364 365 364 362 363 363 363 363 364 362 363 364 363 362
357 358 358 358 358 359 360 360 359 359 358 358 359 359 360 361 360 359 357 356 357 359 360 358 358 358 361 352 354 361 363 360 361 363 364 362 363 363 361 361 361 361
351 351 352 354 353 353 354 354 357 357 357 358 357 357 359 361 360 359 358 356 355 356 356 355 355 355 350 338 337 341 357 361 362 363 365 364 362 363 362 360 360 361
346 346 349 350 349 348 348 350 351 352 354 356 356 356 358 356 355 356 358 357 355 355 354 353 353 354 337 334 335 334 343 358 359 360 359 361 361 359 360 360 359 359
346 345 347 349 349 348 346 346 346 348 350 351 353 355 356 357 358 356 355 355 354 355 353 353 353 347 335 332 331 331 331 344 355 358 358 358 359 361 360 360 361 361
347 348 347 347 348 348 347 346 345 346 349 352 353 355 354 356 357 358 358 360 359 358 358 356 355 352 337 331 328 328 329 335 352 354 356 357 359 359 359 360 362 363
334 335 336 338 342 345 346 347 348 349 351 352 353 354 355 356 355 356 358 358 357 355 355 355 355 346 338 333 327 324 325 333 349 352 354 356 358 359 361 359 360 360
329 330 331 332 333 333 333 335 338 339 341 347 351 353 354 356 353 354 354 355 356 355 353 352 354 330 330 330 327 326 327 344 351 355 355 355 356 358 359 361 361 360
329 329 329 330 331 331 331 332 334 335 338 342 344 347 349 350 352 352 353 354 354 353 350 352 353 337 325 324 324 323 334 355 356 355 356 356 356 358 358 358 358 359
331 331 330 330 330 331 332 335 337 336 336 338 340 344 347 348 351 352 352 353 354 355 354 354 352 340 327 320 320 322 332 355 356 355 355 355 355 356 356 357 356 349
330 330 331 330 330 330 332 332 334 337 337 337 339 341 345 348 350 350 350 350 350 352 351 349 346 342 323 319 318 320 340 358 357 357 356 356 356 356 358 358 358 354
329 329 329 329 329 330 331 332 334 335 338 340 338 339 340 346 350 350 349 346 342 344 347 347 342 340 333 316 315 318 324 352 356 354 354 354 355 354 355 357 357 358

ECMWFNIL_sfc_thetae_114.txt.gz
Theta_e
363 364 363 360 362 362 364 363 362 362 364 362 361 362 362 367 365 367 367 369 370 370 371 374 374 373 370 372 375 372 371 371 370 369 368 367 365 362 360 361 361 360
363 363 363 362 363 365 365 365 366 365 366 366 365 365 367 367 364 365 367 367 369 369 372 371 373 373 373 370 373 370 371 372 370 367 367 367 366 363 360 362 363 365
362 362 361 360 358 361 359 363 365 366 364 364 365 365 364 364 367 367 367 367 368 367 370 372 373 372 371 372 374 370 367 370 368 366 368 367 366 365 366 362 362 365
363 362 360 358 358 359 360 362 364 366 366 364 363 363 363 362 366 367 367 367 369 369 369 369 370 369 370 371 372 369 370 370 368 371 368 369 368 366 366 365 364 364
361 361 361 361 360 362 362 361 361 361 362 363 363 366 367 368 368 366 367 367 368 370 369 369 371 369 372 372 373 369 369 366 369 369 367 367 370 365 363 365 367 364
361 362 363 361 362 363 360 361 361 360 361 360 362 364 365 366 366 365 366 365 364 363 364 366 367 366 368 371 372 370 369 364 365 369 366 366 366 366 362 365 367 365
358 360 360 360 359 361 362 362 362 363 361 361 363 363 364 364 364 366 366 365 364 366 363 366 368 367 367 371 371 370 369 367 369 370 368 366 367 365 365 365 366 365
358 358 360 360 358 360 360 359 361 362 363 363 361 364 365 363 365 363 365 364 363 365 365 366 368 371 368 368 369 368 369 364 365 367 368 367 366 367 367 363 365 365
357 357 359 358 357 356 356 357 359 361 363 362 360 361 364 364 362 362 363 366 365 364 367 367 369 368 367 367 368 369 368 366 363 366 367 365 364 364 363 364 362 363
357 356 355 357 355 355 355 357 358 359 362 361 360 359 359 363 364 363 364 367 365 365 367 366 366 365 365 366 367 368 367 367 368 366 366 366 362 362 360 362 360 361
357 355 354 355 355 354 355 356 357 357 360 361 360 359 359 361 363 363 366 367 361 363 365 365 364 365 365 364 365 366 366 365 365 367 367 366 365 365 363 362 360 360
360 358 356 354 352 354 355 355 356 356 358 360 361 360 361 359 361 361 360 362 363 362 364 365 365 366 366 366 364 365 365 366 366 367 365 365 365 363 363 363 361 361
360 361 358 356 355 355 355 356 357 357 357 358 360 360 359 358 357 361 360 360 363 363 361 363 364 364 367 368 366 366 366 365 364 364 364 363 364 361 361 361 360 360
360 362 362 361 361 363 360 358 357 357 358 360 360 360 358 358 356 355 358 359 360 360 362 364 364 364 366 367 367 365 363 362 362 361 360 361 359 360 358 357 358 357
361 363 365 366 366 365 365 362 360 359 359 360 362 361 358 358 358 354 355 358 358 359 360 360 358 359 359 362 363 363 362 360 360 360 359 359 359 358 358 358 358 357
361 365 366 366 366 367 367 365 363 362 359 359 360 359 361 362 361 360 357 355 355 357 358 356 356 356 363 363 363 362 361 358 359 361 361 361 360 359 357 356 356 356
360 362 365 364 365 364 363 363 364 362 361 362 362 361 361 362 360 359 357 355 354 353 354 353 352 353 360 344 345 349 360 358 358 360 361 361 359 360 359 356 355 355
357 357 358 358 361 362 362 362 362 362 361 361 361 360 363 361 359 359 359 356 354 353 352 351 351 357 339 340 341 340 351 360 356 356 354 355 357 357 356 355 353 352
354 351 353 354 354 357 359 358 359 359 359 358 357 359 359 361 361 358 358 357 355 355 353 352 352 345 336 338 338 337 336 352 354 356 354 353 354 355 356 358 359 356
352 349 348 350 351 352 353 354 354 354 356 358 358 359 358 358 358 360 359 360 358 356 358 356 354 349 335 335 334 332 333 342 356 355 355 355 356 356 355 355 359 361
349 348 349 350 350 350 350 350 351 353 354 356 356 355 357 357 356 358 359 360 359 358 358 356 353 329 330 331 330 329 330 340 356 356 357 357 356 357 359 358 360 361
339 340 342 343 342 342 344 345 346 349 352 355 355 356 356 357 358 357 357 359 362 363 361 360 352 325 327 328 327 329 332 354 359 360 358 357 356 357 358 362 363 364
338 338 338 337 338 339 339 339 340 342 343 345 353 355 354 355 356 357 359 358 358 359 360 360 358 329 320 321 323 324 334 359 360 359 359 359 359 360 362 365 366 366
336 334 332 332 333 334 335 337 339 340 338 342 343 348 352 353 356 357 358 358 355 354 356 358 352 331 318 318 321 324 338 358 361 360 361 362 362 364 365 365 367 359
335 335 333 332 332 331 335 336 335 337 339 343 343 343 345 348 349 348 348 346 345 345 347 351 349 337 317 316 316 318 337 360 359 358 358 360 360 360 363 363 364 359
334 334 333 333 332 333 337 337 339 337 337 342 342 343 344 346 348 344 340 341 343 344 343 343 344 340 328 314 315 318 323 352 359 357 356 355 352 350 350 350 355 356

ECMWFNIL_sfc_thetae_117.txt.gz
Theta_e
362 364 363 361 361 361 361 361 360 361 362 360 358 361 362 363 364 364 363 367 367 370 369 373 370 368 367 371 376 368 370 369 371 366 366 366 365 361 358 359 358 355
362 363 364 362 363 364 364 363 362 361 363 367 362 365 363 366 362 365 366 367 369 368 374 370 369 371 370 369 370 366 370 371 366 361 366 367 362 362 359 359 357 364
361 363 361 361 359 362 360 363 364 364 362 363 362 364 362 365 366 364 368 366 366 364 366 371 372 371 367 371 374 368 365 367 365 363 367 367 366 365 364 361 359 359
362 363 360 357 359 359 359 361 363 365 364 362 362 359 361 359 362 363 366 365 367 366 365 367 367 367 367 370 373 365 366 371 368 370 370 369 367 364 365 363 360 359
361 361 361 360 358 360 360 359 359 361 361 361 361 364 360 367 365 365 365 364 367 365 369 370 369 368 370 370 372 367 367 368 367 369 367 368 367 364 360 362 364 360
360 362 363 361 361 360 359 358 360 358 360 358 361 361 363 364 365 364 364 363 361 361 363 364 366 364 366 369 370 369 364 363 358 366 367 366 363 363 359 362 364 362
356 358 358 358 359 360 359 359 359 361 359 360 361 361 363 363 363 365 366 364 363 362 361 364 366 364 365 367 369 368 368 366 364 370 368 366 366 364 362 364 365 363
354 355 358 358 356 357 358 359 360 360 362 361 359 361 362 362 364 363 363 364 362 363 364 363 367 369 366 365 367 368 368 364 358 363 363 364 366 369 366 360 366 366
353 355 355 355 354 353 354 355 358 360 361 360 358 358 362 362 362 362 363 364 362 362 365 365 369 368 363 364 365 366 368 365 361 363 363 362 361 362 361 362 360 361
354 353 353 354 352 352 352 355 355 356 360 359 358 358 358 361 362 362 362 365 361 363 366 365 366 365 364 363 364 368 368 365 363 365 367 365 363 360 360 361 358 359
353 352 352 353 353 352 352 353 354 355 357 358 358 358 357 359 361 362 363 365 361 362 365 366 366 366 364 361 362 363 362 360 362 364 362 362 361 361 361 361 360 358
356 354 352 352 352 353 352 352 353 354 354 354 356 357 359 357 358 360 360 364 365 363 363 364 365 365 366 364 362 362 362 363 362 362 361 362 362 360 360 359 357 358
356 356 353 352 352 354 353 353 353 353 353 352 354 356 357 356 356 359 360 359 364 361 359 363 365 363 366 366 364 364 362 363 360 361 360 359 360 358 357 358 358 356
360 358 356 356 356 358 355 354 354 354 354 354 354 354 354 356 355 355 358 360 359 359 359 360 361 362 364 365 364 363 362 363 364 362 360 361 360 361 358 356 355 355
363 360 360 360 359 359 358 357 356 356 355 356 356 354 354 355 357 355 356 357 358 359 359 357 355 357 358 360 362 364 364 361 361 360 360 359 358 356 356 356 355 354
365 365 364 364 362 362 363 361 358 359 357 357 356 356 357 359 359 357 356 355 356 358 357 354 353 352 360 364 363 360 361 358 356 356 355 358 359 358 354 353 353 354
365 365 365 361 365 365 366 367 362 359 358 359 359 359 361 363 359 358 357 355 353 355 357 354 353 353 357 344 347 353 360 360 359 360 361 360 358 360 358 354 353 352
362 363 360 354 358 367 368 367 367 366 365 362 357 358 363 361 359 359 359 358 356 355 354 353 353 359 339 341 344 345 360 358 354 353 352 353 354 354 353 353 352 351
358 359 362 360 356 357 367 367 368 368 365 362 360 361 360 360 361 358 358 357 356 356 351 350 349 342 336 339 341 340 345 361 353 352 349 349 351 352 353 354 357 356
359 358 356 358 360 360 361 360 360 361 362 361 361 360 360 359 358 359 358 358 356 354 356 350 351 345 337 337 338 337 339 350 355 351 351 350 352 352 351 352 356 355
355 357 357 356 357 357 357 358 358 358 358 361 360 358 358 358 356 356 355 356 354 352 351 348 344 326 328 331 331 333 334 349 355 352 352 351 350 352 356 354 355 353
343 347 351 353 353 352 352 353 354 355 354 357 357 357 357 357 359 357 358 355 355 354 352 351 344 323 324 326 327 329 333 353 358 358 356 354 353 354 355 358 357 359
343 343 341 341 343 347 348 349 350 351 353 353 353 355 355 356 352 353 354 351 350 350 351 349 350 325 319 320 322 324 337 358 360 358 356 356 353 354 355 361 358 362
340 340 338 337 338 340 342 343 346 346 346 349 349 350 349 347 347 349 351 351 349 349 351 352 344 326 317 316 318 321 338 356 360 357 358 350 348 351 353 356 359 364
336 337 335 335 335 337 339 341 344 345 346 346 347 349 349 350 350 345 346 349 348 346 347 350 344 332 315 315 316 320 341 358 359 358 351 350 351 354 353 354 358 352
336 339 339 338 338 338 338 339 339 339 342 347 346 346 345 348 349 348 346 347 349 345 346 344 340 333 325 312 313 317 326 357 359 352 348 350 354 351 353 354 355 353

ECMWFNIL_sfc_thetae_120.txt.gz
Theta_e
364 366 360 364 364 363 363 362 358 360 364 361 361 362 370 367 367 367 363 368 368 368 372 373 374 374 364 372 378 372 375 376 375 366 367 370 368 358 356 356 359 368
364 364 366 363 367 368 368 364 364 364 365 368 364 371 366 367 363 364 365 367 367 366 372 368 371 372 372 370 371 374 374 374 370 364 367 366 367 361 358 358 356 367
361 362 360 358 357 357 358 361 365 363 360 360 365 366 362 362 361 368 370 367 365 362 372 372 370 371 368 368 371 370 369 373 368 365 369 367 367 369 368 358 360 358
362 361 358 357 357 358 357 360 362 365 362 364 360 360 359 364 363 361 368 367 368 369 366 368 367 365 367 369 373 369 366 373 370 372 369 372 371 367 364 362 359 359
358 359 359 358 359 362 361 358 356 358 358 361 358 367 366 364 369 361 364 365 371 366 370 367 367 365 369 370 370 370 368 368 369 372 371 369 372 368 361 363 365 359
361 363 363 360 359 361 357 356 357 356 357 359 358 360 358 362 363 363 361 360 359 360 361 362 364 362 367 369 370 369 366 362 366 370 367 367 365 363 357 362 368 364
357 358 357 357 355 356 356 356 357 360 357 357 361 359 358 360 362 362 364 361 358 360 357 363 368 365 363 368 370 370 373 370 370 369 368 367 368 366 360 361 367 367
355 356 357 358 356 354 355 354 355 358 360 360 355 358 359 356 360 357 360 361 359 360 362 362 367 372 361 364 367 368 365 363 365 368 371 369 369 369 369 361 367 369
353 355 356 356 354 354 353 353 355 356 358 357 355 356 360 360 359 358 363 364 362 366 369 365 368 365 364 366 369 368 366 361 359 365 367 364 362 364 362 365 363 364
354 353 352 353 352 352 352 353 353 354 357 355 355 355 355 358 359 359 364 367 362 366 366 365 364 367 364 363 367 366 367 370 368 364 363 362 364 362 360 362 360 363
353 350 350 351 350 350 350 351 351 352 355 356 355 353 354 356 361 364 370 368 358 360 364 367 364 366 366 360 362 363 366 364 364 365 364 365 365 366 363 367 365 361
359 353 350 350 350 349 349 349 350 351 352 355 355 355 356 355 359 359 358 363 365 362 361 367 368 367 368 366 360 360 361 360 362 364 362 365 364 361 362 362 359 362
352 356 351 349 351 352 350 351 349 350 351 352 355 357 356 354 353 358 361 362 366 363 358 363 366 362 368 369 365 365 365 364 359 359 361 361 360 357 356 356 357 356
353 356 356 358 360 366 361 351 351 349 352 356 357 355 353 353 353 352 355 356 359 362 365 363 364 362 366 368 366 363 360 360 363 364 361 360 359 361 358 354 354 352
367 360 363 367 369 371 367 363 355 354 358 357 356 354 351 352 353 354 354 355 357 360 360 358 355 356 358 360 361 363 361 358 362 360 358 360 360 356 357 357 355 353
363 359 360 359 361 364 367 364 356 359 353 354 354 352 354 357 357 358 353 354 356 356 357 355 354 351 361 364 364 362 362 359 361 370 365 369 362 361 355 353 352 350
363 358 357 356 359 357 358 364 367 364 359 361 363 361 360 367 363 357 354 353 353 353 354 353 352 352 357 343 348 357 361 362 363 367 368 366 361 365 360 357 356 354
363 357 355 354 353 352 355 356 357 357 359 361 359 356 364 360 355 357 363 355 354 352 351 352 352 354 334 337 343 345 359 360 356 356 354 358 360 357 355 353 352 350
357 355 354 353 353 351 351 351 352 353 354 353 355 354 352 353 355 356 359 360 359 360 353 352 350 340 330 333 337 341 347 362 352 353 350 348 352 357 356 357 357 357
355 355 353 351 351 352 352 352 354 357 357 356 360 359 355 356 351 348 351 353 355 355 360 349 346 334 329 330 331 333 339 352 355 352 352 353 356 353 348 353 362 362
352 354 353 350 350 352 352 353 356 357 357 358 355 354 356 351 350 351 351 354 354 353 352 348 337 324 326 328 327 329 332 353 358 353 353 358 356 357 360 358 362 364
347 346 347 349 350 349 347 349 354 356 355 355 354 356 353 352 351 350 350 351 353 352 352 350 334 320 323 324 325 328 335 353 357 360 358 354 358 356 358 363 362 365
344 343 343 344 345 347 347 349 351 353 353 353 354 353 351 348 347 347 351 352 353 353 353 349 336 322 318 318 321 324 342 356 359 360 362 359 354 357 358 360 362 363
341 341 340 340 342 342 343 345 348 348 348 350 352 349 349 351 351 350 351 353 352 352 353 341 330 321 315 315 317 320 336 352 359 361 361 360 358 356 358 358 357 361
339 339 338 339 339 340 341 340 341 344 348 349 351 350 349 350 350 348 347 349 350 352 348 338 331 325 314 313 315 317 334 353 360 359 356 356 356 355 356 358 352 349
338 339 339 338 337 337 336 337 340 340 343 346 348 348 349 349 349 348 346 347 348 348 340 334 330 328 322 311 312 315 323 352 358 354 351 353 355 355 355 355 354 348

ECMWFNIL_sfc_thetae_123.txt.gz
Theta_e
356 359 356 353 355 355 357 359 360 358 359 360 359 359 357 358 361 360 359 361 364 364 366 368 368 367 370 366 368 367 365 364 364 366 365 364 362 358 359 357 360 355
357 361 360 355 360 360 359 359 358 357 359 359 359 358 363 360 359 360 358 360 365 365 366 367 366 365 364 364 367 365 364 365 362 366 364 362 361 362 357 357 356 360
357 359 359 357 358 360 359 359 359 359 358 360 358 361 361 363 358 359 358 360 362 363 365 365 364 363 365 364 364 366 363 363 359 360 360 361 364 364 362 359 358 358
357 357 358 357 357 356 357 357 359 359 358 359 358 360 362 361 358 358 361 368 360 361 364 365 363 363 364 362 363 363 363 364 364 364 363 365 366 365 361 358 359 356
357 357 356 356 355 355 355 355 357 356 356 357 358 357 358 361 357 358 361 361 359 362 363 364 362 361 363 363 365 362 360 362 364 365 363 362 363 365 363 358 356 355
356 356 356 355 354 355 354 354 355 355 356 357 356 360 357 358 358 357 360 359 360 361 361 362 362 361 362 364 364 361 361 361 362 362 361 360 361 363 362 362 357 357
355 355 356 356 356 356 354 354 354 356 355 357 356 356 356 356 356 357 357 358 357 358 359 358 359 358 361 363 362 360 362 360 361 360 361 361 362 361 362 358 360 359
355 356 356 355 354 353 354 353 353 354 354 356 354 356 356 355 358 358 358 357 356 356 355 358 359 359 361 361 362 361 364 364 362 360 359 360 359 359 360 362 357 356
355 354 354 354 353 351 353 352 352 353 356 355 353 354 355 356 357 356 358 357 356 355 355 359 359 360 360 360 361 362 362 362 362 360 360 362 362 361 361 360 359 357
352 353 353 353 352 352 351 351 351 352 357 354 353 352 354 356 356 356 358 356 356 358 358 359 360 361 360 359 361 362 361 360 359 360 362 362 362 360 359 357 356 355
350 351 352 352 352 351 351 351 350 351 355 353 352 351 352 353 356 356 357 357 355 359 358 358 357 359 360 359 361 362 361 361 361 358 359 359 358 358 365 357 356 355
348 348 349 351 351 350 349 349 350 349 351 353 352 351 352 352 353 355 358 359 356 357 358 359 359 360 361 360 357 358 360 361 362 360 358 358 358 359 360 359 356 355
350 347 347 348 350 348 348 347 348 348 347 351 353 351 351 350 352 354 358 357 358 358 357 359 360 361 360 360 359 358 358 358 357 357 357 357 358 358 358 357 356 355
350 352 351 352 354 352 350 349 348 345 346 347 352 351 351 351 352 352 354 357 358 358 358 359 360 359 359 361 361 359 358 359 356 356 356 357 356 356 356 353 352 353
352 355 353 356 359 358 361 355 354 355 358 354 351 351 351 354 352 351 352 353 360 359 359 358 359 360 359 360 360 359 357 356 356 358 357 354 355 357 355 355 355 353
353 354 356 356 356 356 356 360 358 358 358 357 354 352 350 352 351 351 348 346 345 348 350 354 356 355 362 365 365 359 356 356 355 356 354 355 356 354 354 354 353 351
351 352 354 352 354 353 354 355 356 358 359 357 354 353 351 351 347 347 350 350 349 347 347 348 348 351 342 333 338 350 360 355 355 359 356 353 353 353 353 354 354 352
352 353 351 351 351 350 350 351 352 352 353 354 353 350 350 349 347 348 349 352 353 350 350 351 350 346 329 333 337 338 350 356 355 355 356 355 355 353 353 353 351 349
351 352 351 349 349 349 348 349 350 352 352 353 355 353 353 350 348 349 348 350 352 348 349 352 348 337 327 331 333 335 338 354 352 353 351 350 350 351 350 350 349 351
351 350 349 349 349 349 348 348 350 352 354 355 354 353 353 351 352 349 350 352 355 351 349 347 342 331 327 328 329 331 335 344 349 351 349 347 348 350 354 357 356 356
347 349 349 348 348 348 348 348 349 351 353 352 352 352 348 348 351 350 351 353 354 355 348 340 333 323 323 326 326 328 331 351 352 360 355 352 352 353 357 359 360 361
342 342 342 343 345 345 345 344 344 346 349 350 351 350 349 350 349 350 350 351 353 353 347 339 331 319 320 321 323 326 337 356 355 354 355 354 354 355 356 358 359 357
340 340 340 340 341 341 343 344 345 345 346 350 349 348 347 346 346 346 348 349 350 351 345 334 327 319 315 316 318 322 342 353 356 358 354 353 354 355 356 355 354 348
339 338 337 339 339 340 341 343 344 343 343 346 345 346 346 348 348 346 348 350 349 348 338 330 325 321 314 313 315 319 337 350 352 355 356 354 352 353 353 352 356 357
339 339 339 338 338 338 339 338 339 342 344 345 345 345 345 346 347 344 344 346 345 341 339 330 327 324 314 313 314 316 334 347 355 355 353 353 353 351 351 347 347 351
340 341 339 337 335 334 336 337 340 341 341 344 344 344 343 344 345 344 344 344 340 334 333 332 329 327 322 312 312 314 322 349 350 349 349 350 352 352 351 345 340 339

ECMWFNIL_sfc_thetae_126.txt.gz
Theta_e
351 351 350 348 349 352 352 352 354 355 354 353 352 353 355 356 358 357 358 358 360 358 362 364 363 362 366 361 362 361 362 358 359 360 360 360 359 358 358 356 355 350
352 352 357 350 352 356 354 355 356 356 357 355 356 355 356 356 357 357 357 358 362 360 362 364 364 363 363 361 362 361 359 361 357 366 360 358 357 359 359 355 355 354
353 354 355 350 351 353 354 356 357 356 357 357 358 357 358 358 356 357 356 357 360 360 361 364 363 362 363 361 361 362 361 358 357 357 358 355 359 358 358 359 354 354
353 355 355 352 353 353 355 355 356 356 357 357 357 359 359 362 357 357 355 363 359 360 361 363 362 362 361 361 360 360 360 359 359 358 357 359 361 361 360 357 357 354
354 355 356 354 355 356 356 355 355 356 355 357 357 357 359 358 357 355 355 357 358 358 361 361 361 360 361 359 359 358 359 359 359 358 356 355 357 361 361 359 353 351
355 355 356 355 354 355 354 354 355 356 356 356 356 357 357 358 356 355 356 356 357 358 361 361 360 359 360 359 359 358 358 358 358 359 357 357 358 359 363 360 354 351
355 354 354 355 354 354 353 354 355 356 355 355 357 355 355 356 355 355 355 357 356 358 360 360 359 359 358 359 359 358 357 358 357 358 357 356 356 356 359 358 355 353
354 355 355 354 353 353 353 352 353 355 354 355 355 355 355 354 355 355 356 358 357 356 358 359 359 358 358 358 359 358 356 360 358 357 356 356 354 355 356 359 356 352
354 354 354 353 353 352 353 353 353 354 354 354 354 354 355 354 354 355 355 356 356 355 356 357 357 357 358 358 359 358 356 359 360 358 356 355 355 356 357 357 356 354
353 353 353 353 353 352 352 353 353 352 354 353 354 354 353 354 354 354 354 354 354 354 354 354 356 356 357 357 358 359 358 358 359 358 357 357 357 357 358 358 356 353
353 353 353 352 352 352 350 351 351 351 352 353 353 352 353 353 353 354 354 354 354 354 353 353 355 356 356 357 358 359 359 359 359 358 358 357 358 358 364 358 356 354
352 352 352 352 352 352 351 350 350 350 350 352 353 351 351 352 352 353 354 354 354 354 354 355 355 356 357 357 357 358 359 359 359 358 358 358 358 358 357 358 356 354
351 351 352 352 352 352 352 351 349 349 349 351 353 351 350 350 352 352 353 354 355 350 344 346 346 347 348 350 353 357 358 358 358 358 357 357 357 357 356 356 357 356
350 351 350 351 351 352 351 351 350 349 348 350 352 351 349 349 349 352 352 351 350 349 347 348 347 346 345 346 345 348 353 356 357 357 357 356 356 355 356 356 356 356
349 349 350 352 353 351 350 349 347 346 346 346 350 351 351 351 351 350 351 352 350 350 349 350 349 348 348 347 346 345 347 352 355 355 354 352 351 353 353 354 353 352
347 351 352 353 352 352 353 356 358 357 354 351 348 349 349 349 349 350 349 347 349 349 350 351 350 350 350 353 353 350 347 350 352 354 353 350 350 349 349 351 352 352
344 344 344 344 350 350 350 351 353 355 353 349 348 349 349 350 347 346 346 348 349 348 348 349 351 351 351 339 340 347 354 352 351 353 352 350 349 349 349 350 351 351
347 347 346 346 345 344 346 348 351 350 350 349 347 347 347 348 347 346 347 348 349 347 347 349 349 353 336 332 334 335 344 353 353 348 353 350 350 350 349 349 348 350
347 345 346 346 346 347 347 347 350 350 349 350 349 349 347 345 346 347 346 347 347 346 347 349 345 332 327 330 330 331 335 352 351 351 349 351 351 349 349 349 348 349
346 345 344 345 346 346 345 344 345 350 352 352 351 349 347 348 348 346 347 347 347 346 347 343 336 328 325 327 328 329 332 342 346 348 350 349 346 346 349 349 351 351
342 343 343 343 344 345 345 344 344 343 349 350 350 347 346 346 347 347 349 351 352 349 342 337 330 321 321 324 323 325 328 343 346 349 349 348 349 354 356 358 355 352
339 339 340 341 342 343 343 342 343 342 343 347 349 347 346 347 347 347 347 349 350 345 341 335 325 318 318 319 320 322 334 352 348 346 346 348 354 356 356 355 354 346
338 338 339 339 339 340 341 341 341 342 343 347 346 344 344 344 344 346 347 348 349 344 336 328 325 319 315 315 316 319 339 349 350 350 350 352 353 355 355 356 351 343
337 337 337 338 338 338 339 341 342 343 343 347 344 345 344 345 345 345 345 346 347 338 331 327 325 322 314 313 314 317 335 348 352 353 351 352 352 352 352 352 352 354
338 338 338 337 336 337 338 338 338 341 344 343 342 343 343 343 345 343 343 343 340 338 339 329 327 326 314 312 312 315 332 344 350 351 349 350 351 349 348 349 350 351
339 338 337 336 334 335 336 336 339 340 341 344 344 343 342 342 344 342 342 338 334 332 331 329 327 325 321 311 311 312 319 346 346 349 350 350 350 347 343 341 339 337